[[{"header":{"parameterUnit":"m.s-1","parameterCategory":1,"la1":31.0,"la2":29.5877,"lo1":-88.7671,"lo2":-86.6584,"dy":0.0162,"dx":0.0185,"nx":115,"ny":88,"refTime":"2023-08-13T12:00:00:Z","depth":0,"parameterNumber":2,"parameterNumberName":"U-component_of_WINDS"},"data":[0.0,0.0,0.0,0.0,0.0,0.0,0.0,0.0,0.0,0.0,0.0,0.0,0.0,0.0,0.0,0.0,0.0,0.0,0.0,0.0,0.0,0.0,0.0,0.0,0.0,0.0,0.0,0.0,0.0,0.0,0.0,0.0,0.0,0.0,0.0,0.0,0.0,0.0,0.0,0.0,0.0,0.0,0.0,0.0,0.0,0.0,0.0,0.0,0.0,0.0,0.0,0.0,0.0,0.0,0.0,0.0,0.0,0.0,0.0,0.0,0.0,0.0,0.0,0.0,0.0,0.0,0.0,0.0,0.0,0.0,0.0,0.0,0.0,0.0,0.0,0.0,0.0,0.0,0.0,0.0,0.0,0.0,0.0,0.0,0.0,0.0,0.0,0.0,0.0,0.0,0.0,0.0,0.0,0.0,0.0,0.0,0.0,0.0,0.0,0.0,0.0,0.0,0.0,0.0,0.0,0.0,0.0,0.0,0.0,0.0,0.0,0.0,0.0,0.0,0.0,0.0,0.0,0.0,0.0,0.0,0.0,0.0,0.0,0.0,0.0,0.0,0.0,0.0,0.0,0.0,0.0,0.0,0.0,0.0,0.0,0.0,0.0,0.0,0.0,0.0,0.0,0.0,0.0,0.0,0.0,0.0,0.0,0.0,0.0,0.0,0.0,0.0,0.0,0.0,0.0,0.0,0.0,0.0,0.0,0.0,0.0,0.0,0.0,0.0,0.0,0.0,0.0,0.0,0.0,0.0,0.0,0.0,0.0,0.0,0.0,0.0,0.0,0.0,0.0,0.0,0.0,0.0,0.0,0.0,0.0,0.0,0.0,0.0,0.0,0.0,0.0,0.0,0.0,0.0,0.0,0.0,0.0,0.0,0.0,0.0,0.0,0.0,0.0,0.0,0.0,0.0,0.0,0.0,0.0,0.0,0.0,0.0,0.0,0.0,0.0,0.0,0.0,0.0,0.0,0.0,0.0,0.0,0.0,0.0,0.0,0.0,0.0,0.0,0.0,0.0,0.0,0.0,0.0,0.0,0.0,0.0,0.0,0.0,0.0,0.0,0.0,0.0,0.0,0.0,0.0,0.0,0.0,0.0,0.0,0.0,0.0,0.0,0.0,0.0,0.0,0.0,0.0,0.0,0.0,0.0,0.0,0.0,0.0,0.0,0.0,0.0,0.0,0.0,0.0,0.0,0.0,0.0,0.0,0.0,0.0,0.0,0.0,0.0,0.0,0.0,0.0,0.0,0.0,0.0,0.0,0.0,0.0,0.0,0.0,0.0,0.0,0.0,0.0,0.0,0.0,0.0,0.0,0.0,0.0,0.0,0.0,0.0,0.0,0.0,0.0,0.0,0.0,0.0,0.0,0.0,0.0,0.0,0.0,0.0,0.0,0.0,0.0,0.0,0.0,0.0,0.0,0.0,0.0,0.0,0.0,0.0,0.0,0.0,0.0,0.0,0.0,0.0,0.0,0.0,0.0,0.0,0.0,0.0,0.0,0.0,0.0,0.0,0.0,0.0,0.0,0.0,0.0,0.0,0.0,0.0,0.0,0.0,0.0,0.0,0.0,0.0,0.0,0.0,0.0,0.0,0.0,0.0,0.0,0.0,0.0,0.0,0.0,0.0,0.0,0.0,0.0,0.0,0.0,0.0,0.0,0.0,0.0,0.0,0.0,0.0,0.0,0.0,0.0,0.0,0.0,0.0,0.0,0.0,0.0,0.0,0.0,0.0,0.0,0.0,0.0,0.0,0.0,0.0,0.0,0.0,0.0,0.0,0.0,0.0,0.0,0.0,0.0,0.0,0.0,0.0,0.0,0.0,0.0,0.0,0.0,0.0,0.0,0.0,0.0,0.0,0.0,0.0,0.0,0.0,0.0,0.0,0.0,0.0,0.0,0.0,0.0,0.0,0.0,0.0,0.0,0.0,0.0,0.0,0.0,0.0,0.0,0.0,0.0,0.0,0.0,0.0,0.0,0.0,0.0,0.0,0.0,0.0,0.0,0.0,0.0,0.0,0.0,0.0,0.0,0.0,0.0,0.0,0.0,0.0,0.0,0.0,0.0,0.0,0.0,0.0,0.0,0.0,0.0,0.0,0.0,0.0,0.0,0.0,0.0,0.0,0.0,0.0,0.0,0.0,0.0,0.0,0.0,0.0,0.0,0.0,0.0,0.0,0.0,0.0,0.0,0.0,0.0,0.0,0.0,0.0,0.0,0.0,0.0,0.0,0.0,0.0,0.0,0.0,0.0,0.0,0.0,0.0,0.0,0.0,0.0,0.0,0.0,0.0,0.0,0.0,0.0,0.0,0.0,0.0,0.0,0.0,0.0,0.0,0.0,0.0,0.0,0.0,0.0,0.0,0.0,0.0,0.0,0.0,0.0,0.0,0.0,0.0,0.0,0.0,0.0,0.0,0.0,0.0,0.0,0.0,0.0,0.0,0.0,0.0,0.0,0.0,0.0,0.0,0.0,0.0,0.0,0.0,0.0,0.0,0.0,0.0,0.0,0.0,0.0,0.0,0.0,0.0,0.0,0.0,0.0,0.0,0.0,0.0,0.0,0.0,0.0,0.0,0.0,0.0,0.0,0.0,0.0,0.0,0.0,0.0,0.0,0.0,0.0,0.0,0.0,0.0,0.0,0.0,0.0,0.0,0.0,0.0,0.0,0.0,0.0,0.0,0.0,0.0,0.0,0.0,0.0,0.0,0.0,0.0,0.0,0.0,0.0,0.0,0.0,0.0,0.0,0.0,0.0,0.0,0.0,0.0,0.0,0.0,0.0,0.0,0.0,0.0,0.0,0.0,0.0,0.0,0.0,0.0,0.0,0.0,0.0,0.0,0.0,0.0,0.0,0.0,0.0,0.0,0.0,0.0,0.0,0.0,0.0,0.0,0.0,0.0,0.0,0.0,0.0,0.0,0.0,0.0,0.0,0.0,0.0,0.0,0.0,0.0,0.0,0.0,0.0,0.0,0.0,0.0,0.0,0.0,0.0,0.0,0.0,0.0,0.0,0.0,0.0,0.0,0.0,0.0,0.0,0.0,0.0,0.0,0.0,0.0,0.0,0.0,0.0,0.0,0.0,0.0,0.0,0.0,0.0,0.0,0.0,0.0,0.0,0.0,0.0,0.0,0.0,0.0,0.0,0.0,0.0,0.0,0.0,0.0,0.0,0.0,0.0,0.0,0.0,0.0,0.0,0.0,0.0,0.0,0.0,0.0,0.0,0.0,0.0,0.0,0.0,0.0,0.0,0.0,0.0,0.0,0.0,0.0,0.0,0.0,0.0,0.0,0.0,0.0,0.0,0.0,0.0,0.0,0.0,0.0,0.0,0.0,0.0,0.0,0.0,0.0,0.0,0.0,0.0,0.0,0.0,0.0,0.0,0.0,0.0,0.0,0.0,0.0,0.0,0.0,0.0,0.0,0.0,0.0,0.0,0.0,0.0,0.0,0.0,0.0,0.0,0.0,0.0,0.0,0.0,0.0,0.0,0.0,0.0,0.0,0.0,0.0,0.0,0.0,0.0,0.0,0.0,0.0,0.0,0.0,0.0,0.0,0.0,0.0,0.0,0.0,0.0,0.0,0.0,0.0,0.0,0.0,0.0,0.0,0.0,0.0,0.0,0.0,0.0,0.0,0.0,0.0,0.0,0.0,0.0,0.0,0.0,0.0,0.0,0.0,0.0,0.0,0.0,0.0,0.0,0.0,0.0,0.0,0.0,0.0,0.0,0.0,0.0,0.0,0.0,0.0,0.0,0.0,0.0,0.0,0.0,0.0,0.0,0.0,0.0,0.0,0.0,0.0,0.0,0.0,0.0,0.0,0.0,0.0,0.0,0.0,0.0,0.0,0.0,0.0,0.0,0.0,0.0,0.0,0.0,0.0,0.0,0.0,0.0,0.0,0.0,0.0,0.0,0.0,0.0,0.0,0.0,0.0,0.0,0.0,0.0,0.0,0.0,0.0,0.0,0.0,0.0,0.0,0.0,0.0,0.0,0.0,0.0,0.0,0.0,0.0,0.0,0.0,0.0,0.0,0.0,0.0,0.0,0.0,0.0,0.0,0.0,0.0,0.0,0.0,0.0,0.0,0.0,0.0,0.0,0.0,0.0,0.0,0.0,0.0,0.0,0.0,0.0,0.0,0.0,0.0,0.0,0.0,0.0,0.0,0.0,0.0,0.0,0.0,0.0,0.0,0.0,0.0,0.0,0.0,0.0,0.0,0.0,0.0,0.0,0.0,0.0,0.0,0.0,0.0,0.0,0.0,0.0,0.0,-1.5673,0.0,0.0,0.0,0.0,0.0,0.0,0.0,0.0,0.0,0.0,0.0,0.0,0.0,0.0,0.0,0.0,0.0,0.0,0.0,0.0,0.0,0.0,0.0,0.0,0.0,0.0,0.0,0.0,0.0,0.0,0.0,0.0,0.0,0.0,0.0,0.0,0.0,0.0,0.0,0.0,0.0,0.0,0.0,0.0,0.0,0.0,0.0,0.0,0.0,0.0,0.0,0.0,0.0,0.0,0.0,0.0,0.0,0.0,0.0,0.0,0.0,0.0,0.0,0.0,0.0,0.0,0.0,0.0,0.0,0.0,0.0,0.0,0.0,0.0,0.0,0.0,0.0,0.0,0.0,0.0,0.0,0.0,0.0,0.0,0.0,0.0,0.0,0.0,0.0,0.0,0.0,0.0,0.0,0.0,0.0,0.0,0.0,0.0,0.0,0.0,0.0,0.0,0.0,0.0,0.0,0.0,0.0,0.0,0.0,0.0,-1.9517,-1.92,-1.8842,-1.8229,-1.7389,0.0,0.0,0.0,0.0,0.0,0.0,0.0,0.0,0.0,0.0,0.0,0.0,0.0,0.0,0.0,0.0,0.0,0.0,0.0,0.0,0.0,0.0,0.0,0.0,0.0,0.0,0.0,0.0,0.0,0.0,0.0,0.0,0.0,0.0,0.0,0.0,0.0,0.0,0.0,0.0,0.0,0.0,0.0,0.0,0.0,0.0,0.0,0.0,0.0,0.0,0.0,0.0,0.0,0.0,0.0,0.0,0.0,0.0,0.0,0.0,0.0,0.0,0.0,0.0,0.0,0.0,0.0,0.0,0.0,0.0,0.0,0.0,0.0,0.0,0.0,0.0,0.0,0.0,0.0,0.0,0.0,0.0,0.0,0.0,0.0,0.0,0.0,0.0,0.0,0.0,0.0,0.0,0.0,0.0,0.0,0.0,0.0,0.0,0.0,0.0,0.0,0.0,0.0,0.0,0.0,0.0,0.0,0.0,0.0,0.0,0.0,0.0,-2.0141,-1.9614,-1.8738,0.0,0.0,0.0,0.0,0.0,0.0,0.0,0.0,0.0,0.0,0.0,0.0,0.0,0.0,0.0,0.0,0.0,0.0,0.0,0.0,0.0,0.0,0.0,0.0,0.0,0.0,0.0,0.0,0.0,0.0,0.0,0.0,0.0,0.0,0.0,0.0,0.0,0.0,0.0,0.0,0.0,0.0,0.0,0.0,0.0,0.0,0.0,0.0,0.0,0.0,0.0,0.0,0.0,0.0,0.0,0.0,0.0,0.0,0.0,0.0,0.0,0.0,0.0,0.0,0.0,0.0,0.0,0.0,0.0,0.0,0.0,0.0,0.0,0.0,0.0,0.0,0.0,0.0,0.0,0.0,0.0,0.0,0.0,0.0,0.0,0.0,0.0,0.0,0.0,0.0,0.0,0.0,0.0,0.0,0.0,0.0,0.0,0.0,0.0,0.0,0.0,0.0,0.0,0.0,0.0,0.0,0.0,0.0,0.0,0.0,-2.0878,-2.0854,-2.0194,0.0,-1.8511,0.0,0.0,0.0,0.0,0.0,0.0,0.0,0.0,0.0,0.0,0.0,0.0,0.0,0.0,0.0,0.0,0.0,0.0,0.0,0.0,0.0,0.0,0.0,0.0,0.0,0.0,0.0,0.0,0.0,0.0,0.0,0.0,0.0,0.0,0.0,0.0,0.0,0.0,0.0,0.0,0.0,0.0,0.0,0.0,0.0,0.0,0.0,0.0,0.0,0.0,0.0,0.0,0.0,0.0,0.0,0.0,0.0,0.0,0.0,0.0,0.0,0.0,0.0,0.0,0.0,0.0,0.0,0.0,0.0,0.0,0.0,0.0,0.0,0.0,0.0,0.0,0.0,0.0,0.0,0.0,0.0,0.0,0.0,0.0,0.0,0.0,0.0,0.0,0.0,0.0,0.0,0.0,0.0,0.0,0.0,0.0,0.0,0.0,0.0,0.0,0.0,0.0,0.0,0.0,0.0,0.0,0.0,0.0,0.0,0.0,-2.1521,-2.1492,-2.0669,-1.9803,0.0,0.0,0.0,0.0,0.0,0.0,0.0,0.0,0.0,0.0,0.0,0.0,0.0,0.0,0.0,0.0,0.0,0.0,0.0,0.0,0.0,0.0,0.0,0.0,0.0,0.0,0.0,0.0,0.0,0.0,0.0,0.0,0.0,0.0,0.0,0.0,0.0,0.0,0.0,0.0,0.0,0.0,0.0,0.0,0.0,0.0,0.0,0.0,0.0,0.0,0.0,0.0,0.0,0.0,0.0,0.0,0.0,0.0,0.0,0.0,0.0,0.0,0.0,0.0,0.0,0.0,0.0,0.0,0.0,0.0,0.0,0.0,0.0,0.0,0.0,0.0,0.0,0.0,0.0,0.0,0.0,0.0,0.0,0.0,0.0,0.0,0.0,0.0,0.0,0.0,0.0,0.0,0.0,0.0,0.0,0.0,0.0,0.0,0.0,0.0,0.0,0.0,0.0,0.0,0.0,0.0,0.0,0.0,0.0,0.0,-2.1796,-2.184,-2.1794,-2.1123,-2.0272,-1.9304,0.0,0.0,0.0,0.0,0.0,0.0,0.0,0.0,0.0,0.0,0.0,0.0,0.0,0.0,0.0,0.0,0.0,0.0,0.0,0.0,0.0,0.0,0.0,0.0,0.0,0.0,0.0,0.0,0.0,0.0,0.0,0.0,0.0,0.0,0.0,0.0,0.0,0.0,0.0,0.0,0.0,0.0,0.0,0.0,0.0,0.0,0.0,0.0,0.0,0.0,0.0,0.0,0.0,0.0,0.0,0.0,0.0,0.0,0.0,0.0,0.0,0.0,0.0,0.0,0.0,0.0,0.0,0.0,0.0,0.0,0.0,0.0,0.0,0.0,0.0,0.0,0.0,0.0,0.0,0.0,0.0,0.0,0.0,0.0,0.0,0.0,0.0,0.0,0.0,0.0,0.0,0.0,0.0,0.0,0.0,0.0,0.0,0.0,0.0,0.0,0.0,0.0,0.0,0.0,0.0,0.0,0.0,0.0,-2.1604,-2.1679,-2.1679,-2.1603,-2.1463,-2.0687,0.0,0.0,0.0,0.0,0.0,0.0,0.0,0.0,0.0,0.0,0.0,0.0,0.0,0.0,0.0,0.0,0.0,0.0,0.0,0.0,0.0,0.0,0.0,0.0,0.0,0.0,0.0,0.0,0.0,0.0,0.0,0.0,0.0,0.0,0.0,0.0,0.0,0.0,0.0,0.0,0.0,0.0,0.0,0.0,0.0,0.0,0.0,0.0,0.0,0.0,0.0,0.0,0.0,0.0,0.0,0.0,0.0,0.0,0.0,0.0,0.0,0.0,0.0,0.0,0.0,0.0,0.0,0.0,0.0,0.0,0.0,0.0,0.0,0.0,0.0,0.0,0.0,0.0,0.0,0.0,0.0,0.0,0.0,0.0,0.0,0.0,0.0,0.0,0.0,0.0,0.0,0.0,0.0,0.0,0.0,0.0,0.0,0.0,0.0,0.0,0.0,0.0,0.0,0.0,0.0,0.0,0.0,0.0,0.0,-2.1464,-2.1588,-2.1619,-2.1604,-2.1464,-2.0704,0.0,0.0,0.0,0.0,0.0,0.0,0.0,0.0,0.0,0.0,0.0,0.0,0.0,0.0,0.0,0.0,0.0,0.0,0.0,0.0,0.0,0.0,0.0,0.0,0.0,0.0,0.0,0.0,0.0,0.0,0.0,0.0,0.0,0.0,0.0,0.0,0.0,0.0,0.0,0.0,0.0,0.0,0.0,0.0,0.0,0.0,0.0,0.0,0.0,0.0,0.0,0.0,0.0,0.0,0.0,0.0,0.0,0.0,0.0,0.0,0.0,0.0,0.0,0.0,0.0,0.0,0.0,0.0,0.0,0.0,0.0,0.0,0.0,0.0,0.0,0.0,0.0,0.0,0.0,0.0,0.0,0.0,0.0,0.0,0.0,0.0,0.0,0.0,0.0,0.0,0.0,0.0,0.0,0.0,0.0,0.0,0.0,0.0,0.0,0.0,0.0,0.0,0.0,0.0,0.0,0.0,0.0,0.0,0.0,-2.1402,0.0,-2.151,-2.1526,-2.1418,-2.0803,0.0,0.0,0.0,0.0,0.0,0.0,0.0,0.0,0.0,0.0,0.0,0.0,0.0,0.0,0.0,0.0,0.0,0.0,0.0,0.0,0.0,0.0,0.0,0.0,0.0,0.0,0.0,0.0,0.0,0.0,0.0,0.0,0.0,0.0,0.0,0.0,0.0,0.0,0.0,0.0,0.0,0.0,0.0,0.0,0.0,0.0,0.0,0.0,0.0,0.0,0.0,0.0,0.0,0.0,0.0,0.0,0.0,0.0,0.0,0.0,0.0,0.0,0.0,0.0,0.0,0.0,0.0,0.0,0.0,0.0,0.0,0.0,0.0,0.0,0.0,0.0,0.0,0.0,0.0,0.0,0.0,0.0,0.0,0.0,0.0,0.0,0.0,0.0,0.0,0.0,0.0,0.0,0.0,0.0,0.0,0.0,0.0,0.0,0.0,0.0,0.0,0.0,0.0,0.0,0.0,0.0,0.0,0.0,-2.1294,-2.1402,-2.1418,-2.1483,-2.1434,-2.1404,-2.1018,0.0,0.0,0.0,0.0,0.0,0.0,0.0,0.0,0.0,0.0,0.0,0.0,0.0,0.0,0.0,0.0,0.0,0.0,0.0,0.0,0.0,0.0,0.0,0.0,0.0,0.0,0.0,0.0,0.0,0.0,0.0,0.0,0.0,0.0,0.0,0.0,0.0,0.0,0.0,0.0,0.0,0.0,0.0,0.0,0.0,0.0,0.0,0.0,0.0,0.0,0.0,0.0,0.0,0.0,0.0,0.0,0.0,0.0,0.0,0.0,0.0,0.0,0.0,0.0,0.0,0.0,0.0,0.0,0.0,0.0,0.0,0.0,0.0,0.0,0.0,0.0,0.0,0.0,0.0,0.0,0.0,0.0,0.0,0.0,0.0,0.0,0.0,0.0,0.0,0.0,0.0,0.0,0.0,0.0,0.0,0.0,0.0,0.0,0.0,0.0,0.0,0.0,0.0,0.0,0.0,0.0,0.0,0.0,0.0,-2.2086,-2.2086,-2.2362,-2.2867,-2.2394,-2.1761,0.0,0.0,0.0,0.0,0.0,0.0,0.0,0.0,0.0,0.0,0.0,0.0,0.0,0.0,0.0,0.0,0.0,0.0,0.0,0.0,0.0,0.0,0.0,0.0,0.0,0.0,0.0,0.0,0.0,0.0,0.0,0.0,0.0,0.0,0.0,0.0,0.0,0.0,0.0,0.0,0.0,0.0,0.0,0.0,0.0,0.0,0.0,0.0,0.0,0.0,0.0,0.0,0.0,0.0,0.0,0.0,0.0,0.0,0.0,0.0,0.0,0.0,0.0,0.0,0.0,0.0,0.0,0.0,0.0,0.0,0.0,0.0,0.0,0.0,0.0,0.0,0.0,0.0,0.0,0.0,0.0,0.0,0.0,0.0,0.0,0.0,0.0,0.0,0.0,0.0,0.0,0.0,0.0,0.0,0.0,0.0,0.0,0.0,0.0,0.0,0.0,0.0,0.0,0.0,0.0,0.0,0.0,0.0,0.0,-2.3353,-2.3178,-2.3182,-2.3412,-2.3268,-2.2685,-2.1666,0.0,0.0,0.0,0.0,0.0,0.0,0.0,0.0,0.0,0.0,0.0,0.0,0.0,0.0,0.0,0.0,0.0,0.0,0.0,0.0,0.0,0.0,0.0,0.0,0.0,0.0,0.0,0.0,0.0,0.0,0.0,0.0,0.0,0.0,0.0,0.0,0.0,0.0,0.0,0.0,0.0,0.0,0.0,0.0,0.0,0.0,0.0,0.0,0.0,0.0,0.0,0.0,0.0,0.0,0.0,0.0,0.0,0.0,0.0,0.0,0.0,0.0,0.0,0.0,0.0,0.0,0.0,0.0,0.0,0.0,0.0,0.0,0.0,0.0,0.0,0.0,0.0,0.0,0.0,0.0,0.0,0.0,0.0,0.0,0.0,0.0,0.0,0.0,0.0,0.0,0.0,0.0,0.0,0.0,0.0,0.0,0.0,0.0,0.0,0.0,0.0,0.0,0.0,0.0,0.0,0.0,0.0,0.0,-2.5123,-2.4707,-2.4135,-2.3433,-2.4037,-2.3722,0.0,0.0,0.0,0.0,0.0,0.0,0.0,0.0,0.0,0.0,0.0,0.0,0.0,0.0,0.0,0.0,0.0,0.0,0.0,0.0,0.0,0.0,0.0,0.0,0.0,0.0,0.0,0.0,0.0,0.0,0.0,0.0,0.0,0.0,0.0,0.0,0.0,0.0,0.0,0.0,0.0,0.0,0.0,0.0,0.0,0.0,0.0,0.0,0.0,0.0,0.0,0.0,0.0,0.0,0.0,0.0,0.0,0.0,0.0,0.0,0.0,0.0,0.0,0.0,0.0,0.0,0.0,0.0,0.0,0.0,0.0,0.0,0.0,0.0,0.0,0.0,0.0,0.0,0.0,0.0,0.0,0.0,0.0,0.0,0.0,0.0,0.0,0.0,0.0,0.0,0.0,0.0,0.0,0.0,0.0,0.0,0.0,0.0,0.0,0.0,0.0,0.0,0.0,0.0,0.0,0.0,0.0,0.0,0.0,-2.5733,-2.7094,-2.7322,-2.6314,-2.547,-2.4609,0.0,0.0,0.0,0.0,0.0,0.0,0.0,0.0,0.0,0.0,0.0,0.0,0.0,0.0,0.0,0.0,0.0,0.0,0.0,0.0,0.0,0.0,0.0,0.0,0.0,0.0,0.0,0.0,0.0,0.0,0.0,0.0,0.0,0.0,0.0,0.0,0.0,0.0,0.0,0.0,0.0,0.0,0.0,0.0,0.0,0.0,0.0,0.0,0.0,0.0,0.0,0.0,0.0,0.0,0.0,0.0,0.0,0.0,0.0,0.0,0.0,0.0,0.0,0.0,0.0,0.0,0.0,0.0,0.0,0.0,0.0,0.0,0.0,0.0,0.0,0.0,0.0,0.0,0.0,0.0,0.0,0.0,0.0,0.0,0.0,0.0,0.0,0.0,0.0,0.0,0.0,0.0,0.0,0.0,0.0,0.0,0.0,0.0,0.0,0.0,0.0,0.0,0.0,0.0,0.0,0.0,0.0,0.0,-2.4867,-2.683,-2.8632,-2.9373,-2.9003,-2.7376,-2.5759,0.0,0.0,0.0,0.0,0.0,0.0,0.0,0.0,0.0,0.0,0.0,0.0,0.0,0.0,0.0,0.0,0.0,0.0,0.0,0.0,0.0,0.0,0.0,0.0,0.0,0.0,0.0,0.0,0.0,0.0,0.0,0.0,0.0,0.0,0.0,0.0,0.0,0.0,0.0,0.0,0.0,0.0,0.0,0.0,0.0,0.0,0.0,0.0,0.0,0.0,0.0,0.0,0.0,0.0,0.0,0.0,0.0,0.0,0.0,0.0,0.0,0.0,0.0,0.0,0.0,0.0,0.0,0.0,0.0,0.0,0.0,0.0,0.0,0.0,0.0,0.0,0.0,0.0,0.0,0.0,0.0,0.0,0.0,0.0,0.0,0.0,0.0,0.0,0.0,0.0,0.0,0.0,0.0,0.0,0.0,0.0,0.0,0.0,0.0,0.0,0.0,0.0,0.0,0.0,0.0,0.0,0.0,0.0,-2.5467,-2.8252,-2.9777,-3.0796,-3.1349,-2.946,-2.7116,0.0,0.0,0.0,0.0,0.0,0.0,0.0,0.0,0.0,0.0,0.0,0.0,0.0,0.0,0.0,0.0,0.0,0.0,0.0,0.0,0.0,0.0,0.0,0.0,0.0,0.0,0.0,0.0,0.0,0.0,0.0,0.0,0.0,0.0,0.0,0.0,0.0,0.0,0.0,0.0,0.0,0.0,0.0,0.0,0.0,0.0,0.0,0.0,0.0,0.0,0.0,0.0,0.0,0.0,0.0,0.0,0.0,0.0,0.0,0.0,0.0,0.0,0.0,0.0,0.0,0.0,0.0,0.0,0.0,0.0,0.0,0.0,0.0,0.0,0.0,0.0,0.0,0.0,0.0,0.0,0.0,0.0,0.0,0.0,0.0,0.0,0.0,0.0,0.0,0.0,0.0,0.0,0.0,0.0,0.0,0.0,0.0,0.0,0.0,0.0,0.0,0.0,0.0,0.0,0.0,0.0,0.0,0.0,-2.6909,-2.9698,-3.1634,-3.2708,-3.285,-3.0852,-2.8449,0.0,0.0,0.0,0.0,0.0,0.0,0.0,0.0,0.0,0.0,0.0,0.0,0.0,0.0,0.0,0.0,0.0,0.0,0.0,0.0,0.0,0.0,0.0,0.0,0.0,0.0,0.0,0.0,0.0,0.0,0.0,0.0,0.0,0.0,0.0,0.0,0.0,0.0,0.0,0.0,0.0,0.0,0.0,0.0,0.0,0.0,0.0,0.0,-1.5933,0.0,0.0,0.0,0.0,0.0,0.0,0.0,0.0,0.0,0.0,0.0,0.0,0.0,0.0,0.0,0.0,0.0,0.0,0.0,0.0,0.0,0.0,0.0,0.0,0.0,0.0,0.0,0.0,0.0,0.0,0.0,0.0,0.0,0.0,0.0,0.0,0.0,0.0,0.0,0.0,0.0,0.0,0.0,0.0,0.0,0.0,0.0,0.0,0.0,0.0,0.0,0.0,0.0,0.0,0.0,0.0,0.0,0.0,0.0,-2.7209,-2.994,-3.2343,-3.361,-3.3617,-3.2289,-2.9966,0.0,0.0,0.0,0.0,0.0,0.0,0.0,0.0,0.0,0.0,0.0,0.0,0.0,0.0,0.0,0.0,0.0,0.0,0.0,0.0,0.0,0.0,0.0,0.0,0.0,0.0,0.0,0.0,0.0,0.0,0.0,0.0,0.0,0.0,0.0,0.0,0.0,0.0,0.0,0.0,0.0,0.0,0.0,0.0,0.0,0.0,0.0,0.0,0.0,0.0,0.0,0.0,0.0,0.0,0.0,0.0,0.0,0.0,0.0,0.0,0.0,0.0,0.0,0.0,0.0,0.0,0.0,0.0,0.0,0.0,0.0,0.0,0.0,0.0,0.0,0.0,0.0,0.0,0.0,0.0,0.0,0.0,0.0,0.0,0.0,0.0,0.0,0.0,0.0,0.0,0.0,0.0,0.0,0.0,0.0,0.0,0.0,0.0,0.0,0.0,0.0,0.0,0.0,0.0,0.0,0.0,0.0,-2.4195,-2.7275,-2.9909,-3.2527,-3.3966,-3.4073,-3.3363,-3.12,-2.7535,0.0,0.0,0.0,0.0,0.0,0.0,0.0,0.0,0.0,0.0,0.0,0.0,0.0,0.0,0.0,0.0,0.0,0.0,0.0,0.0,0.0,0.0,0.0,0.0,0.0,0.0,0.0,0.0,0.0,0.0,0.0,0.0,0.0,0.0,0.0,0.0,0.0,0.0,-1.2733,-1.3899,0.0,0.0,0.0,0.0,0.0,0.0,0.0,0.0,-1.5899,0.0,0.0,0.0,0.0,0.0,0.0,0.0,0.0,0.0,0.0,0.0,0.0,0.0,0.0,0.0,0.0,0.0,0.0,0.0,0.0,0.0,0.0,0.0,0.0,0.0,0.0,0.0,0.0,0.0,0.0,0.0,0.0,0.0,0.0,0.0,0.0,0.0,0.0,0.0,0.0,0.0,0.0,0.0,0.0,0.0,0.0,0.0,0.0,0.0,0.0,0.0,0.0,0.0,0.0,0.0,0.0,-2.1985,-2.5538,-2.8412,-3.0604,-3.2756,-3.3963,-3.4054,-3.2861,-3.1105,-2.8814,0.0,0.0,0.0,0.0,0.0,0.0,0.0,0.0,0.0,0.0,0.0,0.0,0.0,0.0,0.0,0.0,0.0,0.0,0.0,0.0,0.0,0.0,0.0,0.0,0.0,0.0,0.0,0.0,0.0,0.0,0.0,0.0,0.0,0.0,0.0,0.0,0.0,0.0,0.0,-1.5074,-1.5533,0.0,0.0,0.0,0.0,0.0,0.0,0.0,0.0,-1.5802,0.0,0.0,0.0,0.0,0.0,0.0,0.0,0.0,0.0,0.0,0.0,0.0,0.0,0.0,0.0,0.0,0.0,0.0,0.0,0.0,0.0,0.0,0.0,0.0,0.0,0.0,0.0,0.0,0.0,0.0,0.0,0.0,0.0,0.0,0.0,0.0,0.0,0.0,0.0,0.0,0.0,0.0,0.0,0.0,0.0,0.0,0.0,0.0,0.0,0.0,0.0,0.0,0.0,0.0,0.0,-2.2194,-2.5648,-2.847,-3.0546,-3.2586,-3.3525,-3.3306,-3.2076,-3.0463,0.0,0.0,0.0,0.0,0.0,0.0,0.0,0.0,0.0,0.0,0.0,0.0,0.0,0.0,0.0,0.0,0.0,0.0,0.0,0.0,0.0,0.0,0.0,0.0,0.0,0.0,0.0,0.0,0.0,0.0,0.0,0.0,0.0,0.0,0.0,0.0,0.0,0.0,0.0,0.0,-1.5178,-1.5419,-1.6058,0.0,0.0,0.0,0.0,0.0,0.0,-1.5507,-1.5683,0.0,0.0,0.0,0.0,0.0,0.0,0.0,0.0,0.0,0.0,0.0,0.0,0.0,0.0,0.0,0.0,0.0,0.0,0.0,0.0,0.0,0.0,0.0,0.0,0.0,0.0,0.0,0.0,0.0,0.0,0.0,0.0,0.0,0.0,0.0,0.0,0.0,0.0,0.0,0.0,0.0,0.0,0.0,0.0,0.0,0.0,0.0,0.0,0.0,0.0,0.0,0.0,0.0,0.0,0.0,-2.2324,-2.5651,-2.8318,-3.0345,-3.2216,-3.2946,-3.242,-3.1208,-2.9715,0.0,0.0,0.0,0.0,0.0,0.0,0.0,0.0,0.0,0.0,0.0,0.0,0.0,0.0,0.0,0.0,0.0,0.0,0.0,0.0,0.0,0.0,0.0,0.0,0.0,0.0,0.0,0.0,0.0,0.0,0.0,0.0,0.0,0.0,0.0,0.0,0.0,0.0,0.0,0.0,0.0,-1.547,-1.588,-1.6032,0.0,0.0,0.0,0.0,-1.5579,-1.5681,0.0,0.0,0.0,0.0,0.0,0.0,0.0,0.0,0.0,0.0,0.0,0.0,0.0,0.0,0.0,0.0,0.0,0.0,0.0,0.0,0.0,0.0,0.0,0.0,0.0,0.0,0.0,0.0,0.0,0.0,0.0,0.0,0.0,0.0,0.0,0.0,0.0,0.0,0.0,0.0,0.0,0.0,0.0,0.0,0.0,0.0,0.0,0.0,0.0,0.0,0.0,0.0,0.0,0.0,0.0,0.0,-2.3342,-2.6347,-2.8677,-3.0199,-3.1728,-3.2237,-3.1723,-3.0478,-2.9152,0.0,0.0,0.0,0.0,0.0,0.0,0.0,0.0,0.0,0.0,0.0,0.0,0.0,0.0,0.0,0.0,0.0,0.0,0.0,0.0,0.0,0.0,0.0,0.0,0.0,0.0,0.0,0.0,0.0,0.0,0.0,0.0,0.0,0.0,0.0,0.0,0.0,0.0,0.0,0.0,0.0,-1.6218,-1.5713,-1.6144,-1.6262,0.0,0.0,-1.6266,-1.6128,-1.659,0.0,0.0,0.0,0.0,0.0,0.0,0.0,0.0,0.0,0.0,0.0,0.0,0.0,0.0,0.0,0.0,0.0,0.0,0.0,0.0,0.0,0.0,0.0,0.0,0.0,0.0,0.0,0.0,0.0,0.0,0.0,0.0,0.0,0.0,0.0,0.0,0.0,0.0,0.0,0.0,0.0,0.0,0.0,0.0,0.0,0.0,0.0,0.0,0.0,0.0,0.0,0.0,0.0,0.0,0.0,-2.1105,-2.3312,-2.5854,-2.8082,-2.9917,-3.0754,-3.1056,-3.0817,-2.9274,-2.8015,0.0,0.0,0.0,0.0,0.0,0.0,0.0,0.0,0.0,0.0,0.0,0.0,0.0,0.0,0.0,0.0,0.0,0.0,0.0,0.0,0.0,0.0,0.0,0.0,0.0,0.0,0.0,0.0,0.0,0.0,0.0,0.0,0.0,0.0,0.0,0.0,0.0,0.0,0.0,0.0,0.0,0.0,-1.6533,-1.6799,0.0,0.0,0.0,-1.6843,-1.6779,0.0,0.0,0.0,0.0,0.0,0.0,0.0,0.0,0.0,0.0,0.0,0.0,0.0,0.0,0.0,0.0,0.0,0.0,0.0,0.0,0.0,0.0,0.0,0.0,0.0,0.0,0.0,0.0,0.0,0.0,0.0,0.0,0.0,0.0,0.0,0.0,0.0,0.0,0.0,0.0,0.0,0.0,0.0,0.0,0.0,0.0,0.0,0.0,0.0,0.0,0.0,0.0,0.0,0.0,0.0,0.0,0.0,-2.3024,-2.5263,-2.7369,-2.9327,-2.986,-3.0018,-2.9887,-2.8295,0.0,0.0,0.0,0.0,0.0,0.0,0.0,0.0,0.0,0.0,0.0,0.0,0.0,0.0,0.0,0.0,0.0,0.0,0.0,0.0,0.0,0.0,0.0,0.0,0.0,0.0,0.0,-1.5004,0.0,0.0,0.0,0.0,0.0,0.0,0.0,0.0,0.0,0.0,0.0,0.0,0.0,0.0,-1.6789,-1.7207,-1.7427,-1.7454,0.0,0.0,-1.7444,-1.7429,-1.7574,-1.7525,0.0,0.0,0.0,0.0,0.0,0.0,0.0,0.0,0.0,0.0,0.0,0.0,0.0,0.0,0.0,0.0,0.0,0.0,0.0,0.0,0.0,0.0,0.0,0.0,0.0,0.0,0.0,0.0,0.0,0.0,0.0,0.0,0.0,0.0,0.0,0.0,0.0,0.0,0.0,0.0,0.0,0.0,0.0,0.0,0.0,0.0,0.0,0.0,0.0,0.0,0.0,0.0,0.0,0.0,0.0,-2.2661,-2.4941,-2.6817,-2.8275,-2.9315,-2.9595,-2.9088,-2.7913,-2.6988,0.0,0.0,0.0,0.0,0.0,0.0,0.0,0.0,0.0,0.0,0.0,0.0,0.0,0.0,0.0,0.0,0.0,0.0,0.0,0.0,0.0,0.0,0.0,0.0,0.0,0.0,0.0,0.0,0.0,0.0,0.0,0.0,0.0,0.0,0.0,0.0,0.0,0.0,0.0,0.0,0.0,-1.7648,-1.727,-1.7751,-1.7911,0.0,0.0,-1.8143,-1.8125,-1.853,-1.8461,-1.7199,0.0,0.0,0.0,0.0,0.0,0.0,0.0,0.0,0.0,0.0,0.0,0.0,0.0,0.0,0.0,0.0,0.0,0.0,0.0,0.0,0.0,0.0,0.0,0.0,0.0,0.0,0.0,0.0,0.0,0.0,0.0,0.0,0.0,0.0,0.0,0.0,0.0,0.0,0.0,0.0,0.0,0.0,0.0,0.0,0.0,0.0,0.0,0.0,0.0,0.0,0.0,0.0,0.0,-2.1292,-2.3018,-2.4427,-2.6025,-2.7796,-2.8177,-2.8464,-2.8733,-2.7363,-2.6451,0.0,0.0,0.0,0.0,0.0,0.0,0.0,0.0,0.0,0.0,0.0,0.0,0.0,0.0,0.0,0.0,0.0,0.0,0.0,0.0,0.0,0.0,0.0,0.0,0.0,0.0,0.0,0.0,-1.6166,-1.5787,-1.5531,0.0,0.0,0.0,0.0,0.0,0.0,0.0,0.0,0.0,0.0,-1.8003,-1.8267,-1.853,0.0,0.0,-1.8461,-1.8567,-1.8567,-1.8397,-1.7951,-1.6983,-1.6326,0.0,0.0,0.0,0.0,0.0,0.0,0.0,0.0,0.0,0.0,0.0,0.0,0.0,0.0,0.0,0.0,0.0,0.0,0.0,0.0,0.0,0.0,0.0,0.0,0.0,0.0,0.0,0.0,0.0,0.0,0.0,0.0,0.0,0.0,0.0,0.0,0.0,0.0,0.0,0.0,0.0,0.0,0.0,0.0,0.0,0.0,0.0,0.0,0.0,0.0,0.0,0.0,-2.1445,-2.3184,-2.3968,-2.5283,-2.7117,-2.7208,-2.7521,-2.8077,-2.6736,-2.5963,0.0,0.0,0.0,0.0,0.0,0.0,0.0,0.0,0.0,0.0,0.0,0.0,0.0,0.0,0.0,0.0,0.0,0.0,0.0,0.0,0.0,0.0,0.0,0.0,0.0,0.0,0.0,0.0,-1.6168,-1.5684,-1.5424,0.0,0.0,0.0,0.0,0.0,0.0,0.0,0.0,0.0,0.0,-1.8294,-1.885,-1.8927,-1.8941,-1.8927,-1.887,-1.8798,-1.8779,-1.8186,-1.7448,-1.6627,0.0,0.0,0.0,0.0,0.0,0.0,0.0,0.0,0.0,0.0,0.0,0.0,0.0,0.0,0.0,0.0,0.0,0.0,0.0,0.0,0.0,0.0,0.0,0.0,0.0,0.0,0.0,0.0,0.0,0.0,-2.389,0.0,0.0,0.0,0.0,0.0,0.0,0.0,0.0,0.0,0.0,0.0,0.0,0.0,0.0,0.0,0.0,0.0,0.0,0.0,0.0,0.0,0.0,-2.169,-2.2905,-2.3722,-2.4723,-2.5934,-2.6515,-2.6884,-2.7026,-2.6109,-2.56,-2.554,0.0,0.0,0.0,0.0,0.0,0.0,0.0,0.0,0.0,0.0,0.0,0.0,0.0,0.0,0.0,0.0,0.0,0.0,0.0,0.0,0.0,0.0,0.0,0.0,0.0,0.0,-1.72,-1.5766,-1.4821,0.0,0.0,0.0,0.0,0.0,0.0,0.0,0.0,0.0,0.0,-1.811,-1.8567,-1.8765,-1.8803,-1.8803,-1.8803,-1.8803,-1.876,-1.8711,-1.8016,-1.7195,0.0,0.0,0.0,0.0,0.0,0.0,0.0,0.0,0.0,0.0,0.0,0.0,0.0,0.0,0.0,0.0,0.0,0.0,0.0,0.0,0.0,0.0,0.0,0.0,0.0,0.0,0.0,-2.5613,-2.5314,0.0,0.0,0.0,0.0,0.0,0.0,0.0,0.0,0.0,0.0,0.0,-2.5907,-2.6329,0.0,0.0,0.0,0.0,0.0,0.0,0.0,0.0,0.0,0.0,0.0,0.0,-2.2149,-2.3322,-2.4142,-2.4985,-2.5865,-2.6258,-2.6592,-2.6843,-2.5879,-2.4771,-2.3576,0.0,0.0,0.0,0.0,0.0,0.0,0.0,0.0,0.0,0.0,0.0,0.0,0.0,0.0,0.0,0.0,0.0,0.0,0.0,0.0,0.0,0.0,0.0,0.0,0.0,-1.7614,0.0,0.0,0.0,0.0,0.0,0.0,0.0,0.0,0.0,0.0,0.0,-1.6692,-1.7189,-1.786,-1.838,-1.8581,-1.86,-1.8639,0.0,0.0,0.0,0.0,0.0,0.0,0.0,0.0,0.0,0.0,0.0,0.0,0.0,0.0,-1.5025,-1.5065,-1.5368,-1.54,-1.4785,0.0,0.0,0.0,0.0,0.0,0.0,0.0,0.0,0.0,0.0,0.0,0.0,0.0,0.0,-2.7264,0.0,-2.6331,0.0,0.0,0.0,0.0,0.0,0.0,0.0,0.0,-2.6399,-2.6902,-2.7264,-2.7891,-2.7929,0.0,-2.7065,-2.5711,0.0,0.0,0.0,0.0,0.0,0.0,0.0,0.0,-2.2853,-2.3828,-2.4361,-2.498,-2.5743,-2.6015,-2.6285,-2.6527,-2.5531,-2.4215,-2.2621,-2.2271,-2.19,0.0,0.0,0.0,0.0,0.0,0.0,0.0,0.0,0.0,0.0,0.0,0.0,0.0,0.0,0.0,0.0,0.0,0.0,0.0,0.0,0.0,0.0,0.0,-1.7109,0.0,0.0,0.0,0.0,0.0,0.0,0.0,0.0,0.0,-1.5663,-1.6014,-1.6424,-1.7099,-1.765,-1.8016,-1.8262,0.0,0.0,0.0,0.0,0.0,0.0,0.0,-1.6598,-1.6329,-1.5517,-1.4881,-1.4883,-1.4874,-1.4973,-1.5217,0.0,0.0,-1.4933,-1.5172,-1.5223,-1.4654,-1.4546,-1.4546,-1.4546,-1.4782,-1.504,0.0,0.0,0.0,0.0,0.0,0.0,0.0,0.0,-2.8327,-2.8682,0.0,-2.8017,0.0,0.0,0.0,0.0,0.0,-2.6407,0.0,0.0,-2.7864,-2.8171,-2.8253,-2.8801,-2.8995,-2.8839,-2.8247,-2.7598,-2.6766,-2.5085,0.0,0.0,0.0,0.0,0.0,0.0,-2.3712,-2.4286,-2.4381,-2.4751,-2.5522,-2.5785,-2.5962,-2.6011,-2.5046,-2.3951,-2.2766,-2.2147,-2.1779,-2.1633,-2.1155,0.0,0.0,0.0,0.0,0.0,0.0,0.0,0.0,0.0,0.0,0.0,0.0,0.0,0.0,0.0,0.0,0.0,0.0,0.0,0.0,-1.7616,0.0,0.0,0.0,0.0,0.0,0.0,0.0,0.0,0.0,0.0,-1.5398,-1.5938,-1.6558,-1.7272,0.0,0.0,0.0,0.0,-1.8049,-1.8169,-1.8075,-1.7908,-1.774,-1.703,-1.6375,-1.6013,0.0,0.0,-1.5004,-1.5444,-1.5778,-1.578,-1.5768,-1.5814,-1.579,-1.5766,-1.5612,-1.5145,-1.5037,-1.5037,-1.5037,-1.504,-1.5162,-2.981,0.0,0.0,0.0,0.0,-2.8337,-2.8983,-2.9167,-2.992,-3.0327,-3.0459,-2.9428,0.0,0.0,0.0,0.0,0.0,0.0,-2.8026,-2.9173,-2.9366,-2.9688,-3.0121,-3.0267,-3.0251,-3.007,-2.992,-2.9457,-2.8728,-2.7759,-2.6145,-2.3879,0.0,0.0,0.0,0.0,-2.4191,-2.4789,-2.531,-2.5695,-2.5931,-2.623,-2.5881,-2.4767,-2.4604,-2.3917,-2.2681,-2.2548,-2.2462,-2.232,-2.2253,0.0,0.0,0.0,0.0,0.0,0.0,0.0,0.0,0.0,0.0,0.0,0.0,0.0,0.0,0.0,0.0,0.0,0.0,0.0,-1.8077,-1.763,-1.6866,0.0,0.0,0.0,0.0,0.0,0.0,0.0,0.0,0.0,-1.5394,-1.5686,-1.6161,0.0,0.0,-1.7605,-1.7542,-1.7952,-1.8177,-1.7889,-1.772,0.0,0.0,-1.7027,-1.6565,-1.6368,-1.5947,-1.5609,-1.5584,-1.5684,-1.5814,-1.5814,-1.5814,-1.5814,-1.5814,-1.5814,-1.5744,-1.5588,-1.5564,-1.5598,-1.5564,-1.5533,-1.5547,-3.2698,-3.0999,-2.9523,-2.873,-2.8673,-2.9977,-3.0596,-3.0755,-3.1586,-3.2075,-3.2168,-3.1048,-3.0575,-3.0521,-2.9306,0.0,0.0,0.0,-2.9334,-3.0145,-3.0425,-3.0712,-3.1076,-3.1274,-3.1363,-3.1245,-3.0978,-3.0644,-3.0222,-2.9347,-2.7922,-2.5928,0.0,0.0,-2.4638,-2.4977,-2.5343,-2.5724,-2.6136,-2.6292,-2.6091,-2.6144,-2.5577,-2.4383,-2.427,-2.3752,-2.2772,-2.2712,-2.2652,-2.2546,-2.2652,-2.238,0.0,0.0,0.0,0.0,0.0,0.0,0.0,0.0,0.0,0.0,0.0,-1.895,0.0,0.0,0.0,0.0,-1.8664,-1.8389,-1.7655,-1.7557,0.0,0.0,0.0,0.0,0.0,0.0,0.0,-1.5,-1.518,-1.5444,-1.5803,-1.596,-1.629,-1.6867,-1.744,-1.7733,-1.7699,0.0,-1.8274,-1.8013,-1.7887,-1.7713,-1.7411,-1.7066,-1.6729,-1.6352,-1.611,-1.5891,-1.5814,-1.5814,-1.5814,-1.5814,-1.5814,-1.5814,-1.5814,-1.5814,-1.5814,-1.5814,-1.5814,-1.5814,-1.5814,-1.5738,-1.5681,-3.543,-3.5195,-3.2515,-3.1039,-3.0594,-3.1831,-3.2342,-3.2419,-3.3312,-3.372,-3.3624,-3.2746,-3.23,-3.2151,-3.1042,0.0,-3.054,-3.054,-3.0608,-3.0717,-3.126,-3.1477,-3.1463,-3.2015,-3.2259,-3.2205,-3.1626,-3.1368,-3.13,-3.0222,-2.9366,-2.879,-2.7664,-2.6982,-2.6806,-2.6779,-2.682,-2.686,-2.686,-2.6652,-2.6173,-2.574,-2.5205,-2.4515,-2.404,-2.352,-2.2947,-2.2725,-2.2532,-2.2402,-2.2546,-2.2289,-2.1628,0.0,0.0,0.0,0.0,0.0,0.0,0.0,0.0,0.0,0.0,0.0,0.0,0.0,0.0,0.0,-1.8618,0.0,-1.7697,-1.7603,0.0,0.0,0.0,-1.5823,-1.5518,-1.5149,-1.5039,-1.5384,0.0,0.0,-1.6475,-1.6679,-1.682,-1.7065,-1.7599,-1.7979,-1.8048,-1.824,-1.836,-1.8314,-1.8282,-1.8037,-1.7388,-1.708,-1.6712,-1.6118,-1.5881,-1.5814,-1.5814,-1.5814,-1.5814,-1.5814,-1.5814,-1.5814,-1.5814,-1.5814,-1.5814,-1.5814,-1.5814,-1.5814,-1.5792,-1.5726,-1.5637,-3.6593,-3.6488,-3.5365,-3.4319,-3.3456,-3.4204,-3.4462,-3.4392,-3.4579,-3.4634,-3.4453,-3.3813,-3.3023,-3.2191,-3.1884,-3.1762,-3.1748,-3.1762,-3.225,-3.3054,-3.3203,-3.3078,-3.2694,-3.2816,-3.2653,-3.2232,-3.2055,-3.2001,-3.1974,-3.1219,-3.0798,-3.0622,-2.9916,-2.8641,-2.686,-2.6793,-2.7009,-2.7501,-2.7501,-2.7264,-2.6788,-2.6258,-2.5464,-2.4529,-2.404,-2.352,-2.2922,-2.2687,-2.2546,-2.2417,-2.2629,-2.2618,-2.2332,-2.1778,0.0,0.0,0.0,0.0,0.0,0.0,0.0,0.0,0.0,-1.8607,-1.9042,0.0,-1.9355,0.0,-1.9647,-1.9621,-1.9566,-1.9335,0.0,0.0,-1.8174,-1.7944,-1.7097,-1.6751,-1.6556,-1.6457,-1.6313,-1.6319,-1.6571,-1.7303,-1.7845,-1.7907,-1.8128,-1.8191,-1.7932,-1.8338,-1.8498,-1.8125,-1.8038,-1.7803,-1.7246,-1.664,-1.6181,-1.5905,-1.5802,-1.5814,-1.5814,-1.5814,-1.5814,-1.5814,-1.5814,-1.5814,-1.5814,-1.5814,-1.5814,-1.5814,-1.5814,-1.5814,-1.5814,-1.5647,-1.5536,-3.7658,-3.7487,-3.719,-3.6735,-3.6243,-3.5973,-3.5722,-3.5513,-3.5569,-3.5399,-3.5035,-3.4519,-3.3786,-3.2983,-3.2955,-3.2955,-3.2969,-3.2932,-3.3284,-3.3894,-3.3908,-3.3731,-3.3444,-3.3224,-3.2925,-3.2599,-3.2327,-3.2205,-3.2191,-3.1857,-3.1558,-3.1287,-3.0975,-3.0011,-2.8446,-2.8139,-2.8044,-2.8098,-2.7841,-2.7573,-2.7298,-2.6453,-2.5734,-2.5218,-2.45,-2.3996,-2.3752,-2.3459,-2.3278,-2.3216,-2.3364,-2.3388,-2.3312,-2.2814,-2.2283,0.0,0.0,0.0,0.0,0.0,0.0,0.0,0.0,0.0,0.0,0.0,-1.9767,-1.9992,-1.9984,-1.9998,-2.002,-1.9836,-1.9488,-1.8958,-1.8935,-1.8669,-1.7971,-1.7647,-1.739,-1.719,-1.7038,-1.7039,-1.7279,-1.7832,-1.8301,-1.8518,-1.8594,-1.86,-1.8408,-1.8679,-1.8765,-1.8472,-1.8191,-1.7751,-1.7019,-1.6343,-1.5869,-1.5814,-1.5814,-1.5814,-1.5814,-1.5814,-1.5814,-1.5814,-1.5814,-1.5814,-1.5814,-1.5814,-1.5814,-1.5814,-1.5814,-1.5814,-1.5814,-1.5659,-1.5491,-3.8556,-3.8213,-3.8258,-3.8408,-3.8554,-3.7307,-3.6555,-3.6142,-3.6352,-3.6059,-3.5413,-3.5048,-3.4572,-3.403,-3.4016,-3.4016,-3.4016,-3.4016,-3.4057,-3.4138,-3.4138,-3.4097,-3.3989,-3.3457,-3.3169,-3.3088,-3.249,-3.2205,-3.2205,-3.2205,-3.1911,-3.1422,-3.1409,-3.111,-3.0513,-2.9916,-2.9298,-2.86,-2.8085,-2.7786,-2.7691,-2.6606,-2.6027,-2.6021,-2.5039,-2.4555,-2.4755,-2.4388,-2.4201,-2.4201,-2.4201,-2.4201,-2.4201,-2.3951,-2.3351,0.0,-2.2093,0.0,0.0,0.0,0.0,0.0,0.0,0.0,0.0,-2.0147,-2.0175,-2.0233,-2.0211,-2.0144,-2.0033,-1.9899,-1.9719,-1.9514,-1.9156,-1.8843,-1.8619,-1.8199,-1.786,-1.7715,-1.7569,-1.77,-1.8097,-1.8253,-1.8494,-1.8893,-1.8977,-1.8905,-1.8855,-1.8833,-1.8821,-1.8891,-1.8374,-1.7557,-1.6798,-1.6163,-1.5814,-1.5814,-1.5814,-1.5814,-1.5814,-1.5814,-1.5814,-1.5814,-1.5814,-1.5814,-1.5814,-1.5814,-1.5814,-1.5814,-1.5814,-1.5814,-1.5792,-1.5637,-1.5513,-3.8708,-3.8213,-3.8453,-3.8666,-3.8805,-3.8577,-3.7906,-3.6983,-3.7026,-3.6491,-3.5642,-3.5547,-3.5181,-3.4639,-3.4626,-3.4626,-3.4626,-3.4626,-3.4883,-3.5331,-3.5344,-3.5126,-3.4599,-3.4016,-3.3539,-3.3088,-3.249,-3.2205,-3.2205,-3.2205,-3.2151,-3.2042,-3.2055,-3.1721,-3.1124,0.0,0.0,0.0,-2.8478,-2.8193,-2.7718,-2.6982,-2.6402,-2.5945,-2.4914,0.0,-2.4528,-2.4221,-2.4089,-2.4187,-2.4201,0.0,0.0,0.0,0.0,0.0,0.0,0.0,0.0,0.0,0.0,0.0,-2.2651,-2.2038,-2.0726,-2.0906,-2.1226,-2.1425,-2.125,-2.1179,-2.125,-2.1036,-2.0834,-2.0689,-2.0334,-1.9987,-1.9712,-1.8958,-1.84,-1.8263,-1.8124,-1.8097,-1.8217,-1.8566,-1.8867,-1.8963,-1.9013,-1.8819,-1.8422,-1.8386,-1.8362,-1.8289,-1.7543,-1.6883,-1.6631,-1.6151,-1.5814,-1.5814,-1.5814,-1.5814,-1.5814,-1.5814,-1.5814,-1.5814,-1.5814,-1.5814,-1.5814,-1.5814,-1.5814,-1.5814,-1.5814,-1.5814,-1.5792,-1.5625,-1.5491,-3.921,0.0,-3.8727,-3.889,0.0,-3.91,-3.86,-3.779,-3.7493,-3.6724,-3.5723,-3.571,-3.5507,-3.5222,-3.5236,-3.5236,-3.5262,-3.5276,-3.5385,-3.571,-3.571,-3.556,-3.5209,-3.4626,-3.403,-3.3485,-3.2952,-3.2504,-3.2232,-3.2205,-3.2205,-3.2205,-3.2205,-3.2069,-3.1721,-3.0853,-2.9808,-2.86,-2.8587,-2.8451,-2.8125,-2.7284,-2.6704,-2.6426,0.0,0.0,0.0,0.0,0.0,0.0,0.0,0.0,0.0,0.0,0.0,-2.4192,-2.398,-2.3699,-2.3425,-2.3346,-2.332,-2.332,-2.3228,-2.2726,-2.1564,-2.1705,-2.1784,-2.1619,-2.1458,-2.1423,-2.1496,-2.1253,-2.1057,-2.0997,-2.0674,-2.0359,-2.008,-1.9547,-1.913,-1.8926,-1.8783,-1.868,-1.8602,-1.8833,-1.9013,-1.8975,-1.8758,-1.8506,-1.8265,-1.8193,-1.8061,-1.7495,-1.7015,-1.6523,-1.6259,-1.603,-1.5814,-1.5814,-1.5814,-1.5814,-1.5814,-1.5814,-1.5814,-1.5814,-1.5814,-1.5814,-1.5814,-1.5814,-1.5814,-1.5814,-1.5814,-1.5814,-1.5792,-1.5681,-1.557,-3.9787,-3.9434,-3.9105,-3.91,-3.9305,-3.9305,-3.8966,-3.8383,0.0,0.0,0.0,-3.5764,-3.571,-3.571,-3.571,-3.571,-3.571,-3.571,-3.571,-3.571,-3.571,-3.571,-3.5683,-3.5099,-3.4545,-3.4043,-3.3403,-3.2843,-3.2381,-3.2273,-3.2205,-3.2205,-3.2205,-3.2151,-3.1988,-3.0961,-2.9862,-2.879,-2.8641,-2.8546,-2.841,-2.7379,-2.6816,-2.6799,-2.5734,-2.5314,-2.5591,-2.5619,-2.5674,-2.5825,-2.5825,-2.5811,-2.5825,-2.5592,-2.5246,-2.4735,-2.4436,-2.4042,-2.3567,-2.3527,-2.3527,-2.3527,-2.3527,-2.3215,-2.2522,-2.2373,-2.2115,-2.1589,-2.1453,-2.1385,-2.1385,-2.118,-2.1008,-2.0983,-2.0724,-2.0423,-2.0233,-1.9965,-1.967,-1.9473,-1.9265,-1.917,-1.9028,-1.9001,-1.9013,-1.8953,-1.8566,-1.8085,-1.7965,-1.7857,-1.7508,-1.6679,-1.6439,-1.6295,-1.5936,-1.5826,-1.5814,-1.5814,-1.5814,-1.5814,-1.5814,-1.5814,-1.5814,-1.5814,-1.5814,-1.5814,-1.5814,-1.5814,-1.5814,-1.5814,-1.5814,-1.5814,-1.5792,-1.576,-1.5659,-4.0047,-3.9723,-3.937,-3.9247,-3.9305,-3.9305,-3.8966,-3.8328,-3.7229,-3.6646,-3.6442,-3.594,-3.571,-3.571,-3.571,-3.571,-3.571,-3.571,-3.571,-3.571,-3.571,-3.571,-3.5683,-3.5073,-3.4748,-3.4585,-3.3593,-3.3061,-3.2925,-3.2463,-3.2205,-3.2205,-3.2205,-3.1974,-3.1409,-3.0744,-3.0052,-2.9393,-2.8858,-2.8343,-2.7827,-2.7131,-2.6565,-2.6052,-2.54,-2.509,-2.5258,-2.5286,-2.5342,-2.555,-2.555,-2.555,-2.555,-2.5369,-2.5189,-2.5107,-2.4967,-2.4842,-2.4719,-2.4747,-2.4761,-2.4733,-2.4733,-2.4272,-2.3174,-2.2617,-2.2264,-2.2156,-2.1711,-2.1385,-2.1385,-2.1253,-2.1131,-2.1021,-2.0747,-2.0498,-2.022,-1.9978,-1.9759,-1.9591,-1.9354,-1.9208,-1.917,-1.9078,-1.9013,-1.8915,-1.8482,-1.7869,-1.7099,-1.6823,-1.6571,-1.6056,-1.5912,-1.5876,-1.5838,-1.5814,-1.5814,-1.5814,-1.5814,-1.5814,-1.5814,-1.5814,-1.5814,-1.5814,-1.5814,-1.5814,-1.5814,-1.5814,-1.5814,-1.5814,-1.5814,-1.5814,-1.5814,-1.577,-1.5726,-4.0609,-4.0266,-3.9947,-3.9604,-3.9305,-3.9305,-3.9142,-3.883,-3.7962,-3.735,-3.7053,-3.6456,-3.6198,-3.6171,-3.5859,-3.571,-3.571,-3.571,-3.571,-3.571,-3.571,-3.571,-3.5683,-3.5438,-3.514,-3.4761,-3.4299,-3.3688,-3.3129,-3.2803,-3.2494,-3.2232,-3.2205,-3.2083,-3.1748,-3.1178,-3.0595,-2.9984,-2.9075,-2.8451,-2.8193,-2.761,-2.7013,-2.6416,-2.5805,-2.5388,-2.5216,-2.5202,-2.53,-2.5467,-2.5508,-2.5508,-2.5508,-2.53,-2.5202,-2.5202,-2.5061,-2.5005,-2.5005,-2.5005,-2.5005,-2.5005,-2.5005,-2.4788,-2.4218,-2.3621,-2.3011,-2.2386,-2.2047,-2.1762,-2.144,-2.1277,-2.1131,-2.1008,-2.0848,-2.0662,-2.0398,-2.0156,-1.9927,-1.9734,-1.946,-1.9275,-1.9208,-1.9078,-1.9013,-1.8927,-1.8313,-1.74,-1.6344,-1.6175,-1.608,-1.5852,-1.5814,-1.5814,-1.5814,-1.5814,-1.5814,-1.5814,-1.5814,-1.5814,-1.5814,-1.5814,-1.5814,-1.5814,-1.5814,-1.5814,-1.5814,-1.5814,-1.5814,-1.5814,-1.5814,-1.5814,-1.5814,-1.577,-1.5681,-4.1105,-4.0763,-4.034,-3.9848,-3.9319,-3.9305,-3.9305,-3.9264,-3.8803,-3.8355,-3.7867,-3.7148,-3.6809,-3.6741,-3.6185,-3.5913,-3.59,-3.5764,-3.571,-3.571,-3.571,-3.571,-3.571,-3.571,-3.5439,-3.5005,-3.4856,-3.4367,-3.3525,-3.3237,-3.2803,-3.2273,-3.2205,-3.2205,-3.2205,-3.1585,-3.0988,-3.0378,-2.9333,-2.8668,-2.8383,-2.7949,-2.7403,-2.6806,-2.6362,-2.5848,-2.5405,-2.5365,-2.5352,-2.5383,-2.5383,-2.5411,-2.5369,-2.5244,-2.5146,-2.5146,-2.5061,-2.5005,-2.5005,-2.5005,-2.5005,-2.5005,-2.5005,-2.5005,-2.4964,-2.457,-2.3852,-2.2888,-2.2468,-2.2101,-2.1683,-2.1394,-2.118,-2.1057,-2.0961,-2.0825,-2.0549,-2.0347,-2.0105,-1.9862,-1.9629,-1.9394,-1.9275,-1.9143,-1.898,-1.8712,-1.8001,-1.7039,-1.6176,-1.59,-1.5814,-1.5814,-1.5814,-1.5814,-1.5814,-1.5814,-1.5814,-1.5814,-1.5814,-1.5814,-1.5814,-1.5814,-1.5814,-1.5814,-1.5814,-1.5814,-1.5814,-1.5814,-1.5814,-1.5814,-1.5814,-1.5814,-1.5814,-1.577,-1.5693,-4.1369,-4.1009,-4.0472,-3.9834,-3.9332,-3.9305,-3.9305,-3.9305,-3.9224,-3.9197,-3.8966,-3.7948,-3.7418,-3.7323,-3.6754,-3.6524,-3.6469,-3.5967,-3.575,-3.5737,-3.571,-3.571,-3.571,-3.571,-3.5683,-3.5547,-3.5073,-3.4748,-3.4477,-3.3552,-3.2816,-3.2273,-3.2205,-3.2205,-3.2151,-3.1612,-3.1015,-3.0418,-2.9774,-2.8872,-2.7868,-2.7732,-2.7434,-2.6806,-2.6738,-2.6443,-2.5875,-2.5848,-2.559,-2.5087,-2.5089,-2.5075,-2.5047,-2.5005,-2.5005,-2.5005,-2.5005,-2.5005,-2.5005,-2.5005,-2.5005,-2.5005,-2.5005,-2.5005,-2.5005,-2.4951,-2.4652,-2.392,-2.2929,-2.2332,-2.2196,-2.1711,-2.134,-2.1166,-2.1057,-2.0885,-2.0623,-2.0372,-2.0131,-2.0016,-1.9746,-1.9512,-1.9394,-1.9237,-1.8923,-1.8398,-1.7832,-1.7171,-1.6536,-1.6066,-1.5814,-1.5814,-1.5814,-1.5814,-1.5814,-1.5814,-1.5814,-1.5814,-1.5814,-1.5814,-1.5814,-1.5814,-1.5814,-1.5814,-1.5814,-1.5814,-1.5814,-1.5814,-1.5814,-1.5814,-1.5814,-1.5814,-1.5814,-1.5792,-1.5726,-4.1943,-4.1598,-4.0987,-4.0173,-3.9359,-3.9305,-3.9305,-3.9305,-3.9305,-3.9305,-3.9264,-3.879,-3.8396,-3.7987,-3.7419,-3.7148,-3.7092,-3.6862,-3.6578,-3.6266,-3.6239,-3.6062,-3.5737,-3.571,-3.571,-3.571,-3.5425,-3.5181,-3.4679,-3.3647,-3.2966,-3.2721,-3.2395,-3.2205,-3.2191,-3.1974,-3.1517,-3.0948,-3.0337,-2.9604,-2.8831,-2.841,-2.7949,-2.742,-2.7321,-2.7037,-2.6511,-2.6443,-2.6172,-2.5588,-2.552,-2.5371,-2.5032,-2.5005,-2.5005,-2.5005,-2.5005,-2.5005,-2.5005,-2.5005,-2.5005,-2.5005,-2.5005,-2.5005,-2.5005,-2.5005,-2.4855,-2.4557,-2.3553,-2.27,-2.2307,-2.1751,-2.135,-2.1191,-2.1082,-2.0947,-2.0787,-2.0448,-2.0195,-2.0118,-1.9823,-1.9565,-1.9382,-1.921,-1.8849,-1.8265,-1.7724,-1.7231,-1.6691,-1.6151,-1.585,-1.5814,-1.5814,-1.5814,-1.5814,-1.5814,-1.5814,-1.5814,-1.5814,-1.5814,-1.5814,-1.5814,-1.5814,-1.5814,-1.5814,-1.5814,-1.5814,-1.5814,-1.5814,-1.5814,-1.5814,-1.5814,-1.5814,-1.5814,-1.5748,-4.2355,-4.1924,-4.1191,-4.0255,-3.9332,-3.9305,-3.9305,-3.9305,-3.9305,-3.9305,-3.9305,-3.9305,-3.9074,-3.8613,-3.8,-3.7729,-3.7729,-3.7567,-3.7241,-3.6877,-3.6863,-3.6537,-3.5995,-3.5954,-3.5873,-3.5737,-3.571,-3.5398,-3.4734,-3.3824,-3.3227,-3.3047,-3.2504,-3.2205,-3.2205,-3.2205,-3.1884,-3.1314,-3.0853,-3.0283,-2.9523,-2.9062,-2.856,-2.8017,-2.7949,-2.7678,-2.7094,-2.7037,-2.6782,-2.6185,-2.6145,-2.5873,-2.5303,-2.5249,-2.5181,-2.5018,-2.5005,-2.5005,-2.5005,-2.5005,-2.5005,-2.5005,-2.5005,-2.5005,-2.5005,-2.5005,-2.5005,-2.4924,-2.4042,-2.3201,-2.2591,-2.186,-2.1377,-2.1253,-2.1106,-2.0972,-2.0886,-2.0498,-2.0207,-2.0182,-1.9888,-1.9591,-1.942,-1.9172,-1.8831,-1.8482,-1.7977,-1.7436,-1.6895,-1.6403,-1.6006,-1.5828,-1.5814,-1.5814,-1.5814,-1.5814,-1.5814,-1.5814,-1.5814,-1.5814,-1.5814,-1.5814,-1.5814,-1.5814,-1.5814,-1.5814,-1.5814,-1.5814,-1.5814,-1.5814,-1.5814,-1.5814,-1.5814,-1.5814,-1.5792,-4.2548,-4.1869,-4.073,-3.9929,-3.9319,-3.9305,-3.9305,-3.9305,-3.9305,-3.9305,-3.9305,-3.9305,-3.9292,-3.9197,-3.8613,-3.8383,-3.8258,-3.7811,-3.754,-3.7458,-3.7458,-3.7119,-3.6592,-3.6564,-3.6266,-3.5818,-3.5737,-3.5385,-3.4816,-3.4179,-3.362,-3.3115,-3.2558,-3.2232,-3.2205,-3.2205,-3.1884,-3.1409,-3.1232,-3.0703,-2.9706,-2.9502,-2.9149,-2.8614,-2.8546,-2.8234,-2.7746,-2.7678,-2.7393,-2.6809,-2.6752,-2.6481,-2.5941,-2.5846,-2.5575,-2.5086,-2.5005,-2.5005,-2.5005,-2.5005,-2.5005,-2.5005,-2.5005,-2.5005,-2.5005,-2.5005,-2.5005,-2.5005,-2.438,-2.3743,-2.3106,-2.2117,-2.1467,-2.1375,-2.1169,-2.1021,-2.0997,-2.0524,-2.0258,-2.0169,-1.9914,-1.963,-1.942,-1.9158,-1.9001,-1.8845,-1.847,-1.7929,-1.7351,-1.6847,-1.6367,-1.5958,-1.5814,-1.5814,-1.5814,-1.5814,-1.5814,-1.5814,-1.5814,-1.5814,-1.5814,-1.5814,-1.5814,-1.5814,-1.5814,-1.5814,-1.5814,-1.5814,-1.5814,-1.5814,-1.5814,-1.5814,-1.5814,-1.5814,-1.5792,-4.2534,-4.1937,-4.1123,-4.0431,-3.9848,-3.9468,-3.9305,-3.9305,-3.9305,-3.9305,-3.9305,-3.9305,-3.9305,-3.9278,-3.9088,-3.8993,-3.8966,-3.8749,-3.8464,-3.8095,-3.8055,-3.7743,-3.7202,-3.6809,-3.651,-3.6266,-3.59,-3.5615,-3.5331,-3.4761,-3.4179,-3.362,-3.3037,-3.2599,-3.2286,-3.2205,-3.2096,-3.1843,-3.1504,-3.107,-3.0616,-2.9889,-2.9407,-2.9157,-2.8823,-2.8492,-2.8288,-2.8275,-2.8003,-2.742,-2.7393,-2.7108,-2.6538,-2.6104,-2.5629,-2.5086,-2.5005,-2.5005,-2.5005,-2.5005,-2.5005,-2.5005,-2.5005,-2.5005,-2.5005,-2.5005,-2.5005,-2.491,-2.4448,-2.3852,-2.3228,-2.2442,-2.1817,-2.1432,-2.1155,-2.0997,-2.0898,-2.0536,-2.0195,-2.0144,-1.9823,-1.9486,-1.9394,-1.9172,-1.9013,-1.8939,-1.8542,-1.8037,-1.7471,-1.6943,-1.6451,-1.5982,-1.5814,-1.5814,-1.5814,-1.5814,-1.5814,-1.5814,-1.5814,-1.5814,-1.5814,-1.5814,-1.5814,-1.5814,-1.5814,-1.5814,-1.5814,-1.5814,-1.5814,-1.5814,-1.5814,-1.5814,-1.5814,-1.5814,-1.5814,-4.2534,-4.1991,-4.1571,-4.0933,-4.016,-3.9753,-3.9468,-3.9332,-3.9305,-3.9305,-3.9305,-3.9305,-3.9305,-3.9305,-3.9305,-3.9305,-3.9305,-3.9305,-3.9088,-3.8722,-3.8708,-3.8396,-3.7783,-3.7392,-3.6971,-3.6564,-3.5995,-3.571,-3.5642,-3.5087,-3.4585,-3.4179,-3.3471,-3.2898,-3.2531,-3.2314,-3.2205,-3.2123,-3.1775,-3.1504,-3.1219,-3.0296,-2.9692,-2.9461,-2.8899,-2.8587,-2.8587,-2.8587,-2.8424,-2.8058,-2.799,-2.7718,-2.7091,-2.6335,-2.571,-2.5331,-2.51,-2.5005,-2.5005,-2.5005,-2.5005,-2.5005,-2.5005,-2.5005,-2.5005,-2.5005,-2.5005,-2.4882,-2.4651,-2.4136,-2.354,-2.2944,-2.2291,-2.1564,-2.1155,-2.0997,-2.0972,-2.0536,-2.0182,-1.9952,-1.9655,-1.942,-1.9316,-1.9119,-1.904,-1.9013,-1.8662,-1.8265,-1.7736,-1.7219,-1.6667,-1.614,-1.5922,-1.585,-1.5814,-1.5814,-1.5814,-1.5814,-1.5814,-1.5814,-1.5814,-1.5814,-1.5814,-1.5814,-1.5814,-1.5814,-1.5814,-1.5814,-1.5814,-1.5814,-1.5814,-1.5814,-1.5814,-1.5814,-1.5814,-4.2548,-4.2086,-4.1991,-4.13,-4.0336,-4.0133,-3.9821,-3.9359,-3.9305,-3.9305,-3.9305,-3.9305,-3.9305,-3.9305,-3.9305,-3.9305,-3.9305,-3.9305,-3.9278,-3.9224,-3.9237,-3.8952,-3.8423,-3.8288,-3.7609,-3.6605,-3.5995,-3.5723,-3.5683,-3.5154,-3.4829,-3.4572,-3.3661,-3.3142,-3.3061,-3.2504,-3.2205,-3.2191,-3.2137,-3.1857,-3.1314,-3.073,-3.0133,-2.9597,-2.9013,-2.8641,-2.86,-2.8587,-2.8573,-2.8546,-2.8532,-2.8302,-2.7596,-2.666,-2.5941,-2.5765,-2.5344,-2.5059,-2.5005,-2.5005,-2.5005,-2.5005,-2.5005,-2.5005,-2.5005,-2.5005,-2.5005,-2.4991,-2.4937,-2.4706,-2.4069,-2.3486,-2.2686,-2.1618,-2.1222,-2.0997,-2.0909,-2.0536,-2.0054,-1.972,-1.9499,-1.9354,-1.9235,-1.9078,-1.9013,-1.9013,-1.8953,-1.8686,-1.8169,-1.7676,-1.7207,-1.6643,-1.6235,-1.5984,-1.5898,-1.5814,-1.5814,-1.5814,-1.5814,-1.5814,-1.5814,-1.5814,-1.5814,-1.5814,-1.5814,-1.5814,-1.5814,-1.5814,-1.5814,-1.5814,-1.5814,-1.5814,-1.5814,-1.5814,-1.5814,-4.2778,-4.2561,-4.2168,-4.1557,-4.0798,-4.0377,-3.9834,-3.9332,-3.9305,-3.9305,-3.9305,-3.9305,-3.9305,-3.9305,-3.9305,-3.9305,-3.9305,-3.9305,-3.9305,-3.9305,-3.9305,-3.9224,-3.8979,-3.8613,-3.7772,-3.6673,-3.5995,-3.5723,-3.5669,-3.552,-3.5209,-3.4707,-3.403,-3.3457,-3.3101,-3.2531,-3.2205,-3.2205,-3.2205,-3.211,-3.187,-3.1314,-3.073,-3.012,-2.9523,-2.9054,-2.8614,-2.8587,-2.8587,-2.8587,-2.8587,-2.8329,-2.7759,-2.7352,-2.6769,-2.5982,-2.5767,-2.5398,-2.5059,-2.5005,-2.5005,-2.5005,-2.5005,-2.5005,-2.5005,-2.5005,-2.5005,-2.5005,-2.4991,-2.4761,-2.4177,-2.3567,-2.289,-2.209,-2.141,-2.0997,-2.0898,-2.0511,-2.0054,-1.9668,-1.946,-1.9342,-1.9223,-1.9078,-1.9013,-1.9013,-1.9013,-1.8794,-1.8326,-1.8061,-1.7543,-1.6787,-1.6452,-1.6176,-1.602,-1.5898,-1.5814,-1.5814,-1.5814,-1.5814,-1.5814,-1.5814,-1.5814,-1.5814,-1.5814,-1.5814,-1.5814,-1.5814,-1.5814,-1.5814,-1.5814,-1.5814,-1.5814,-1.5814,-1.5814,-4.29,-4.2846,-4.2493,-4.2005,-4.1394,-4.0798,-4.0187,-3.9644,-3.9386,-3.9319,-3.9305,-3.9305,-3.9305,-3.9305,-3.9305,-3.9305,-3.9305,-3.9305,-3.9305,-3.9305,-3.9305,-3.9305,-3.9224,-3.8695,-3.7892,-3.6999,-3.6334,-3.5927,-3.5723,-3.5696,-3.552,-3.5073,-3.4531,-3.3948,-3.339,-3.2843,-3.2463,-3.2259,-3.2205,-3.2205,-3.2096,-3.1599,-3.1124,-3.0676,-2.993,-2.9333,-2.8959,-2.8736,-2.8587,-2.8587,-2.8587,-2.8397,-2.8058,-2.7813,-2.7257,-2.6443,-2.5982,-2.5629,-2.51,-2.5005,-2.5005,-2.5005,-2.5005,-2.5005,-2.5005,-2.5005,-2.5005,-2.5005,-2.5005,-2.4856,-2.4462,-2.3892,-2.3296,-2.2673,-2.1649,-2.0962,-2.0711,-2.041,-2.0029,-1.9642,-1.9447,-1.9328,-1.9158,-1.9078,-1.9013,-1.9013,-1.9013,-1.8939,-1.8542,-1.8326,-1.776,-1.7195,-1.6799,-1.6499,-1.6175,-1.5994,-1.5838,-1.5814,-1.5814,-1.5814,-1.5814,-1.5814,-1.5814,-1.5814,-1.5814,-1.5814,-1.5814,-1.5814,-1.5814,-1.5814,-1.5814,-1.5814,-1.5814,-1.5814,-1.5814,-4.29,-4.29,-4.2887,-4.2493,-4.191,-4.1313,-4.0689,-4.0119,-3.9549,-3.9305,-3.9305,-3.9305,-3.9305,-3.9305,-3.9305,-3.9305,-3.9305,-3.9305,-3.9305,-3.9305,-3.9305,-3.9305,-3.9224,-3.8681,-3.8014,-3.7404,-3.6822,-3.6266,-3.5737,-3.571,-3.571,-3.5574,-3.4992,-3.4477,-3.3826,-3.3335,-3.2762,-3.2273,-3.2205,-3.2205,-3.2191,-3.168,-3.1314,-3.1219,-3.0201,-2.9536,-2.938,-2.8885,-2.8587,-2.8587,-2.8587,-2.8573,-2.8465,-2.8044,-2.7528,-2.6891,-2.628,-2.5724,-2.5236,-2.5032,-2.5005,-2.5005,-2.5005,-2.5005,-2.5005,-2.5005,-2.5005,-2.5005,-2.5005,-2.4991,-2.4828,-2.4367,-2.3757,-2.3095,-2.1827,-2.0864,-2.0309,-2.0195,-1.9978,-1.9565,-1.9394,-1.9316,-1.9066,-1.9013,-1.9013,-1.9013,-1.9013,-1.8939,-1.8867,-1.8602,-1.8313,-1.7845,-1.7291,-1.6991,-1.6715,-1.6271,-1.6126,-1.6066,-1.597,-1.5826,-1.5814,-1.5814,-1.5814,-1.5814,-1.5814,-1.5814,-1.5814,-1.5814,-1.5814,-1.5814,-1.5814,-1.5814,-1.5814,-1.5814,-1.5814,-4.29,-4.29,-4.29,-4.2548,-4.1964,-4.1381,-4.077,-4.016,-3.9563,-3.9305,-3.9305,-3.9305,-3.9305,-3.9305,-3.9305,-3.9305,-3.9305,-3.9305,-3.9305,-3.9305,-3.9305,-3.9305,-3.9183,-3.8695,-3.8082,-3.7472,-3.6944,-3.6293,-3.575,-3.571,-3.571,-3.5696,-3.5114,-3.4517,-3.3908,-3.3376,-3.2816,-3.23,-3.2205,-3.2205,-3.2191,-3.2083,-3.1734,-3.1246,-3.0554,-2.9944,-2.9529,-2.8899,-2.8587,-2.8587,-2.8587,-2.8587,-2.8573,-2.841,-2.8044,-2.7447,-2.6877,-2.628,-2.571,-2.5236,-2.5032,-2.5005,-2.5005,-2.5005,-2.5005,-2.5005,-2.5005,-2.5005,-2.5005,-2.5005,-2.4882,-2.4448,-2.3771,-2.2937,-2.1871,-2.0878,-2.0398,-2.0169,-1.9978,-1.9512,-1.942,-1.9263,-1.9105,-1.9013,-1.9013,-1.9013,-1.9013,-1.9013,-1.8939,-1.8891,-1.8614,-1.8301,-1.7881,-1.7592,-1.7219,-1.6727,-1.6439,-1.6367,-1.6152,-1.5828,-1.5816,-1.5814,-1.5814,-1.5814,-1.5814,-1.5814,-1.5814,-1.5814,-1.5814,-1.5814,-1.5814,-1.5814,-1.5814,-1.5814,-1.5814,-4.29,-4.29,-4.29,-4.2697,-4.2276,-4.1476,-4.0906,-4.0458,-3.9685,-3.9305,-3.9305,-3.9305,-3.9305,-3.9305,-3.9305,-3.9305,-3.9305,-3.9305,-3.9305,-3.9305,-3.9305,-3.9305,-3.921,-3.8884,-3.8355,-3.7526,-3.7133,-3.6482,-3.5859,-3.571,-3.571,-3.5669,-3.5331,-3.4734,-3.3935,-3.3634,-3.2996,-3.2331,-3.2205,-3.2205,-3.2205,-3.2205,-3.2069,-3.1599,-3.1097,-3.0418,-2.9597,-2.8931,-2.8587,-2.8587,-2.8587,-2.8587,-2.8587,-2.8587,-2.8329,-2.7746,-2.7149,-2.6524,-2.5928,-2.5344,-2.5032,-2.5005,-2.5005,-2.5005,-2.5005,-2.5005,-2.5005,-2.5005,-2.5005,-2.5005,-2.4882,-2.4448,-2.3851,-2.3231,-2.2325,-2.1444,-2.0682,-2.0386,-1.9977,-1.9603,-1.9394,-1.9289,-1.904,-1.9013,-1.9013,-1.9013,-1.9013,-1.9013,-1.9013,-1.9001,-1.8953,-1.8602,-1.8313,-1.8001,-1.7724,-1.7267,-1.6907,-1.6811,-1.6523,-1.6128,-1.5948,-1.5922,-1.5814,-1.5814,-1.5814,-1.5814,-1.5814,-1.5814,-1.5814,-1.5814,-1.5814,-1.5814,-1.5814,-1.5814,-1.5814,-4.29,-4.29,-4.29,-4.2846,-4.2575,-4.1565,-4.1015,-4.077,-3.978,-3.9305,-3.9305,-3.9305,-3.9305,-3.9305,-3.9305,-3.9305,-3.9305,-3.9305,-3.9305,-3.9305,-3.9305,-3.9305,-3.9305,-3.9251,-3.8572,-3.7634,-3.7499,-3.674,-3.5981,-3.571,-3.571,-3.5696,-3.5669,-3.5113,-3.426,-3.3935,-3.3284,-3.2508,-3.2259,-3.2218,-3.2205,-3.2205,-3.2164,-3.2055,-3.1504,-3.0622,-2.9719,-2.9021,-2.8695,-2.8587,-2.8587,-2.8587,-2.8587,-2.8587,-2.837,-2.7895,-2.7308,-2.6714,-2.6063,-2.5534,-2.5073,-2.5046,-2.5005,-2.5005,-2.5005,-2.5005,-2.5005,-2.5005,-2.5005,-2.5005,-2.4951,-2.4517,-2.4175,-2.3766,-2.3217,-2.2391,-2.1483,-2.0694,-2.0079,-1.956,-1.9494,-1.9277,-1.9093,-1.9013,-1.9013,-1.9013,-1.9013,-1.9013,-1.9013,-1.9013,-1.9013,-1.8941,-1.8626,-1.835,-1.8097,-1.7845,-1.7507,-1.7267,-1.6955,-1.6607,-1.6295,-1.6151,-1.5922,-1.5814,-1.5814,-1.5814,-1.5814,-1.5814,-1.5814,-1.5814,-1.5814,-1.5814,-1.5814,-1.5814,-1.5814,-4.29,-4.29,-4.29,-4.2616,-4.2127,-4.1408,-4.0838,-4.035,-3.9617,-3.9305,-3.9305,-3.9305,-3.9305,-3.9305,-3.9305,-3.9305,-3.9305,-3.9305,-3.9305,-3.9305,-3.9305,-3.9305,-3.9305,-3.9305,-3.8627,-3.7743,-3.7499,-3.6835,-3.5995,-3.571,-3.571,-3.571,-3.5669,-3.5357,-3.4653,-3.407,-3.3582,-3.2938,-3.2463,-3.2218,-3.2205,-3.2205,-3.2205,-3.2164,-3.1599,-3.0703,-2.9774,-2.9393,-2.9062,-2.8709,-2.8587,-2.8587,-2.8587,-2.8587,-2.8505,-2.8275,-2.78,-2.7216,-2.6647,-2.6022,-2.548,-2.5113,-2.5032,-2.5005,-2.5005,-2.5005,-2.5005,-2.5005,-2.5005,-2.5005,-2.4978,-2.4896,-2.4621,-2.4289,-2.383,-2.3223,-2.245,-2.1501,-2.0713,-2.011,-1.9664,-1.9289,-1.9052,-1.9013,-1.9013,-1.9013,-1.9013,-1.9013,-1.9013,-1.9013,-1.9013,-1.9013,-1.8905,-1.8626,-1.853,-1.8277,-1.7977,-1.7712,-1.7387,-1.7063,-1.6751,-1.6439,-1.6223,-1.6006,-1.5814,-1.5814,-1.5814,-1.5814,-1.5814,-1.5814,-1.5826,-1.5874,-1.5898,-1.5862,-1.603,-4.29,-4.29,-4.29,-4.2534,-4.1951,-4.1381,-4.077,-4.0146,-3.9549,-3.9305,-3.9305,-3.9305,-3.9305,-3.9305,-3.9305,-3.9305,-3.9305,-3.9305,-3.9305,-3.9305,-3.9305,-3.9305,-3.9305,-3.921,-3.8695,-3.7662,-3.7499,-3.6808,-3.6008,-3.571,-3.571,-3.571,-3.571,-3.5384,-3.4788,-3.4206,-3.3609,-3.3088,-3.2531,-3.2205,-3.2205,-3.2205,-3.2205,-3.211,-3.1599,-3.0825,-3.0025,-2.9638,-2.917,-2.875,-2.8587,-2.8587,-2.8587,-2.8587,-2.8587,-2.8492,-2.803,-2.7623,-2.7104,-2.6416,-2.578,-2.5439,-2.5181,-2.5032,-2.5005,-2.5005,-2.5005,-2.5005,-2.5005,-2.5005,-2.5005,-2.5005,-2.4863,-2.4624,-2.4325,-2.3855,-2.316,-2.2168,-2.1107,-2.0432,-1.9947,-1.9531,-1.9264,-1.911,-1.9025,-1.8999,-1.9013,-1.9013,-1.9013,-1.9013,-1.9013,-1.9013,-1.9013,-1.8953,-1.8891,-1.8686,-1.8374,-1.8121,-1.7869,-1.7544,-1.7207,-1.6883,-1.6559,-1.6355,-1.6151,-1.5838,-1.5814,-1.5814,-1.5898,-1.585,-1.5864,-1.5936,-1.6102,-1.6271,-1.6511,-4.2833,-4.2751,-4.2738,-4.2358,-4.1707,-4.1164,-4.058,-3.9997,-3.9536,-3.9305,-3.9305,-3.9305,-3.9305,-3.9305,-3.9305,-3.9305,-3.9305,-3.9305,-3.9305,-3.9305,-3.9305,-3.9305,-3.9292,-3.9074,-3.8572,-3.758,-3.7499,-3.6821,-3.6008,-3.571,-3.571,-3.571,-3.571,-3.5493,-3.4924,-3.4233,-3.3704,-3.3268,-3.2599,-3.2205,-3.2205,-3.2205,-3.2205,-3.2123,-3.1789,-3.1205,-3.0554,-3.0011,-2.942,-2.8777,-2.8641,-2.86,-2.8587,-2.8587,-2.8587,-2.8587,-2.8153,-2.7854,-2.7528,-2.6809,-2.6199,-2.5998,-2.5466,-2.5113,-2.5046,-2.5005,-2.5005,-2.5005,-2.5005,-2.5005,-2.5005,-2.5005,-2.4863,-2.4664,-2.4578,-2.429,-2.3625,-2.269,-2.1825,-2.0813,-2.0438,-2.0058,-1.9555,-1.9239,-1.9119,-1.9011,-1.9025,-1.9013,-1.9013,-1.9013,-1.9013,-1.9013,-1.9013,-1.9013,-1.8963,-1.8939,-1.865,-1.8518,-1.8289,-1.8085,-1.7772,-1.7507,-1.7207,-1.6787,-1.6523,-1.6271,-1.6199,-1.6367,-1.6331,-1.6066,-1.6175,-1.6487,-1.6643,-1.6715,-1.6955,-4.2602,-4.2154,-4.2154,-4.153,-4.0567,-4.039,-4.0038,-3.9495,-3.9373,-3.9305,-3.9305,-3.9305,-3.9305,-3.9305,-3.9305,-3.9305,-3.9305,-3.9305,-3.9305,-3.9305,-3.9305,-3.9305,-3.9251,-3.8844,-3.819,-3.7689,-3.7404,-3.6767,-3.5967,-3.571,-3.571,-3.571,-3.571,-3.5588,-3.5222,-3.4517,-3.3867,-3.3515,-3.2725,-3.2232,-3.2205,-3.2205,-3.2205,-3.2205,-3.2028,-3.1653,-3.1124,-3.0554,-2.9971,-2.9393,-2.8858,-2.8655,-2.8587,-2.8587,-2.8587,-2.856,-2.8465,-2.8193,-2.7786,-2.7515,-2.6823,-2.6185,-2.5751,-2.5453,-2.5181,-2.5005,-2.5005,-2.5005,-2.5005,-2.5005,-2.5005,-2.5005,-2.4863,-2.4706,-2.4563,-2.4319,-2.3741,-2.3288,-2.2714,-2.1692,-2.1153,-2.0587,-2.0027,-1.954,-1.936,-1.9191,-1.9059,-1.9049,-1.9013,-1.9013,-1.9013,-1.9013,-1.9013,-1.9013,-1.9013,-1.9013,-1.8905,-1.8869,-1.8748,-1.8748,-1.8446,-1.8241,-1.7904,-1.7531,-1.7219,-1.6991,-1.6979,-1.6955,-1.6919,-1.6763,-1.6931,-1.7111,-1.7195,-1.7291,-1.7364,-4.1815,-4.1557,-4.1544,-4.1028,-4.0268,-4.0173,-3.9848,-3.9359,-3.9305,-3.9305,-3.9305,-3.9305,-3.9305,-3.9305,-3.9305,-3.9305,-3.9305,-3.9305,-3.9305,-3.9305,-3.9305,-3.9305,-3.921,-3.8667,-3.8068,-3.754,-3.7147,-3.6619,-3.5791,-3.571,-3.571,-3.571,-3.571,-3.571,-3.5452,-3.4504,-3.3989,-3.3637,-3.2833,-3.2205,-3.2205,-3.2205,-3.2205,-3.2205,-3.2178,-3.187,-3.1368,-3.1083,-3.0405,-2.9631,-2.9197,-2.8912,-2.8709,-2.8587,-2.8587,-2.8587,-2.8587,-2.8505,-2.8139,-2.7922,-2.7393,-2.6904,-2.6321,-2.5835,-2.5466,-2.5236,-2.5032,-2.5005,-2.5005,-2.5005,-2.5005,-2.5005,-2.4863,-2.4677,-2.4591,-2.4261,-2.3822,-2.3645,-2.3111,-2.2474,-2.1851,-2.1149,-2.0382,-1.9973,-1.9696,-1.9432,-1.9167,-1.9071,-1.9037,-1.9013,-1.9013,-1.9013,-1.9013,-1.9013,-1.9013,-1.9013,-1.9013,-1.9013,-1.9013,-1.9013,-1.8965,-1.8638,-1.8542,-1.8374,-1.8085,-1.7627,-1.7375,-1.7231,-1.7339,-1.7435,-1.7436,-1.7472,-1.77,-1.7845,-1.7917,-4.1055,-4.0933,-4.0933,-4.0567,-4.0051,-4.0011,-3.9739,-3.9373,-3.9305,-3.9305,-3.9305,-3.9305,-3.9305,-3.9305,-3.9305,-3.9305,-3.9305,-3.9305,-3.9305,-3.9264,-3.9129,-3.9102,-3.8939,-3.8396,-3.7704,-3.7216,-3.6687,-3.6185,-3.5818,-3.571,-3.571,-3.571,-3.571,-3.5615,-3.5249,-3.4395,-3.4002,-3.342,-3.2779,-3.2246,-3.2205,-3.2205,-3.2205,-3.2205,-3.2205,-3.1988,-3.1599,-3.13,-3.0839,-3.0133,-2.9651,-2.9252,-2.8845,-2.8655,-2.8587,-2.8587,-2.8587,-2.8587,-2.8465,-2.8234,-2.7868,-2.7488,-2.6769,-2.628,-2.5753,-2.5344,-2.5005,-2.5005,-2.5005,-2.5005,-2.5005,-2.5005,-2.4863,-2.4677,-2.4563,-2.4376,-2.3894,-2.3599,-2.339,-2.2852,-2.2377,-2.1758,-2.0984,-2.0574,-2.0322,-1.9724,-1.942,-1.9155,-1.9122,-1.9037,-1.9013,-1.9013,-1.9013,-1.9013,-1.9013,-1.9013,-1.9013,-1.9013,-1.9013,-1.9013,-1.9013,-1.8953,-1.8881,-1.8746,-1.8482,-1.8061,-1.7796,-1.7712,-1.7977,-1.8049,-1.782,-1.7881,-1.8229,-1.8386,-1.8434,-4.0798,-4.0296,-4.0296,-3.9956,-3.9468,-3.9454,-3.94,-3.9332,-3.9305,-3.9305,-3.9305,-3.9305,-3.9305,-3.9305,-3.9305,-3.9305,-3.9305,-3.9224,-3.9197,-3.9129,-3.8749,-3.8532,-3.8342,-3.7297,-3.7053,-3.6741,-3.6185,-3.5832,-3.5723,-3.571,-3.571,-3.571,-3.5669,-3.5479,-3.4965,-3.4287,-3.3688,-3.3173,-3.2558,-3.2205,-3.2205,-3.2205,-3.2205,-3.2205,-3.2205,-3.2164,-3.1974,-3.1612,-3.1165,-3.0948,-3.0018,-2.9529,-2.9325,-2.8845,-2.8641,-2.8587,-2.8587,-2.8587,-2.8573,-2.8451,-2.822,-2.7908,-2.7461,-2.6904,-2.609,-2.5453,-2.51,-2.5005,-2.5005,-2.5005,-2.5005,-2.5005,-2.4863,-2.4734,-2.4591,-2.4361,-2.3966,-2.3641,-2.342,-2.3168,-2.269,-2.2228,-2.1593,-2.1293,-2.0935,-2.0249,-1.97,-1.9459,-1.9194,-1.911,-1.9025,-1.9013,-1.9013,-1.9013,-1.9013,-1.9013,-1.9049,-1.9037,-1.9037,-1.9037,-1.9013,-1.9013,-1.9013,-1.8881,-1.8638,-1.8578,-1.8458,-1.8494,-1.8724,-1.8652,-1.8435,-1.858,-1.8869,-1.8941,-1.8855,-3.9929,-3.9699,-3.9671,-3.9549,-3.9319,-3.9305,-3.9305,-3.9305,-3.9305,-3.9305,-3.9305,-3.9305,-3.9305,-3.9264,-3.9305,-3.9305,-3.9237,-3.8952,-3.8803,-3.8681,-3.8204,-3.7878,-3.7689,-3.7066,-3.6605,-3.6415,-3.6062,-3.5778,-3.571,-3.571,-3.571,-3.571,-3.5683,-3.5425,-3.4748,-3.4206,-3.3661,-3.3078,-3.2521,-3.2232,-3.2205,-3.2205,-3.2205,-3.2205,-3.2205,-3.2205,-3.2137,-3.2028,-3.1585,-3.1273,-3.0405,-2.9835,-2.9442,-2.8953,-2.8587,-2.8587,-2.8587,-2.8587,-2.8587,-2.8587,-2.8424,-2.8193,-2.7841,-2.7135,-2.6172,-2.5683,-2.5331,-2.5032,-2.5005,-2.5018,-2.5018,-2.5005,-2.4892,-2.475,-2.4649,-2.439,-2.4083,-2.3789,-2.348,-2.3241,-2.3005,-2.254,-2.2091,-2.1662,-2.1325,-2.0887,-2.0322,-2.0001,-1.9591,-1.9179,-1.911,-1.9013,-1.9013,-1.9013,-1.9013,-1.9025,-1.911,-1.9122,-1.9083,-1.9086,-1.9037,-1.9013,-1.9182,-1.9107,-1.8915,-1.8915,-1.9062,-1.8977,-1.8905,-1.8953,-1.9013,-1.9013,-1.9025,-1.9049,-1.8989,-3.9305,-3.9305,-3.9305,-3.9305,-3.9305,-3.9305,-3.9305,-3.9305,-3.9305,-3.9305,-3.9251,-3.9142,-3.8993,-3.8871,-3.879,-3.8735,-3.8776,-3.8396,-3.819,-3.796,-3.7607,-3.7296,-3.7052,-3.6673,-3.6334,-3.6375,-3.594,-3.5723,-3.571,-3.571,-3.571,-3.571,-3.571,-3.5262,-3.4626,-3.4111,-3.3607,-3.2803,-3.2409,-3.2218,-3.2205,-3.2205,-3.2205,-3.2205,-3.2205,-3.2205,-3.2205,-3.2191,-3.187,-3.1572,-3.0975,-3.0378,-2.9821,-2.9265,-2.879,-2.8682,-2.8587,-2.8587,-2.8587,-2.8587,-2.8587,-2.841,-2.8058,-2.7366,-2.6674,-2.6253,-2.5873,-2.5358,-2.5303,-2.5208,-2.5046,-2.5005,-2.492,-2.4806,-2.4677,-2.4419,-2.4187,-2.3894,-2.3628,-2.342,-2.318,-2.2939,-2.2487,-2.2019,-2.1674,-2.138,-2.1007,-2.0579,-2.0109,-1.9576,-1.954,-1.954,-1.9576,-1.9576,-1.9555,-1.9483,-1.9423,-1.9312,-1.9312,-1.9384,-1.9504,-1.9552,-1.9672,-1.9516,-1.9312,-1.9516,-1.978,-1.9372,-1.9013,-1.9013,-1.9013,-1.9013,-1.9025,-1.911,-1.923,-3.9305,-3.9305,-3.9305,-3.9305,-3.9305,-3.9305,-3.9305,-3.9305,-3.9305,-3.9278,-3.9156,-3.8735,-3.8206,-3.7838,-3.7824,-3.7797,-3.7689,-3.758,-3.754,-3.7336,-3.6999,-3.6714,-3.6483,-3.6185,-3.5859,-3.5845,-3.5737,-3.5723,-3.571,-3.571,-3.571,-3.571,-3.5601,-3.491,-3.4273,-3.381,-3.3227,-3.2585,-3.2246,-3.2218,-3.2205,-3.2205,-3.2205,-3.2205,-3.2205,-3.2205,-3.2205,-3.2205,-3.2178,-3.2015,-3.1422,-3.0934,-3.0337,-2.9645,-2.9129,-2.8831,-2.8627,-2.8614,-2.8587,-2.8587,-2.8587,-2.8424,-2.8125,-2.7718,-2.7298,-2.6959,-2.6467,-2.5941,-2.5846,-2.5561,-2.5276,-2.499,-2.5055,-2.4835,-2.4734,-2.4549,-2.4303,-2.4054,-2.3776,-2.3569,-2.336,-2.309,-2.2866,-2.2426,-2.2031,-2.1777,-2.1368,-2.0923,-2.0682,-2.0286,-2.031,-2.0334,-2.0382,-2.0394,-2.0422,-2.0302,-2.0045,-2.0009,-2.0021,-2.0165,-2.0322,-2.0293,-2.0129,-2.0177,-2.0069,-2.0298,-2.0329,-1.9877,-1.9456,-1.9158,-1.9098,-1.936,-1.9492,-1.96,-1.9696,-3.9305,-3.9305,-3.9305,-3.9305,-3.9305,-3.9305,-3.9305,-3.9305,-3.9305,-3.9074,-3.8708,-3.8109,-3.7716,-3.7512,-3.7499,-3.7499,-3.7431,-3.7094,-3.697,-3.6726,-3.6402,-3.6103,-3.594,-3.5886,-3.5723,-3.571,-3.571,-3.571,-3.571,-3.571,-3.571,-3.5642,-3.5344,-3.4694,-3.403,-3.3335,-3.2657,-3.2449,-3.2205,-3.2205,-3.2205,-3.2205,-3.2205,-3.2205,-3.2205,-3.2205,-3.2205,-3.2205,-3.2205,-3.2033,-3.1599,-3.1232,-3.0839,-3.0052,-2.9502,-2.9089,-2.8831,-2.8655,-2.8587,-2.8587,-2.8587,-2.8573,-2.837,-2.8112,-2.7827,-2.7457,-2.7067,-2.6687,-2.6443,-2.6199,-2.5697,-2.5534,-2.5451,-2.5054,-2.4845,-2.4756,-2.4556,-2.4318,-2.3979,-2.3772,-2.3522,-2.3241,-2.3047,-2.2811,-2.2469,-2.2134,-2.1699,-2.1332,-2.1127,-2.0935,-2.0911,-2.0875,-2.0899,-2.0822,-2.0827,-2.073,-2.0646,-2.0694,-2.073,-2.0803,-2.0875,-2.061,-2.0478,-2.061,-2.0706,-2.0718,-2.0598,-2.0233,-1.9997,-1.9793,-1.9853,-2.0041,-2.0113,-2.0117,-2.0213,-3.9034,-3.902,-3.8844,-3.8979,-3.9278,-3.9305,-3.9197,-3.9047,-3.902,-3.8572,-3.7867,-3.7419,-3.7134,-3.7039,-3.693,-3.6889,-3.674,-3.6537,-3.6388,-3.6198,-3.5967,-3.5737,-3.571,-3.571,-3.571,-3.571,-3.571,-3.571,-3.571,-3.571,-3.571,-3.5493,-3.4924,-3.4301,-3.3786,-3.2847,-3.2218,-3.2205,-3.2205,-3.2205,-3.2205,-3.2205,-3.2205,-3.2205,-3.2205,-3.2205,-3.2205,-3.2205,-3.2205,-3.211,-3.1816,-3.1504,-3.107,-3.0554,-2.9916,-2.9469,-2.9116,-2.8817,-2.8641,-2.8587,-2.8587,-2.8573,-2.8573,-2.8329,-2.8098,-2.7949,-2.7691,-2.7159,-2.7037,-2.6837,-2.6253,-2.6145,-2.6104,-2.5828,-2.567,-2.5523,-2.5098,-2.48,-2.4367,-2.3988,-2.3726,-2.3492,-2.318,-2.2957,-2.2659,-2.2341,-2.2037,-2.1795,-2.168,-2.15,-2.1368,-2.1332,-2.1308,-2.1223,-2.1139,-2.1247,-2.1356,-2.1392,-2.1404,-2.1308,-2.126,-2.1031,-2.1043,-2.1308,-2.132,-2.1127,-2.1079,-2.1091,-2.0851,-2.0562,-2.0574,-2.0521,-2.0509,-2.0526,-2.0754,-3.8437,-3.8355,-3.7811,-3.8217,-3.9142,-3.9278,-3.8939,-3.845,-3.8355,-3.7786,-3.689,-3.6673,-3.6347,-3.6008,-3.6049,-3.6062,-3.6035,-3.59,-3.5832,-3.5818,-3.5791,-3.5723,-3.571,-3.571,-3.571,-3.571,-3.571,-3.571,-3.571,-3.571,-3.571,-3.5384,-3.468,-3.3908,-3.3772,-3.2766,-3.2246,-3.2205,-3.2205,-3.2205,-3.2205,-3.2205,-3.2205,-3.2205,-3.2205,-3.2205,-3.2205,-3.2205,-3.2205,-3.2164,-3.2137,-3.1816,-3.1395,-3.1205,-3.0595,-2.9801,-2.9556,-2.9143,-2.8668,-2.8614,-2.8587,-2.8587,-2.8587,-2.8505,-2.8532,-2.8465,-2.8288,-2.7732,-2.7678,-2.7406,-2.7054,-2.6796,-2.6698,-2.6492,-2.632,-2.6136,-2.5694,-2.5458,-2.5061,-2.4665,-2.42,-2.3785,-2.3433,-2.309,-2.2787,-2.25,-2.2328,-2.2168,-2.2053,-2.1957,-2.1753,-2.1728,-2.1692,-2.1704,-2.168,-2.1933,-2.2065,-2.2101,-2.2005,-2.1813,-2.1801,-2.1753,-2.1837,-2.2017,-2.1885,-2.1644,-2.1861,-2.2089,-2.1644,-2.1175,-2.0935,-2.0863,-2.0863,-2.0983,-2.126,-3.7783,-3.777,-3.758,-3.7716,-3.8068,-3.8082,-3.796,-3.7729,-3.7392,-3.6971,-3.6578,-3.6225,-3.5954,-3.575,-3.571,-3.571,-3.571,-3.571,-3.571,-3.571,-3.571,-3.571,-3.571,-3.571,-3.571,-3.571,-3.571,-3.571,-3.571,-3.571,-3.571,-3.5425,-3.4502,-3.358,-3.2928,-3.2277,-3.2218,-3.2205,-3.2205,-3.2205,-3.2205,-3.2205,-3.2205,-3.2205,-3.2205,-3.2205,-3.2205,-3.2205,-3.2205,-3.2205,-3.2205,-3.2083,-3.1762,-3.1626,-3.111,-3.0446,-3.012,-2.9244,-2.8777,-2.8587,-2.8587,-2.8587,-2.8587,-2.8587,-2.8587,-2.8587,-2.8438,-2.8329,-2.822,-2.7908,-2.7569,-2.7434,-2.7284,-2.6806,-2.661,-2.6536,-2.6297,-2.6223,-2.5992,-2.5576,-2.5083,-2.4258,-2.3722,-2.3593,-2.33,-2.2948,-2.2786,-2.2363,-2.218,-2.2137,-2.2041,-2.2053,-2.2053,-2.2113,-2.2197,-2.2197,-2.2197,-2.2149,-2.2137,-2.2089,-2.2137,-2.2197,-2.2173,-2.2101,-2.2149,-2.2197,-2.2197,-2.2173,-2.2065,-2.1777,-2.15,-2.1416,-2.1524,-2.1656,-2.1849,-3.7216,-3.7147,-3.6943,-3.6862,-3.693,-3.7309,-3.739,-3.7092,-3.6578,-3.6293,-3.6198,-3.5873,-3.5723,-3.5723,-3.571,-3.571,-3.571,-3.571,-3.571,-3.571,-3.571,-3.571,-3.571,-3.571,-3.571,-3.571,-3.571,-3.571,-3.571,-3.571,-3.5425,-3.487,-3.4339,-3.3376,-3.2603,-3.2232,-3.2205,-3.2205,-3.2205,-3.2205,-3.2205,-3.2205,-3.2205,-3.2205,-3.2205,-3.2205,-3.2205,-3.2205,-3.2205,-3.2205,-3.2205,-3.2205,-3.2069,-3.187,-3.149,-3.1056,-3.0201,-2.9407,-2.9034,-2.8641,-2.8627,-2.8587,-2.8587,-2.8587,-2.8587,-2.8587,-2.8587,-2.856,-2.8587,-2.8397,-2.8071,-2.7976,-2.7786,-2.7335,-2.7335,-2.7286,-2.7012,-2.6951,-2.671,-2.6303,-2.5774,-2.494,-2.4226,-2.4057,-2.3923,-2.3586,-2.3249,-2.2797,-2.2392,-2.2361,-2.2342,-2.2354,-2.2306,-2.2294,-2.2258,-2.2197,-2.2197,-2.2197,-2.2234,-2.227,-2.2197,-2.2197,-2.2197,-2.2197,-2.2197,-2.2197,-2.2197,-2.2149,-2.2101,-2.2089,-2.2029,-2.2041,-2.2197,-2.2197,-2.2197,-3.6578,-3.6483,-3.5954,-3.5778,-3.594,-3.6875,-3.7066,-3.6537,-3.5981,-3.571,-3.5737,-3.575,-3.571,-3.571,-3.571,-3.571,-3.571,-3.571,-3.571,-3.571,-3.571,-3.571,-3.571,-3.571,-3.571,-3.571,-3.571,-3.571,-3.571,-3.5547,-3.4965,-3.426,-3.3908,-3.3132,-3.2481,-3.2205,-3.2205,-3.2205,-3.2205,-3.2205,-3.2205,-3.2205,-3.2205,-3.2205,-3.2205,-3.2205,-3.2205,-3.2205,-3.2205,-3.2205,-3.2205,-3.2205,-3.2205,-3.2205,-3.1802,-3.1165,-3.0161,-2.9808,-2.9366,-2.8926,-2.8668,-2.8627,-2.8587,-2.8587,-2.8587,-2.8587,-2.8587,-2.8587,-2.8587,-2.8587,-2.8505,-2.8478,-2.8451,-2.8343,-2.8343,-2.8121,-2.7782,-2.7543,-2.726,-2.6872,-2.6396,-2.5756,-2.5138,-2.4886,-2.4545,-2.4197,-2.3843,-2.3416,-2.3006,-2.2698,-2.2666,-2.2642,-2.257,-2.2438,-2.2414,-2.257,-2.2642,-2.2787,-2.2462,-2.2414,-2.2318,-2.2234,-2.2197,-2.2197,-2.2197,-2.2197,-2.2197,-2.2197,-2.2185,-2.2197,-2.2197,-2.2197,-2.2197,-2.2197,-2.2197,-3.5967,-3.5954,-3.5791,-3.571,-3.5764,-3.609,-3.613,-3.594,-3.5764,-3.571,-3.571,-3.571,-3.571,-3.571,-3.571,-3.571,-3.571,-3.571,-3.571,-3.571,-3.571,-3.571,-3.571,-3.571,-3.571,-3.571,-3.571,-3.571,-3.5601,-3.5398,-3.4761,-3.4016,-3.3593,-3.2901,-3.249,-3.2205,-3.2205,-3.2205,-3.2205,-3.2205,-3.2205,-3.2205,-3.2205,-3.2205,-3.2205,-3.2205,-3.2205,-3.2205,-3.2205,-3.2205,-3.2205,-3.2205,-3.2205,-3.2191,-3.1947,-3.1382,-3.0839,-3.0473,-2.9692,-2.9352,-2.9067,-2.8682,-2.86,-2.8587,-2.8587,-2.8587,-2.8587,-2.8587,-2.8587,-2.8587,-2.8587,-2.8587,-2.8587,-2.8587,-2.8587,-2.8451,-2.8166,-2.808,-2.7809,-2.7556,-2.7075,-2.648,-2.5928,-2.5499,-2.5185,-2.4833,-2.4479,-2.4095,-2.3648,-2.3305,-2.3083,-2.3059,-2.3083,-2.2999,-2.3192,-2.3372,-2.3384,-2.3372,-2.3023,-2.2702,-2.263,-2.2522,-2.2294,-2.2197,-2.2197,-2.2197,-2.2197,-2.2197,-2.2197,-2.2197,-2.2197,-2.2197,-2.2197,-2.2197,-2.2197,-3.571,-3.571,-3.571,-3.571,-3.571,-3.571,-3.571,-3.571,-3.571,-3.571,-3.571,-3.571,-3.571,-3.571,-3.571,-3.571,-3.571,-3.571,-3.571,-3.571,-3.571,-3.571,-3.571,-3.571,-3.571,-3.571,-3.571,-3.571,-3.5533,-3.5073,-3.449,-3.3908,-3.3363,-3.2803,-3.2395,-3.2205,-3.2205,-3.2205,-3.2205,-3.2205,-3.2205,-3.2205,-3.2205,-3.2205,-3.2205,-3.2205,-3.2205,-3.2205,-3.2205,-3.2205,-3.2205,-3.2205,-3.2205,-3.2191,-3.2151,-3.1639,-3.13,-3.0758,-3.0038,-2.9624,-2.917,-2.879,-2.86,-2.8587,-2.8587,-2.8587,-2.8587,-2.8587,-2.8587,-2.8587,-2.8587,-2.8587,-2.8587,-2.8587,-2.8587,-2.8587,-2.8573,-2.856,-2.8409,-2.8206,-2.7752,-2.7136,-2.6635,-2.6174,-2.5901,-2.5719,-2.5482,-2.5176,-2.4563,-2.3975,-2.367,-2.3517,-2.3589,-2.3637,-2.3842,-2.3938,-2.3842,-2.3734,-2.3529,-2.3252,-2.3083,-2.2787,-2.2546,-2.2354,-2.2197,-2.2197,-2.2197,-2.2197,-2.2197,-2.2197,-2.2197,-2.2197,-2.2197,-2.2197,-2.2197,-3.5547,-3.5533,-3.5574,-3.5479,-3.556,-3.5506,-3.5493,-3.5574,-3.5465,-3.5588,-3.5574,-3.556,-3.5438,-3.529,-3.5385,-3.548,-3.5574,-3.5615,-3.571,-3.5696,-3.571,-3.571,-3.571,-3.571,-3.571,-3.571,-3.5683,-3.5628,-3.5438,-3.4897,-3.4273,-3.384,-3.3227,-3.2667,-3.23,-3.2218,-3.2205,-3.2205,-3.2205,-3.2205,-3.2205,-3.2205,-3.2205,-3.2205,-3.2205,-3.2205,-3.2205,-3.2205,-3.2205,-3.2205,-3.2205,-3.2205,-3.2205,-3.2205,-3.2178,-3.2069,-3.168,-3.1178,-3.0527,-3.0011,-2.942,-2.8953,-2.8614,-2.86,-2.8587,-2.8587,-2.8587,-2.8587,-2.8587,-2.8587,-2.8587,-2.8587,-2.8587,-2.8587,-2.8587,-2.8587,-2.8587,-2.8587,-2.8509,-2.8306,-2.8057,-2.7492,-2.7249,-2.6784,-2.6427,-2.6464,-2.6208,-2.5921,-2.5458,-2.4706,-2.4365,-2.4104,-2.4203,-2.43,-2.4275,-2.4324,-2.4133,-2.4035,-2.3938,-2.3794,-2.3592,-2.322,-2.2818,-2.2486,-2.2197,-2.2197,-2.2197,-2.2197,-2.2197,-2.2197,-2.2197,-2.2197,-2.2197,-2.2197,-2.2197,-3.4328,-3.4328,-3.4328,-3.4328,-3.4341,-3.4328,-3.4355,-3.4328,-3.4328,-3.4585,-3.4856,-3.4572,-3.4395,-3.4504,-3.487,-3.5005,-3.5059,-3.529,-3.5655,-3.5601,-3.5574,-3.552,-3.5669,-3.5601,-3.5655,-3.571,-3.5655,-3.5371,-3.4951,-3.4409,-3.384,-3.3308,-3.2789,-3.2368,-3.2246,-3.2205,-3.2205,-3.2205,-3.2205,-3.2205,-3.2205,-3.2205,-3.2205,-3.2205,-3.2205,-3.2205,-3.2205,-3.2205,-3.2205,-3.2205,-3.2205,-3.2205,-3.2205,-3.2205,-3.2205,-3.2178,-3.2015,-3.1572,-3.1056,-3.0459,-2.9889,-2.9325,-2.8959,-2.8695,-2.8587,-2.8587,-2.8587,-2.8587,-2.8587,-2.8587,-2.8587,-2.8587,-2.8587,-2.8587,-2.8587,-2.8587,-2.8587,-2.8554,-2.8509,-2.836,-2.8197,-2.7954,-2.7689,-2.739,-2.7079,-2.6739,-2.6371,-2.607,-2.5871,-2.5357,-2.5076,-2.4886,-2.4915,-2.4963,-2.4843,-2.4723,-2.4602,-2.4566,-2.4518,-2.4338,-2.4109,-2.3448,-2.2835,-2.2462,-2.2197,-2.2197,-2.2197,-2.2197,-2.2197,-2.2197,-2.2197,-2.2197,-2.2197,-2.2197,-2.2197,-3.3908,-3.3908,-3.3908,-3.3908,-3.3908,-3.3908,-3.3908,-3.3867,-3.3637,-3.3729,-3.4054,-3.3921,-3.3894,-3.3894,-3.4273,-3.4395,-3.445,-3.4707,-3.4748,-3.4843,-3.5019,-3.5059,-3.5154,-3.529,-3.5289,-3.5289,-3.4991,-3.4612,-3.4341,-3.3878,-3.3308,-3.3006,-3.2531,-3.2205,-3.2205,-3.2205,-3.2205,-3.2205,-3.2205,-3.2205,-3.2205,-3.2205,-3.2205,-3.2205,-3.2205,-3.2205,-3.2205,-3.2205,-3.2205,-3.2205,-3.2205,-3.2205,-3.2205,-3.2205,-3.2205,-3.2205,-3.2123,-3.1924,-3.1409,-3.0934,-3.0391,-2.9774,-2.9312,-2.9075,-2.8633,-2.8619,-2.8651,-2.8651,-2.8587,-2.8587,-2.8587,-2.8587,-2.8587,-2.8587,-2.8587,-2.8587,-2.8587,-2.8587,-2.8554,-2.8476,-2.8314,-2.8151,-2.7855,-2.7556,-2.7248,-2.6956,-2.6568,-2.627,-2.6084,-2.5863,-2.5653,-2.55,-2.543,-2.5312,-2.5143,-2.5107,-2.5119,-2.5095,-2.5023,-2.4735,-2.4338,-2.352,-2.2859,-2.2594,-2.2366,-2.2197,-2.2197,-2.2197,-2.2197,-2.2197,-2.2197,-2.2197,-2.2197,-2.2197,-2.2216,-3.3637,-3.3691,-3.3664,-3.3664,-3.3691,-3.3664,-3.3637,-3.3555,-3.3173,-3.2993,-3.3074,-3.3433,-3.3664,-3.3677,-3.3786,-3.3786,-3.388,-3.4138,-3.4043,-3.4043,-3.4057,-3.4368,-3.4585,-3.468,-3.468,-3.4558,-3.4301,-3.4043,-3.3824,-3.339,-3.3129,-3.2911,-3.2585,-3.2205,-3.2205,-3.2205,-3.2205,-3.2205,-3.2205,-3.2205,-3.2205,-3.2205,-3.2205,-3.2205,-3.2205,-3.2205,-3.2205,-3.2205,-3.2205,-3.2205,-3.2205,-3.2205,-3.2205,-3.2205,-3.2205,-3.2205,-3.2205,-3.1924,-3.1558,-3.13,-3.0676,-3.0113,-2.9774,-2.942,-2.8986,-2.8956,-2.8988,-2.898,-2.8915,-2.8706,-2.8706,-2.8673,-2.8673,-2.8682,-2.8682,-2.8831,-2.8845,-2.8858,-2.8858,-2.8845,-2.8681,-2.8517,-2.8146,-2.7834,-2.7494,-2.7177,-2.682,-2.6533,-2.6258,-2.605,-2.5875,-2.5653,-2.5535,-2.543,-2.5312,-2.5312,-2.5312,-2.5288,-2.5143,-2.4927,-2.4602,-2.3965,-2.3376,-2.2895,-2.2666,-2.2438,-2.2246,-2.2197,-2.2197,-2.2197,-2.2197,-2.2197,-2.2216,-2.2247,-2.2309,-3.2508,-3.2508,-3.2508,-3.2535,-3.2548,-3.2535,-3.2521,-3.2508,-3.2477,-3.2381,-3.2463,-3.2426,-3.2521,-3.2562,-3.3088,-3.3227,-3.3295,-3.3515,-3.3813,-3.3921,-3.3677,-3.3867,-3.4043,-3.4122,-3.4084,-3.3962,-3.3813,-3.3637,-3.3308,-3.3101,-3.283,-3.2399,-3.2381,-3.2205,-3.2205,-3.2205,-3.2205,-3.2205,-3.2205,-3.2205,-3.2205,-3.2205,-3.2205,-3.2205,-3.2205,-3.2205,-3.2205,-3.2205,-3.2205,-3.2205,-3.2205,-3.2205,-3.2205,-3.2205,-3.2205,-3.2205,-3.2205,-3.2137,-3.1843,-3.1585,-3.1002,-3.0798,-3.0521,-3.0215,-3.0024,-3.0084,-3.0096,-3.0091,-2.9879,-2.9205,-2.9109,-2.9044,-2.9012,-2.9032,-2.9054,-2.9496,-2.9754,-2.9821,-2.9862,-2.9781,-2.97,-2.9329,-2.8832,-2.8415,-2.7965,-2.758,-2.7062,-2.6728,-2.6499,-2.6275,-2.6074,-2.5875,-2.5688,-2.55,-2.5359,-2.5312,-2.5312,-2.5312,-2.5264,-2.5059,-2.4819,-2.452,-2.4025,-2.3472,-2.3003,-2.2702,-2.251,-2.2294,-2.2197,-2.2197,-2.2197,-2.2197,-2.2228,-2.2333,-2.2419]},{"header":{"parameterUnit":"m.s-1","parameterCategory":1,"la1":31.0,"la2":29.5877,"lo1":-88.7671,"lo2":-86.6584,"dy":0.0162,"dx":0.0185,"nx":115,"ny":88,"refTime":"2023-08-13T12:00:00:Z","depth":0,"parameterNumber":3,"parameterNumberName":"V-component_of_WINDS"},"data":[0.0,0.0,0.0,0.0,0.0,0.0,0.0,0.0,0.0,0.0,0.0,0.0,0.0,0.0,0.0,0.0,0.0,0.0,0.0,0.0,0.0,0.0,0.0,0.0,0.0,0.0,0.0,0.0,0.0,0.0,0.0,0.0,0.0,0.0,0.0,0.0,0.0,0.0,0.0,0.0,0.0,0.0,0.0,0.0,0.0,0.0,0.0,0.0,0.0,0.0,0.0,0.0,0.0,0.0,0.0,0.0,0.0,0.0,0.0,0.0,0.0,0.0,0.0,0.0,0.0,0.0,0.0,0.0,0.0,0.0,0.0,0.0,0.0,0.0,0.0,0.0,0.0,0.0,0.0,0.0,0.0,0.0,0.0,0.0,0.0,0.0,0.0,0.0,0.0,0.0,0.0,0.0,0.0,0.0,0.0,0.0,0.0,0.0,0.0,0.0,0.0,0.0,0.0,0.0,0.0,0.0,0.0,0.0,0.0,0.0,0.0,0.0,0.0,0.0,0.0,0.0,0.0,0.0,0.0,0.0,0.0,0.0,0.0,0.0,0.0,0.0,0.0,0.0,0.0,0.0,0.0,0.0,0.0,0.0,0.0,0.0,0.0,0.0,0.0,0.0,0.0,0.0,0.0,0.0,0.0,0.0,0.0,0.0,0.0,0.0,0.0,0.0,0.0,0.0,0.0,0.0,0.0,0.0,0.0,0.0,0.0,0.0,0.0,0.0,0.0,0.0,0.0,0.0,0.0,0.0,0.0,0.0,0.0,0.0,0.0,0.0,0.0,0.0,0.0,0.0,0.0,0.0,0.0,0.0,0.0,0.0,0.0,0.0,0.0,0.0,0.0,0.0,0.0,0.0,0.0,0.0,0.0,0.0,0.0,0.0,0.0,0.0,0.0,0.0,0.0,0.0,0.0,0.0,0.0,0.0,0.0,0.0,0.0,0.0,0.0,0.0,0.0,0.0,0.0,0.0,0.0,0.0,0.0,0.0,0.0,0.0,0.0,0.0,0.0,0.0,0.0,0.0,0.0,0.0,0.0,0.0,0.0,0.0,0.0,0.0,0.0,0.0,0.0,0.0,0.0,0.0,0.0,0.0,0.0,0.0,0.0,0.0,0.0,0.0,0.0,0.0,0.0,0.0,0.0,0.0,0.0,0.0,0.0,0.0,0.0,0.0,0.0,0.0,0.0,0.0,0.0,0.0,0.0,0.0,0.0,0.0,0.0,0.0,0.0,0.0,0.0,0.0,0.0,0.0,0.0,0.0,0.0,0.0,0.0,0.0,0.0,0.0,0.0,0.0,0.0,0.0,0.0,0.0,0.0,0.0,0.0,0.0,0.0,0.0,0.0,0.0,0.0,0.0,0.0,0.0,0.0,0.0,0.0,0.0,0.0,0.0,0.0,0.0,0.0,0.0,0.0,0.0,0.0,0.0,0.0,0.0,0.0,0.0,0.0,0.0,0.0,0.0,0.0,0.0,0.0,0.0,0.0,0.0,0.0,0.0,0.0,0.0,0.0,0.0,0.0,0.0,0.0,0.0,0.0,0.0,0.0,0.0,0.0,0.0,0.0,0.0,0.0,0.0,0.0,0.0,0.0,0.0,0.0,0.0,0.0,0.0,0.0,0.0,0.0,0.0,0.0,0.0,0.0,0.0,0.0,0.0,0.0,0.0,0.0,0.0,0.0,0.0,0.0,0.0,0.0,0.0,0.0,0.0,0.0,0.0,0.0,0.0,0.0,0.0,0.0,0.0,0.0,0.0,0.0,0.0,0.0,0.0,0.0,0.0,0.0,0.0,0.0,0.0,0.0,0.0,0.0,0.0,0.0,0.0,0.0,0.0,0.0,0.0,0.0,0.0,0.0,0.0,0.0,0.0,0.0,0.0,0.0,0.0,0.0,0.0,0.0,0.0,0.0,0.0,0.0,0.0,0.0,0.0,0.0,0.0,0.0,0.0,0.0,0.0,0.0,0.0,0.0,0.0,0.0,0.0,0.0,0.0,0.0,0.0,0.0,0.0,0.0,0.0,0.0,0.0,0.0,0.0,0.0,0.0,0.0,0.0,0.0,0.0,0.0,0.0,0.0,0.0,0.0,0.0,0.0,0.0,0.0,0.0,0.0,0.0,0.0,0.0,0.0,0.0,0.0,0.0,0.0,0.0,0.0,0.0,0.0,0.0,0.0,0.0,0.0,0.0,0.0,0.0,0.0,0.0,0.0,0.0,0.0,0.0,0.0,0.0,0.0,0.0,0.0,0.0,0.0,0.0,0.0,0.0,0.0,0.0,0.0,0.0,0.0,0.0,0.0,0.0,0.0,0.0,0.0,0.0,0.0,0.0,0.0,0.0,0.0,0.0,0.0,0.0,0.0,0.0,0.0,0.0,0.0,0.0,0.0,0.0,0.0,0.0,0.0,0.0,0.0,0.0,0.0,0.0,0.0,0.0,0.0,0.0,0.0,0.0,0.0,0.0,0.0,0.0,0.0,0.0,0.0,0.0,0.0,0.0,0.0,0.0,0.0,0.0,0.0,0.0,0.0,0.0,0.0,0.0,0.0,0.0,0.0,0.0,0.0,0.0,0.0,0.0,0.0,0.0,0.0,0.0,0.0,0.0,0.0,0.0,0.0,0.0,0.0,0.0,0.0,0.0,0.0,0.0,0.0,0.0,0.0,0.0,0.0,0.0,0.0,0.0,0.0,0.0,0.0,0.0,0.0,0.0,0.0,0.0,0.0,0.0,0.0,0.0,0.0,0.0,0.0,0.0,0.0,0.0,0.0,0.0,0.0,0.0,0.0,0.0,0.0,0.0,0.0,0.0,0.0,0.0,0.0,0.0,0.0,0.0,0.0,0.0,0.0,0.0,0.0,0.0,0.0,0.0,0.0,0.0,0.0,0.0,0.0,0.0,0.0,0.0,0.0,0.0,0.0,0.0,0.0,0.0,0.0,0.0,0.0,0.0,0.0,0.0,0.0,0.0,0.0,0.0,0.0,0.0,0.0,0.0,0.0,0.0,0.0,0.0,0.0,0.0,0.0,0.0,0.0,0.0,0.0,0.0,0.0,0.0,0.0,0.0,0.0,0.0,0.0,0.0,0.0,0.0,0.0,0.0,0.0,0.0,0.0,0.0,0.0,0.0,0.0,0.0,0.0,0.0,0.0,0.0,0.0,0.0,0.0,0.0,0.0,0.0,0.0,0.0,0.0,0.0,0.0,0.0,0.0,0.0,0.0,0.0,0.0,0.0,0.0,0.0,0.0,0.0,0.0,0.0,0.0,0.0,0.0,0.0,0.0,0.0,0.0,0.0,0.0,0.0,0.0,0.0,0.0,0.0,0.0,0.0,0.0,0.0,0.0,0.0,0.0,0.0,0.0,0.0,0.0,0.0,0.0,0.0,0.0,0.0,0.0,0.0,0.0,0.0,0.0,0.0,0.0,0.0,0.0,0.0,0.0,0.0,0.0,0.0,0.0,0.0,0.0,0.0,0.0,0.0,0.0,0.0,0.0,0.0,0.0,0.0,0.0,0.0,0.0,0.0,0.0,0.0,0.0,0.0,0.0,0.0,0.0,0.0,0.0,0.0,0.0,0.0,0.0,0.0,0.0,0.0,0.0,0.0,0.0,0.0,0.0,0.0,0.0,0.0,0.0,0.0,0.0,0.0,0.0,0.0,0.0,0.0,0.0,0.0,0.0,0.0,0.0,0.0,0.0,0.0,0.0,0.0,0.0,0.0,0.0,0.0,0.0,0.0,0.0,0.0,0.0,0.0,0.0,0.0,0.0,0.0,0.0,0.0,0.0,0.0,0.0,0.0,0.0,0.0,0.0,0.0,0.0,0.0,0.0,0.0,0.0,0.0,0.0,0.0,0.0,0.0,0.0,0.0,0.0,0.0,0.0,0.0,0.0,0.0,0.0,0.0,0.0,0.0,0.0,0.0,0.0,0.0,0.0,0.0,0.0,0.0,0.0,0.0,0.0,0.0,0.0,0.0,0.0,0.0,0.0,0.0,0.0,0.0,0.0,0.0,0.0,0.0,0.0,0.0,0.0,0.0,0.0,0.0,0.0,0.0,0.0,0.0,0.0,0.0,0.0,0.0,0.0,0.0,0.0,0.0,0.0,0.0,0.0,0.0,0.0,0.0,0.0,0.0,0.0,0.0,0.0,0.0,0.0,0.0,0.0,0.0,0.0,0.0,0.0,0.0,0.0,0.0,0.0,0.0,0.0,0.0,0.0,0.0,0.0,0.0,0.0,0.0,0.0,0.0,0.0,0.0,0.0,0.0,-0.8867,0.0,0.0,0.0,0.0,0.0,0.0,0.0,0.0,0.0,0.0,0.0,0.0,0.0,0.0,0.0,0.0,0.0,0.0,0.0,0.0,0.0,0.0,0.0,0.0,0.0,0.0,0.0,0.0,0.0,0.0,0.0,0.0,0.0,0.0,0.0,0.0,0.0,0.0,0.0,0.0,0.0,0.0,0.0,0.0,0.0,0.0,0.0,0.0,0.0,0.0,0.0,0.0,0.0,0.0,0.0,0.0,0.0,0.0,0.0,0.0,0.0,0.0,0.0,0.0,0.0,0.0,0.0,0.0,0.0,0.0,0.0,0.0,0.0,0.0,0.0,0.0,0.0,0.0,0.0,0.0,0.0,0.0,0.0,0.0,0.0,0.0,0.0,0.0,0.0,0.0,0.0,0.0,0.0,0.0,0.0,0.0,0.0,0.0,0.0,0.0,0.0,0.0,0.0,0.0,0.0,0.0,0.0,0.0,0.0,0.0,-1.0958,-1.0725,-1.0525,-1.034,-1.0116,0.0,0.0,0.0,0.0,0.0,0.0,0.0,0.0,0.0,0.0,0.0,0.0,0.0,0.0,0.0,0.0,0.0,0.0,0.0,0.0,0.0,0.0,0.0,0.0,0.0,0.0,0.0,0.0,0.0,0.0,0.0,0.0,0.0,0.0,0.0,0.0,0.0,0.0,0.0,0.0,0.0,0.0,0.0,0.0,0.0,0.0,0.0,0.0,0.0,0.0,0.0,0.0,0.0,0.0,0.0,0.0,0.0,0.0,0.0,0.0,0.0,0.0,0.0,0.0,0.0,0.0,0.0,0.0,0.0,0.0,0.0,0.0,0.0,0.0,0.0,0.0,0.0,0.0,0.0,0.0,0.0,0.0,0.0,0.0,0.0,0.0,0.0,0.0,0.0,0.0,0.0,0.0,0.0,0.0,0.0,0.0,0.0,0.0,0.0,0.0,0.0,0.0,0.0,0.0,0.0,0.0,0.0,0.0,0.0,0.0,0.0,0.0,-1.1599,-1.1496,-1.1287,0.0,0.0,0.0,0.0,0.0,0.0,0.0,0.0,0.0,0.0,0.0,0.0,0.0,0.0,0.0,0.0,0.0,0.0,0.0,0.0,0.0,0.0,0.0,0.0,0.0,0.0,0.0,0.0,0.0,0.0,0.0,0.0,0.0,0.0,0.0,0.0,0.0,0.0,0.0,0.0,0.0,0.0,0.0,0.0,0.0,0.0,0.0,0.0,0.0,0.0,0.0,0.0,0.0,0.0,0.0,0.0,0.0,0.0,0.0,0.0,0.0,0.0,0.0,0.0,0.0,0.0,0.0,0.0,0.0,0.0,0.0,0.0,0.0,0.0,0.0,0.0,0.0,0.0,0.0,0.0,0.0,0.0,0.0,0.0,0.0,0.0,0.0,0.0,0.0,0.0,0.0,0.0,0.0,0.0,0.0,0.0,0.0,0.0,0.0,0.0,0.0,0.0,0.0,0.0,0.0,0.0,0.0,0.0,0.0,0.0,-1.239,-1.2468,-1.2164,0.0,-1.1765,0.0,0.0,0.0,0.0,0.0,0.0,0.0,0.0,0.0,0.0,0.0,0.0,0.0,0.0,0.0,0.0,0.0,0.0,0.0,0.0,0.0,0.0,0.0,0.0,0.0,0.0,0.0,0.0,0.0,0.0,0.0,0.0,0.0,0.0,0.0,0.0,0.0,0.0,0.0,0.0,0.0,0.0,0.0,0.0,0.0,0.0,0.0,0.0,0.0,0.0,0.0,0.0,0.0,0.0,0.0,0.0,0.0,0.0,0.0,0.0,0.0,0.0,0.0,0.0,0.0,0.0,0.0,0.0,0.0,0.0,0.0,0.0,0.0,0.0,0.0,0.0,0.0,0.0,0.0,0.0,0.0,0.0,0.0,0.0,0.0,0.0,0.0,0.0,0.0,0.0,0.0,0.0,0.0,0.0,0.0,0.0,0.0,0.0,0.0,0.0,0.0,0.0,0.0,0.0,0.0,0.0,0.0,0.0,0.0,0.0,-1.3027,-1.3074,-1.2884,-1.2646,0.0,0.0,0.0,0.0,0.0,0.0,0.0,0.0,0.0,0.0,0.0,0.0,0.0,0.0,0.0,0.0,0.0,0.0,0.0,0.0,0.0,0.0,0.0,0.0,0.0,0.0,0.0,0.0,0.0,0.0,0.0,0.0,0.0,0.0,0.0,0.0,0.0,0.0,0.0,0.0,0.0,0.0,0.0,0.0,0.0,0.0,0.0,0.0,0.0,0.0,0.0,0.0,0.0,0.0,0.0,0.0,0.0,0.0,0.0,0.0,0.0,0.0,0.0,0.0,0.0,0.0,0.0,0.0,0.0,0.0,0.0,0.0,0.0,0.0,0.0,0.0,0.0,0.0,0.0,0.0,0.0,0.0,0.0,0.0,0.0,0.0,0.0,0.0,0.0,0.0,0.0,0.0,0.0,0.0,0.0,0.0,0.0,0.0,0.0,0.0,0.0,0.0,0.0,0.0,0.0,0.0,0.0,0.0,0.0,0.0,-1.3586,-1.3515,-1.3552,-1.3554,-1.3322,-1.2838,0.0,0.0,0.0,0.0,0.0,0.0,0.0,0.0,0.0,0.0,0.0,0.0,0.0,0.0,0.0,0.0,0.0,0.0,0.0,0.0,0.0,0.0,0.0,0.0,0.0,0.0,0.0,0.0,0.0,0.0,0.0,0.0,0.0,0.0,0.0,0.0,0.0,0.0,0.0,0.0,0.0,0.0,0.0,0.0,0.0,0.0,0.0,0.0,0.0,0.0,0.0,0.0,0.0,0.0,0.0,0.0,0.0,0.0,0.0,0.0,0.0,0.0,0.0,0.0,0.0,0.0,0.0,0.0,0.0,0.0,0.0,0.0,0.0,0.0,0.0,0.0,0.0,0.0,0.0,0.0,0.0,0.0,0.0,0.0,0.0,0.0,0.0,0.0,0.0,0.0,0.0,0.0,0.0,0.0,0.0,0.0,0.0,0.0,0.0,0.0,0.0,0.0,0.0,0.0,0.0,0.0,0.0,0.0,-1.3997,-1.3844,-1.3844,-1.3962,-1.4106,-1.3757,0.0,0.0,0.0,0.0,0.0,0.0,0.0,0.0,0.0,0.0,0.0,0.0,0.0,0.0,0.0,0.0,0.0,0.0,0.0,0.0,0.0,0.0,0.0,0.0,0.0,0.0,0.0,0.0,0.0,0.0,0.0,0.0,0.0,0.0,0.0,0.0,0.0,0.0,0.0,0.0,0.0,0.0,0.0,0.0,0.0,0.0,0.0,0.0,0.0,0.0,0.0,0.0,0.0,0.0,0.0,0.0,0.0,0.0,0.0,0.0,0.0,0.0,0.0,0.0,0.0,0.0,0.0,0.0,0.0,0.0,0.0,0.0,0.0,0.0,0.0,0.0,0.0,0.0,0.0,0.0,0.0,0.0,0.0,0.0,0.0,0.0,0.0,0.0,0.0,0.0,0.0,0.0,0.0,0.0,0.0,0.0,0.0,0.0,0.0,0.0,0.0,0.0,0.0,0.0,0.0,0.0,0.0,0.0,0.0,-1.414,-1.3986,-1.3939,-1.3997,-1.414,-1.3802,0.0,0.0,0.0,0.0,0.0,0.0,0.0,0.0,0.0,0.0,0.0,0.0,0.0,0.0,0.0,0.0,0.0,0.0,0.0,0.0,0.0,0.0,0.0,0.0,0.0,0.0,0.0,0.0,0.0,0.0,0.0,0.0,0.0,0.0,0.0,0.0,0.0,0.0,0.0,0.0,0.0,0.0,0.0,0.0,0.0,0.0,0.0,0.0,0.0,0.0,0.0,0.0,0.0,0.0,0.0,0.0,0.0,0.0,0.0,0.0,0.0,0.0,0.0,0.0,0.0,0.0,0.0,0.0,0.0,0.0,0.0,0.0,0.0,0.0,0.0,0.0,0.0,0.0,0.0,0.0,0.0,0.0,0.0,0.0,0.0,0.0,0.0,0.0,0.0,0.0,0.0,0.0,0.0,0.0,0.0,0.0,0.0,0.0,0.0,0.0,0.0,0.0,0.0,0.0,0.0,0.0,0.0,0.0,0.0,-1.4199,0.0,-1.4069,-1.4046,-1.421,-1.39,0.0,0.0,0.0,0.0,0.0,0.0,0.0,0.0,0.0,0.0,0.0,0.0,0.0,0.0,0.0,0.0,0.0,0.0,0.0,0.0,0.0,0.0,0.0,0.0,0.0,0.0,0.0,0.0,0.0,0.0,0.0,0.0,0.0,0.0,0.0,0.0,0.0,0.0,0.0,0.0,0.0,0.0,0.0,0.0,0.0,0.0,0.0,0.0,0.0,0.0,0.0,0.0,0.0,0.0,0.0,0.0,0.0,0.0,0.0,0.0,0.0,0.0,0.0,0.0,0.0,0.0,0.0,0.0,0.0,0.0,0.0,0.0,0.0,0.0,0.0,0.0,0.0,0.0,0.0,0.0,0.0,0.0,0.0,0.0,0.0,0.0,0.0,0.0,0.0,0.0,0.0,0.0,0.0,0.0,0.0,0.0,0.0,0.0,0.0,0.0,0.0,0.0,0.0,0.0,0.0,0.0,0.0,0.0,-1.4499,-1.4233,-1.421,-1.4253,-1.4221,-1.4336,-1.421,0.0,0.0,0.0,0.0,0.0,0.0,0.0,0.0,0.0,0.0,0.0,0.0,0.0,0.0,0.0,0.0,0.0,0.0,0.0,0.0,0.0,0.0,0.0,0.0,0.0,0.0,0.0,0.0,0.0,0.0,0.0,0.0,0.0,0.0,0.0,0.0,0.0,0.0,0.0,0.0,0.0,0.0,0.0,0.0,0.0,0.0,0.0,0.0,0.0,0.0,0.0,0.0,0.0,0.0,0.0,0.0,0.0,0.0,0.0,0.0,0.0,0.0,0.0,0.0,0.0,0.0,0.0,0.0,0.0,0.0,0.0,0.0,0.0,0.0,0.0,0.0,0.0,0.0,0.0,0.0,0.0,0.0,0.0,0.0,0.0,0.0,0.0,0.0,0.0,0.0,0.0,0.0,0.0,0.0,0.0,0.0,0.0,0.0,0.0,0.0,0.0,0.0,0.0,0.0,0.0,0.0,0.0,0.0,0.0,-1.4827,-1.4827,-1.4942,-1.5135,-1.4893,-1.4575,0.0,0.0,0.0,0.0,0.0,0.0,0.0,0.0,0.0,0.0,0.0,0.0,0.0,0.0,0.0,0.0,0.0,0.0,0.0,0.0,0.0,0.0,0.0,0.0,0.0,0.0,0.0,0.0,0.0,0.0,0.0,0.0,0.0,0.0,0.0,0.0,0.0,0.0,0.0,0.0,0.0,0.0,0.0,0.0,0.0,0.0,0.0,0.0,0.0,0.0,0.0,0.0,0.0,0.0,0.0,0.0,0.0,0.0,0.0,0.0,0.0,0.0,0.0,0.0,0.0,0.0,0.0,0.0,0.0,0.0,0.0,0.0,0.0,0.0,0.0,0.0,0.0,0.0,0.0,0.0,0.0,0.0,0.0,0.0,0.0,0.0,0.0,0.0,0.0,0.0,0.0,0.0,0.0,0.0,0.0,0.0,0.0,0.0,0.0,0.0,0.0,0.0,0.0,0.0,0.0,0.0,0.0,0.0,0.0,-1.6125,-1.593,-1.5821,-1.5866,-1.5694,-1.5337,-1.4752,0.0,0.0,0.0,0.0,0.0,0.0,0.0,0.0,0.0,0.0,0.0,0.0,0.0,0.0,0.0,0.0,0.0,0.0,0.0,0.0,0.0,0.0,0.0,0.0,0.0,0.0,0.0,0.0,0.0,0.0,0.0,0.0,0.0,0.0,0.0,0.0,0.0,0.0,0.0,0.0,0.0,0.0,0.0,0.0,0.0,0.0,0.0,0.0,0.0,0.0,0.0,0.0,0.0,0.0,0.0,0.0,0.0,0.0,0.0,0.0,0.0,0.0,0.0,0.0,0.0,0.0,0.0,0.0,0.0,0.0,0.0,0.0,0.0,0.0,0.0,0.0,0.0,0.0,0.0,0.0,0.0,0.0,0.0,0.0,0.0,0.0,0.0,0.0,0.0,0.0,0.0,0.0,0.0,0.0,0.0,0.0,0.0,0.0,0.0,0.0,0.0,0.0,0.0,0.0,0.0,0.0,0.0,0.0,-1.792,-1.7461,-1.7017,-1.6522,-1.6714,-1.638,0.0,0.0,0.0,0.0,0.0,0.0,0.0,0.0,0.0,0.0,0.0,0.0,0.0,0.0,0.0,0.0,0.0,0.0,0.0,0.0,0.0,0.0,0.0,0.0,0.0,0.0,0.0,0.0,0.0,0.0,0.0,0.0,0.0,0.0,0.0,0.0,0.0,0.0,0.0,0.0,0.0,0.0,0.0,0.0,0.0,0.0,0.0,0.0,0.0,0.0,0.0,0.0,0.0,0.0,0.0,0.0,0.0,0.0,0.0,0.0,0.0,0.0,0.0,0.0,0.0,0.0,0.0,0.0,0.0,0.0,0.0,0.0,0.0,0.0,0.0,0.0,0.0,0.0,0.0,0.0,0.0,0.0,0.0,0.0,0.0,0.0,0.0,0.0,0.0,0.0,0.0,0.0,0.0,0.0,0.0,0.0,0.0,0.0,0.0,0.0,0.0,0.0,0.0,0.0,0.0,0.0,0.0,0.0,0.0,-1.8611,-1.9595,-1.9579,-1.8468,-1.7835,-1.7192,0.0,0.0,0.0,0.0,0.0,0.0,0.0,0.0,0.0,0.0,0.0,0.0,0.0,0.0,0.0,0.0,0.0,0.0,0.0,0.0,0.0,0.0,0.0,0.0,0.0,0.0,0.0,0.0,0.0,0.0,0.0,0.0,0.0,0.0,0.0,0.0,0.0,0.0,0.0,0.0,0.0,0.0,0.0,0.0,0.0,0.0,0.0,0.0,0.0,0.0,0.0,0.0,0.0,0.0,0.0,0.0,0.0,0.0,0.0,0.0,0.0,0.0,0.0,0.0,0.0,0.0,0.0,0.0,0.0,0.0,0.0,0.0,0.0,0.0,0.0,0.0,0.0,0.0,0.0,0.0,0.0,0.0,0.0,0.0,0.0,0.0,0.0,0.0,0.0,0.0,0.0,0.0,0.0,0.0,0.0,0.0,0.0,0.0,0.0,0.0,0.0,0.0,0.0,0.0,0.0,0.0,0.0,0.0,-1.8108,-1.9493,-2.0802,-2.1243,-2.0687,-1.9437,-1.8205,0.0,0.0,0.0,0.0,0.0,0.0,0.0,0.0,0.0,0.0,0.0,0.0,0.0,0.0,0.0,0.0,0.0,0.0,0.0,0.0,0.0,0.0,0.0,0.0,0.0,0.0,0.0,0.0,0.0,0.0,0.0,0.0,0.0,0.0,0.0,0.0,0.0,0.0,0.0,0.0,0.0,0.0,0.0,0.0,0.0,0.0,0.0,0.0,0.0,0.0,0.0,0.0,0.0,0.0,0.0,0.0,0.0,0.0,0.0,0.0,0.0,0.0,0.0,0.0,0.0,0.0,0.0,0.0,0.0,0.0,0.0,0.0,0.0,0.0,0.0,0.0,0.0,0.0,0.0,0.0,0.0,0.0,0.0,0.0,0.0,0.0,0.0,0.0,0.0,0.0,0.0,0.0,0.0,0.0,0.0,0.0,0.0,0.0,0.0,0.0,0.0,0.0,0.0,0.0,0.0,0.0,0.0,0.0,-1.8545,-2.0527,-2.1585,-2.2375,-2.2777,-2.1257,-1.9431,0.0,0.0,0.0,0.0,0.0,0.0,0.0,0.0,0.0,0.0,0.0,0.0,0.0,0.0,0.0,0.0,0.0,0.0,0.0,0.0,0.0,0.0,0.0,0.0,0.0,0.0,0.0,0.0,0.0,0.0,0.0,0.0,0.0,0.0,0.0,0.0,0.0,0.0,0.0,0.0,0.0,0.0,0.0,0.0,0.0,0.0,0.0,0.0,0.0,0.0,0.0,0.0,0.0,0.0,0.0,0.0,0.0,0.0,0.0,0.0,0.0,0.0,0.0,0.0,0.0,0.0,0.0,0.0,0.0,0.0,0.0,0.0,0.0,0.0,0.0,0.0,0.0,0.0,0.0,0.0,0.0,0.0,0.0,0.0,0.0,0.0,0.0,0.0,0.0,0.0,0.0,0.0,0.0,0.0,0.0,0.0,0.0,0.0,0.0,0.0,0.0,0.0,0.0,0.0,0.0,0.0,0.0,0.0,-1.9551,-2.1527,-2.2983,-2.3764,-2.3867,-2.2364,-2.0622,0.0,0.0,0.0,0.0,0.0,0.0,0.0,0.0,0.0,0.0,0.0,0.0,0.0,0.0,0.0,0.0,0.0,0.0,0.0,0.0,0.0,0.0,0.0,0.0,0.0,0.0,0.0,0.0,0.0,0.0,0.0,0.0,0.0,0.0,0.0,0.0,0.0,0.0,0.0,0.0,0.0,0.0,0.0,0.0,0.0,0.0,0.0,0.0,-1.2088,0.0,0.0,0.0,0.0,0.0,0.0,0.0,0.0,0.0,0.0,0.0,0.0,0.0,0.0,0.0,0.0,0.0,0.0,0.0,0.0,0.0,0.0,0.0,0.0,0.0,0.0,0.0,0.0,0.0,0.0,0.0,0.0,0.0,0.0,0.0,0.0,0.0,0.0,0.0,0.0,0.0,0.0,0.0,0.0,0.0,0.0,0.0,0.0,0.0,0.0,0.0,0.0,0.0,0.0,0.0,0.0,0.0,0.0,0.0,-2.0133,-2.2155,-2.3932,-2.4813,-2.4705,-2.3675,-2.1922,0.0,0.0,0.0,0.0,0.0,0.0,0.0,0.0,0.0,0.0,0.0,0.0,0.0,0.0,0.0,0.0,0.0,0.0,0.0,0.0,0.0,0.0,0.0,0.0,0.0,0.0,0.0,0.0,0.0,0.0,0.0,0.0,0.0,0.0,0.0,0.0,0.0,0.0,0.0,0.0,0.0,0.0,0.0,0.0,0.0,0.0,0.0,0.0,0.0,0.0,0.0,0.0,0.0,0.0,0.0,0.0,0.0,0.0,0.0,0.0,0.0,0.0,0.0,0.0,0.0,0.0,0.0,0.0,0.0,0.0,0.0,0.0,0.0,0.0,0.0,0.0,0.0,0.0,0.0,0.0,0.0,0.0,0.0,0.0,0.0,0.0,0.0,0.0,0.0,0.0,0.0,0.0,0.0,0.0,0.0,0.0,0.0,0.0,0.0,0.0,0.0,0.0,0.0,0.0,0.0,0.0,0.0,-1.8357,-2.06,-2.2589,-2.4566,-2.548,-2.5271,-2.4687,-2.2981,-2.0051,0.0,0.0,0.0,0.0,0.0,0.0,0.0,0.0,0.0,0.0,0.0,0.0,0.0,0.0,0.0,0.0,0.0,0.0,0.0,0.0,0.0,0.0,0.0,0.0,0.0,0.0,0.0,0.0,0.0,0.0,0.0,0.0,0.0,0.0,0.0,0.0,0.0,0.0,-0.9682,-1.0308,0.0,0.0,0.0,0.0,0.0,0.0,0.0,0.0,-1.3077,0.0,0.0,0.0,0.0,0.0,0.0,0.0,0.0,0.0,0.0,0.0,0.0,0.0,0.0,0.0,0.0,0.0,0.0,0.0,0.0,0.0,0.0,0.0,0.0,0.0,0.0,0.0,0.0,0.0,0.0,0.0,0.0,0.0,0.0,0.0,0.0,0.0,0.0,0.0,0.0,0.0,0.0,0.0,0.0,0.0,0.0,0.0,0.0,0.0,0.0,0.0,0.0,0.0,0.0,0.0,0.0,-1.7099,-1.9463,-2.1459,-2.3062,-2.4684,-2.5419,-2.5199,-2.4316,-2.2912,-2.0983,0.0,0.0,0.0,0.0,0.0,0.0,0.0,0.0,0.0,0.0,0.0,0.0,0.0,0.0,0.0,0.0,0.0,0.0,0.0,0.0,0.0,0.0,0.0,0.0,0.0,0.0,0.0,0.0,0.0,0.0,0.0,0.0,0.0,0.0,0.0,0.0,0.0,0.0,0.0,-1.1411,-1.1678,0.0,0.0,0.0,0.0,0.0,0.0,0.0,0.0,-1.3556,0.0,0.0,0.0,0.0,0.0,0.0,0.0,0.0,0.0,0.0,0.0,0.0,0.0,0.0,0.0,0.0,0.0,0.0,0.0,0.0,0.0,0.0,0.0,0.0,0.0,0.0,0.0,0.0,0.0,0.0,0.0,0.0,0.0,0.0,0.0,0.0,0.0,0.0,0.0,0.0,0.0,0.0,0.0,0.0,0.0,0.0,0.0,0.0,0.0,0.0,0.0,0.0,0.0,0.0,0.0,-1.7654,-1.9993,-2.1994,-2.3492,-2.5004,-2.5609,-2.5155,-2.4061,-2.2696,0.0,0.0,0.0,0.0,0.0,0.0,0.0,0.0,0.0,0.0,0.0,0.0,0.0,0.0,0.0,0.0,0.0,0.0,0.0,0.0,0.0,0.0,0.0,0.0,0.0,0.0,0.0,0.0,0.0,0.0,0.0,0.0,0.0,0.0,0.0,0.0,0.0,0.0,0.0,0.0,-1.1885,-1.202,-1.263,0.0,0.0,0.0,0.0,0.0,0.0,-1.351,-1.3724,0.0,0.0,0.0,0.0,0.0,0.0,0.0,0.0,0.0,0.0,0.0,0.0,0.0,0.0,0.0,0.0,0.0,0.0,0.0,0.0,0.0,0.0,0.0,0.0,0.0,0.0,0.0,0.0,0.0,0.0,0.0,0.0,0.0,0.0,0.0,0.0,0.0,0.0,0.0,0.0,0.0,0.0,0.0,0.0,0.0,0.0,0.0,0.0,0.0,0.0,0.0,0.0,0.0,0.0,0.0,-1.824,-2.0587,-2.2474,-2.3815,-2.5227,-2.5625,-2.4933,-2.3785,-2.2392,0.0,0.0,0.0,0.0,0.0,0.0,0.0,0.0,0.0,0.0,0.0,0.0,0.0,0.0,0.0,0.0,0.0,0.0,0.0,0.0,0.0,0.0,0.0,0.0,0.0,0.0,0.0,0.0,0.0,0.0,0.0,0.0,0.0,0.0,0.0,0.0,0.0,0.0,0.0,0.0,0.0,-1.2583,-1.2946,-1.3099,0.0,0.0,0.0,0.0,-1.3783,-1.3904,0.0,0.0,0.0,0.0,0.0,0.0,0.0,0.0,0.0,0.0,0.0,0.0,0.0,0.0,0.0,0.0,0.0,0.0,0.0,0.0,0.0,0.0,0.0,0.0,0.0,0.0,0.0,0.0,0.0,0.0,0.0,0.0,0.0,0.0,0.0,0.0,0.0,0.0,0.0,0.0,0.0,0.0,0.0,0.0,0.0,0.0,0.0,0.0,0.0,0.0,0.0,0.0,0.0,0.0,0.0,0.0,-1.9674,-2.1527,-2.2964,-2.3968,-2.49,-2.5073,-2.4397,-2.3228,-2.2067,0.0,0.0,0.0,0.0,0.0,0.0,0.0,0.0,0.0,0.0,0.0,0.0,0.0,0.0,0.0,0.0,0.0,0.0,0.0,0.0,0.0,0.0,0.0,0.0,0.0,0.0,0.0,0.0,0.0,0.0,0.0,0.0,0.0,0.0,0.0,0.0,0.0,0.0,0.0,0.0,0.0,-1.3791,-1.339,-1.3758,-1.392,0.0,0.0,-1.4391,-1.4458,-1.4938,0.0,0.0,0.0,0.0,0.0,0.0,0.0,0.0,0.0,0.0,0.0,0.0,0.0,0.0,0.0,0.0,0.0,0.0,0.0,0.0,0.0,0.0,0.0,0.0,0.0,0.0,0.0,0.0,0.0,0.0,0.0,0.0,0.0,0.0,0.0,0.0,0.0,0.0,0.0,0.0,0.0,0.0,0.0,0.0,0.0,0.0,0.0,0.0,0.0,0.0,0.0,0.0,0.0,0.0,0.0,-1.8796,-2.0131,-2.1694,-2.3046,-2.4226,-2.4463,-2.4428,-2.4131,-2.2615,-2.14,0.0,0.0,0.0,0.0,0.0,0.0,0.0,0.0,0.0,0.0,0.0,0.0,0.0,0.0,0.0,0.0,0.0,0.0,0.0,0.0,0.0,0.0,0.0,0.0,0.0,0.0,0.0,0.0,0.0,0.0,0.0,0.0,0.0,0.0,0.0,0.0,0.0,0.0,0.0,0.0,0.0,0.0,-1.4531,-1.4732,0.0,0.0,0.0,-1.5066,-1.5108,0.0,0.0,0.0,0.0,0.0,0.0,0.0,0.0,0.0,0.0,0.0,0.0,0.0,0.0,0.0,0.0,0.0,0.0,0.0,0.0,0.0,0.0,0.0,0.0,0.0,0.0,0.0,0.0,0.0,0.0,0.0,0.0,0.0,0.0,0.0,0.0,0.0,0.0,0.0,0.0,0.0,0.0,0.0,0.0,0.0,0.0,0.0,0.0,0.0,0.0,0.0,0.0,0.0,0.0,0.0,0.0,0.0,-2.0459,-2.1816,-2.317,-2.4391,-2.4234,-2.4038,-2.3827,-2.2156,0.0,0.0,0.0,0.0,0.0,0.0,0.0,0.0,0.0,0.0,0.0,0.0,0.0,0.0,0.0,0.0,0.0,0.0,0.0,0.0,0.0,0.0,0.0,0.0,0.0,0.0,0.0,-1.2042,0.0,0.0,0.0,0.0,0.0,0.0,0.0,0.0,0.0,0.0,0.0,0.0,0.0,0.0,-1.5184,-1.5391,-1.5555,-1.5613,0.0,0.0,-1.5741,-1.5728,-1.5859,-1.5884,0.0,0.0,0.0,0.0,0.0,0.0,0.0,0.0,0.0,0.0,0.0,0.0,0.0,0.0,0.0,0.0,0.0,0.0,0.0,0.0,0.0,0.0,0.0,0.0,0.0,0.0,0.0,0.0,0.0,0.0,0.0,0.0,0.0,0.0,0.0,0.0,0.0,0.0,0.0,0.0,0.0,0.0,0.0,0.0,0.0,0.0,0.0,0.0,0.0,0.0,0.0,0.0,0.0,0.0,0.0,-2.0947,-2.2212,-2.3363,-2.4364,-2.4436,-2.4127,-2.345,-2.2104,-2.1133,0.0,0.0,0.0,0.0,0.0,0.0,0.0,0.0,0.0,0.0,0.0,0.0,0.0,0.0,0.0,0.0,0.0,0.0,0.0,0.0,0.0,0.0,0.0,0.0,0.0,0.0,0.0,0.0,0.0,0.0,0.0,0.0,0.0,0.0,0.0,0.0,0.0,0.0,0.0,0.0,0.0,-1.6242,-1.5584,-1.5983,-1.6127,0.0,0.0,-1.6336,-1.6356,-1.6869,-1.6916,-1.5864,0.0,0.0,0.0,0.0,0.0,0.0,0.0,0.0,0.0,0.0,0.0,0.0,0.0,0.0,0.0,0.0,0.0,0.0,0.0,0.0,0.0,0.0,0.0,0.0,0.0,0.0,0.0,0.0,0.0,0.0,0.0,0.0,0.0,0.0,0.0,0.0,0.0,0.0,0.0,0.0,0.0,0.0,0.0,0.0,0.0,0.0,0.0,0.0,0.0,0.0,0.0,0.0,0.0,-2.0294,-2.1653,-2.2432,-2.3433,-2.4646,-2.4119,-2.3779,-2.3791,-2.201,-2.0993,0.0,0.0,0.0,0.0,0.0,0.0,0.0,0.0,0.0,0.0,0.0,0.0,0.0,0.0,0.0,0.0,0.0,0.0,0.0,0.0,0.0,0.0,0.0,0.0,0.0,0.0,0.0,0.0,-1.424,-1.434,-1.4674,0.0,0.0,0.0,0.0,0.0,0.0,0.0,0.0,0.0,0.0,-1.6606,-1.6665,-1.6869,0.0,0.0,-1.6916,-1.7089,-1.7089,-1.7043,-1.6776,-1.6011,-1.5765,0.0,0.0,0.0,0.0,0.0,0.0,0.0,0.0,0.0,0.0,0.0,0.0,0.0,0.0,0.0,0.0,0.0,0.0,0.0,0.0,0.0,0.0,0.0,0.0,0.0,0.0,0.0,0.0,0.0,0.0,0.0,0.0,0.0,0.0,0.0,0.0,0.0,0.0,0.0,0.0,0.0,0.0,0.0,0.0,0.0,0.0,0.0,0.0,0.0,0.0,0.0,0.0,-2.0755,-2.2243,-2.2695,-2.3577,-2.4902,-2.4072,-2.3713,-2.3874,-2.2039,-2.1071,0.0,0.0,0.0,0.0,0.0,0.0,0.0,0.0,0.0,0.0,0.0,0.0,0.0,0.0,0.0,0.0,0.0,0.0,0.0,0.0,0.0,0.0,0.0,0.0,0.0,0.0,0.0,0.0,-1.4589,-1.4626,-1.4928,0.0,0.0,0.0,0.0,0.0,0.0,0.0,0.0,0.0,0.0,-1.7097,-1.7387,-1.7419,-1.7432,-1.7419,-1.7481,-1.7529,-1.755,-1.7183,-1.674,-1.6268,0.0,0.0,0.0,0.0,0.0,0.0,0.0,0.0,0.0,0.0,0.0,0.0,0.0,0.0,0.0,0.0,0.0,0.0,0.0,0.0,0.0,0.0,0.0,0.0,0.0,0.0,0.0,0.0,0.0,0.0,-2.3171,0.0,0.0,0.0,0.0,0.0,0.0,0.0,0.0,0.0,0.0,0.0,0.0,0.0,0.0,0.0,0.0,0.0,0.0,0.0,0.0,0.0,0.0,-2.1315,-2.2558,-2.3008,-2.3771,-2.4935,-2.4403,-2.3995,-2.3806,-2.2299,-2.1481,-2.143,0.0,0.0,0.0,0.0,0.0,0.0,0.0,0.0,0.0,0.0,0.0,0.0,0.0,0.0,0.0,0.0,0.0,0.0,0.0,0.0,0.0,0.0,0.0,0.0,0.0,0.0,-1.5487,-1.4767,-1.4343,0.0,0.0,0.0,0.0,0.0,0.0,0.0,0.0,0.0,0.0,-1.7489,-1.7774,-1.7537,-1.7496,-1.7496,-1.7496,-1.7496,-1.757,-1.7679,-1.736,-1.6972,0.0,0.0,0.0,0.0,0.0,0.0,0.0,0.0,0.0,0.0,0.0,0.0,0.0,0.0,0.0,0.0,0.0,0.0,0.0,0.0,0.0,0.0,0.0,0.0,0.0,0.0,0.0,-2.6064,-2.5536,0.0,0.0,0.0,0.0,0.0,0.0,0.0,0.0,0.0,0.0,0.0,-2.5018,-2.5426,0.0,0.0,0.0,0.0,0.0,0.0,0.0,0.0,0.0,0.0,0.0,0.0,-2.2101,-2.322,-2.3724,-2.4286,-2.4978,-2.4593,-2.4261,-2.4011,-2.2596,-2.125,-2.0003,0.0,0.0,0.0,0.0,0.0,0.0,0.0,0.0,0.0,0.0,0.0,0.0,0.0,0.0,0.0,0.0,0.0,0.0,0.0,0.0,0.0,0.0,0.0,0.0,0.0,-1.6105,0.0,0.0,0.0,0.0,0.0,0.0,0.0,0.0,0.0,0.0,0.0,-1.6949,-1.7227,-1.7744,-1.8023,-1.7788,-1.7767,-1.7727,0.0,0.0,0.0,0.0,0.0,0.0,0.0,0.0,0.0,0.0,0.0,0.0,0.0,0.0,-1.872,-1.8687,-1.902,-1.9145,-1.8587,0.0,0.0,0.0,0.0,0.0,0.0,0.0,0.0,0.0,0.0,0.0,0.0,0.0,0.0,-2.811,0.0,-2.7029,0.0,0.0,0.0,0.0,0.0,0.0,0.0,0.0,-2.583,-2.6321,-2.6733,-2.7349,-2.7506,0.0,-2.7183,-2.605,0.0,0.0,0.0,0.0,0.0,0.0,0.0,0.0,-2.3053,-2.3984,-2.4308,-2.4709,-2.5132,-2.485,-2.4565,-2.4361,-2.2988,-2.1471,-1.9794,-1.966,-1.946,0.0,0.0,0.0,0.0,0.0,0.0,0.0,0.0,0.0,0.0,0.0,0.0,0.0,0.0,0.0,0.0,0.0,0.0,0.0,0.0,0.0,0.0,0.0,-1.599,0.0,0.0,0.0,0.0,0.0,0.0,0.0,0.0,0.0,-1.6907,-1.706,-1.7345,-1.7862,-1.8198,-1.8333,-1.8143,0.0,0.0,0.0,0.0,0.0,0.0,0.0,-1.7877,-1.8175,-1.7929,-1.7853,-1.8257,-1.8616,-1.9036,-1.9564,0.0,0.0,-1.8943,-1.9202,-1.9311,-1.8715,-1.8576,-1.8576,-1.8576,-1.8962,-1.938,0.0,0.0,0.0,0.0,0.0,0.0,0.0,0.0,-2.9527,-2.9701,0.0,-2.9012,0.0,0.0,0.0,0.0,0.0,-2.6872,0.0,0.0,-2.7986,-2.8232,-2.8315,-2.8927,-2.9313,-2.9411,-2.887,-2.833,-2.7777,-2.6033,0.0,0.0,0.0,0.0,0.0,0.0,-2.4235,-2.4822,-2.4865,-2.5077,-2.5522,-2.5229,-2.4962,-2.4684,-2.3458,-2.2141,-2.0861,-2.0294,-2.0088,-2.0217,-1.9555,0.0,0.0,0.0,0.0,0.0,0.0,0.0,0.0,0.0,0.0,0.0,0.0,0.0,0.0,0.0,0.0,0.0,0.0,0.0,0.0,-1.6535,0.0,0.0,0.0,0.0,0.0,0.0,0.0,0.0,0.0,0.0,-1.7253,-1.7818,-1.839,-1.8849,0.0,0.0,0.0,0.0,-1.8327,-1.8208,-1.8274,-1.8383,-1.8572,-1.8302,-1.8187,-1.8584,0.0,0.0,-1.9161,-1.9857,-2.0241,-2.0289,-2.0273,-2.0287,-2.0256,-2.0225,-2.0073,-1.9472,-1.9333,-1.9333,-1.9333,-1.938,-1.9582,-3.2818,0.0,0.0,0.0,0.0,-3.0857,-3.1217,-3.1073,-3.1598,-3.1749,-3.1541,-3.0474,0.0,0.0,0.0,0.0,0.0,0.0,-2.8458,-2.9301,-2.9495,-2.9753,-3.0121,-3.0334,-3.0516,-3.0666,-3.0513,-3.0173,-2.9684,-2.8745,-2.7074,-2.4781,0.0,0.0,0.0,0.0,-2.4996,-2.5558,-2.5924,-2.6148,-2.6272,-2.6002,-2.5102,-2.3555,-2.3044,-2.2206,-2.1012,-2.0752,-2.0673,-2.0769,-2.0525,0.0,0.0,0.0,0.0,0.0,0.0,0.0,0.0,0.0,0.0,0.0,0.0,0.0,0.0,0.0,0.0,0.0,0.0,0.0,-1.7042,-1.6804,-1.6359,0.0,0.0,0.0,0.0,0.0,0.0,0.0,0.0,0.0,-1.8468,-1.8529,-1.8714,0.0,0.0,-1.9681,-1.8893,-1.9125,-1.9154,-1.8565,-1.8592,0.0,0.0,-1.8993,-1.914,-1.9334,-1.9431,-1.9579,-1.9946,-2.0165,-2.0287,-2.0287,-2.0287,-2.0287,-2.0287,-2.0287,-2.0243,-2.0042,-2.0011,-2.001,-2.0011,-2.0061,-2.0124,-3.6315,-3.4428,-3.2788,-3.1978,-3.1845,-3.293,-3.3317,-3.3197,-3.365,-3.3726,-3.3529,-3.2221,-3.1592,-3.1536,-3.0347,0.0,0.0,0.0,-3.0047,-3.0675,-3.0893,-3.1185,-3.1485,-3.1756,-3.1915,-3.2004,-3.18,-3.1525,-3.1227,-3.0389,-2.8914,-2.6849,0.0,0.0,-2.5569,-2.5921,-2.63,-2.6638,-2.6946,-2.6931,-2.6608,-2.6144,-2.5189,-2.3701,-2.3284,-2.2638,-2.1657,-2.1179,-2.0985,-2.1071,-2.0985,-2.0733,0.0,0.0,0.0,0.0,0.0,0.0,0.0,0.0,0.0,0.0,0.0,-1.7365,0.0,0.0,0.0,0.0,-1.7672,-1.7451,-1.6975,-1.6992,0.0,0.0,0.0,0.0,0.0,0.0,0.0,-1.8237,-1.8746,-1.9285,-1.9823,-1.9797,-1.9806,-2.0012,-2.0601,-2.0763,-2.0094,0.0,-2.034,-1.9787,-1.9822,-1.9846,-1.9723,-1.9894,-2.0025,-1.9881,-2.0028,-2.0202,-2.0287,-2.0287,-2.0287,-2.0287,-2.0287,-2.0287,-2.0287,-2.0287,-2.0287,-2.0287,-2.0287,-2.0287,-2.0287,-2.0371,-2.039,-3.9349,-3.9088,-3.6112,-3.4472,-3.3978,-3.4967,-3.5373,-3.5302,-3.5567,-3.5611,-3.5433,-3.4057,-3.3375,-3.322,-3.2145,0.0,-3.1626,-3.1626,-3.1696,-3.1808,-3.237,-3.2595,-3.2581,-3.308,-3.3333,-3.3276,-3.275,-3.2483,-3.2412,-3.1227,-3.0343,-2.9813,-2.8647,-2.8002,-2.7819,-2.7791,-2.7833,-2.7876,-2.7876,-2.7479,-2.6692,-2.5966,-2.526,-2.4623,-2.3883,-2.3214,-2.2599,-2.1565,-2.1057,-2.1166,-2.1071,-2.0831,-2.0479,0.0,0.0,0.0,0.0,0.0,0.0,0.0,0.0,0.0,0.0,0.0,0.0,0.0,0.0,0.0,-1.8058,0.0,-1.7353,-1.7337,0.0,0.0,0.0,-1.7343,-1.7617,-1.7935,-1.8407,-1.9083,0.0,0.0,-2.1134,-2.1396,-2.1384,-2.1215,-2.1637,-2.1907,-2.1748,-2.169,-2.164,-2.1396,-2.1501,-2.1401,-2.0722,-2.0674,-2.0546,-2.0172,-2.0235,-2.0287,-2.0287,-2.0287,-2.0287,-2.0287,-2.0287,-2.0287,-2.0287,-2.0287,-2.0287,-2.0287,-2.0287,-2.0287,-2.0304,-2.0356,-2.0424,-4.0641,-4.0525,-3.9276,-3.8115,-3.7157,-3.7904,-3.7774,-3.7043,-3.7082,-3.6656,-3.5911,-3.5091,-3.4197,-3.3262,-3.3016,-3.289,-3.2876,-3.289,-3.3396,-3.4303,-3.4458,-3.4253,-3.3782,-3.3908,-3.374,-3.3304,-3.3122,-3.3066,-3.3038,-3.2328,-3.1893,-3.171,-3.0979,-2.9659,-2.7876,-2.7805,-2.803,-2.8478,-2.8478,-2.811,-2.7319,-2.6662,-2.58,-2.4637,-2.3883,-2.3214,-2.2624,-2.1576,-2.1071,-2.118,-2.101,-2.0908,-2.0871,-2.0576,0.0,0.0,0.0,0.0,0.0,0.0,0.0,0.0,0.0,-1.8126,-1.8631,0.0,-1.8814,0.0,-1.9519,-1.9408,-1.9185,-1.9335,0.0,0.0,-1.9532,-1.9928,-1.9842,-2.0007,-2.0219,-2.0551,-2.074,-2.0934,-2.1257,-2.2197,-2.279,-2.2766,-2.279,-2.2615,-2.2046,-2.2345,-2.239,-2.1938,-2.1833,-2.1596,-2.0967,-2.0503,-2.0296,-2.0266,-2.0272,-2.0287,-2.0287,-2.0287,-2.0287,-2.0287,-2.0287,-2.0287,-2.0287,-2.0287,-2.0287,-2.0287,-2.0287,-2.0287,-2.0287,-2.0392,-2.0477,-4.1732,-4.136,-4.0943,-4.0354,-3.9639,-3.9516,-3.8898,-3.8,-3.7894,-3.7384,-3.6598,-3.5902,-3.5062,-3.4155,-3.4126,-3.4126,-3.414,-3.4176,-3.4542,-3.5175,-3.5189,-3.5006,-3.4632,-3.4329,-3.402,-3.3683,-3.3403,-3.3276,-3.3262,-3.2988,-3.2679,-3.2398,-3.2075,-3.1078,-2.9521,-2.9139,-2.904,-2.9097,-2.883,-2.8491,-2.8022,-2.7155,-2.6302,-2.5494,-2.45,-2.3788,-2.3341,-2.2408,-2.1946,-2.1983,-2.1883,-2.1857,-2.1882,-2.1839,-2.1518,0.0,0.0,0.0,0.0,0.0,0.0,0.0,0.0,0.0,0.0,0.0,-1.951,-1.9948,-1.9984,-1.9998,-1.9976,-2.0185,-2.0225,-2.0109,-2.0664,-2.1009,-2.0995,-2.1218,-2.1379,-2.1515,-2.1661,-2.1858,-2.2166,-2.2825,-2.3425,-2.3702,-2.3692,-2.3488,-2.3142,-2.3325,-2.3381,-2.3016,-2.2716,-2.2167,-2.1252,-2.0592,-2.022,-2.0287,-2.0287,-2.0287,-2.0287,-2.0287,-2.0287,-2.0287,-2.0287,-2.0287,-2.0287,-2.0287,-2.0287,-2.0287,-2.0287,-2.0287,-2.0287,-2.0407,-2.051,-4.2447,-4.1702,-4.166,-4.1549,-4.1254,-4.0359,-3.9459,-3.8589,-3.8391,-3.7915,-3.7236,-3.6531,-3.5878,-3.5316,-3.5302,-3.5302,-3.5302,-3.5302,-3.5344,-3.5428,-3.5428,-3.5386,-3.5273,-3.4646,-3.4273,-3.4189,-3.3571,-3.3276,-3.3276,-3.3276,-3.3045,-3.2539,-3.2525,-3.2216,-3.1597,-3.0979,-3.0273,-2.9617,-2.9083,-2.8774,-2.8675,-2.7551,-2.6834,-2.6595,-2.5314,-2.4555,-2.4326,-2.3499,-2.3016,-2.3016,-2.3016,-2.3016,-2.3016,-2.3332,-2.2997,0.0,-2.2045,0.0,0.0,0.0,0.0,0.0,0.0,0.0,0.0,-2.0235,-2.0263,-2.0233,-2.0255,-2.0321,-2.043,-2.0561,-2.0734,-2.0926,-2.1228,-2.1533,-2.1752,-2.1979,-2.2154,-2.2221,-2.2336,-2.2655,-2.3163,-2.3363,-2.3671,-2.4128,-2.4235,-2.4143,-2.4133,-2.4051,-2.4035,-2.4179,-2.3517,-2.2371,-2.1452,-2.0734,-2.0287,-2.0287,-2.0287,-2.0287,-2.0287,-2.0287,-2.0287,-2.0287,-2.0287,-2.0287,-2.0287,-2.0287,-2.0287,-2.0287,-2.0287,-2.0287,-2.0304,-2.0424,-2.0494,-4.2335,-4.1702,-4.1507,-4.1283,-4.1071,-4.083,-4.012,-3.9057,-3.9017,-3.8286,-3.707,-3.6891,-3.6511,-3.5949,-3.5934,-3.5934,-3.5934,-3.5934,-3.6202,-3.6666,-3.668,-3.6374,-3.5906,-3.5302,-3.4731,-3.4189,-3.3571,-3.3276,-3.3276,-3.3276,-3.322,-3.3108,-3.3122,-3.2848,-3.223,0.0,0.0,0.0,-2.949,-2.9195,-2.8703,-2.8002,-2.734,-2.675,-2.5464,0.0,-2.4528,-2.3699,-2.3162,-2.3003,-2.3016,0.0,0.0,0.0,0.0,0.0,0.0,0.0,0.0,0.0,0.0,0.0,-2.3252,-2.2622,-2.1091,-2.1461,-2.1695,-2.1471,-2.1671,-2.1741,-2.1671,-2.1879,-2.2099,-2.2235,-2.2533,-2.2841,-2.3079,-2.2947,-2.2823,-2.2908,-2.3042,-2.3163,-2.3317,-2.3763,-2.4148,-2.4271,-2.4281,-2.4087,-2.3579,-2.3533,-2.3502,-2.3409,-2.2505,-2.1658,-2.1334,-2.0718,-2.0287,-2.0287,-2.0287,-2.0287,-2.0287,-2.0287,-2.0287,-2.0287,-2.0287,-2.0287,-2.0287,-2.0287,-2.0287,-2.0287,-2.0287,-2.0287,-2.0304,-2.0409,-2.051,-4.2696,0.0,-4.1439,-4.1071,0.0,-4.0845,-4.0322,-3.9476,-3.9166,-3.8279,-3.6993,-3.6978,-3.6849,-3.6553,-3.6567,-3.6567,-3.6515,-3.6529,-3.6722,-3.6978,-3.6978,-3.6824,-3.6539,-3.5934,-3.5316,-3.4674,-3.4048,-3.3585,-3.3304,-3.3276,-3.3276,-3.3276,-3.3276,-3.3136,-3.2848,-3.1949,-3.0867,-2.9617,-2.9602,-2.9462,-2.9125,-2.8254,-2.7592,-2.7127,0.0,0.0,0.0,0.0,0.0,0.0,0.0,0.0,0.0,0.0,0.0,-2.4034,-2.4191,-2.4221,-2.3942,-2.3965,-2.3991,-2.3991,-2.4053,-2.3533,-2.2184,-2.2428,-2.246,-2.2048,-2.2123,-2.2184,-2.2114,-2.2347,-2.2532,-2.2615,-2.291,-2.3164,-2.3355,-2.3347,-2.3362,-2.3528,-2.3667,-2.3749,-2.381,-2.4051,-2.4281,-2.4287,-2.401,-2.3686,-2.3379,-2.3286,-2.3117,-2.2443,-2.1827,-2.1196,-2.0857,-2.0564,-2.0287,-2.0287,-2.0287,-2.0287,-2.0287,-2.0287,-2.0287,-2.0287,-2.0287,-2.0287,-2.0287,-2.0287,-2.0287,-2.0287,-2.0287,-2.0287,-2.0304,-2.039,-2.0475,-4.3041,-4.2195,-4.1298,-4.0845,-4.0702,-4.0702,-4.035,-3.9746,0.0,0.0,0.0,-3.7035,-3.6978,-3.6978,-3.6978,-3.6978,-3.6978,-3.6978,-3.6978,-3.6978,-3.6978,-3.6978,-3.695,-3.6346,-3.585,-3.533,-3.459,-3.3936,-3.3459,-3.3347,-3.3276,-3.3276,-3.3276,-3.322,-3.3052,-3.2061,-3.0923,-2.9813,-2.9659,-2.956,-2.942,-2.8352,-2.7647,-2.739,-2.6302,-2.5591,-2.5314,-2.5286,-2.523,-2.5103,-2.5103,-2.509,-2.5103,-2.5369,-2.5301,-2.4789,-2.4975,-2.495,-2.4458,-2.4416,-2.4416,-2.4416,-2.4416,-2.4092,-2.3322,-2.3168,-2.2901,-2.2405,-2.2264,-2.2194,-2.2194,-2.2417,-2.2578,-2.2601,-2.2865,-2.3135,-2.3275,-2.348,-2.3651,-2.394,-2.4057,-2.4208,-2.4245,-2.4266,-2.4281,-2.4204,-2.3763,-2.3148,-2.2994,-2.2855,-2.2409,-2.1396,-2.1088,-2.0903,-2.0489,-2.0302,-2.0287,-2.0287,-2.0287,-2.0287,-2.0287,-2.0287,-2.0287,-2.0287,-2.0287,-2.0287,-2.0287,-2.0287,-2.0287,-2.0287,-2.0287,-2.0287,-2.0304,-2.0354,-2.0407,-4.2852,-4.1951,-4.1127,-4.073,-4.0702,-4.0702,-4.035,-3.969,-3.8552,-3.7948,-3.7737,-3.7217,-3.6978,-3.6978,-3.6978,-3.6978,-3.6978,-3.6978,-3.6978,-3.6978,-3.6978,-3.6978,-3.695,-3.6399,-3.6061,-3.5892,-3.4787,-3.4161,-3.402,-3.3543,-3.3276,-3.3276,-3.3276,-3.3038,-3.2525,-3.1836,-3.112,-3.0371,-2.9883,-2.935,-2.8816,-2.8157,-2.7509,-2.6919,-2.6245,-2.5811,-2.5647,-2.5619,-2.5564,-2.5439,-2.5439,-2.5439,-2.5439,-2.5592,-2.5632,-2.5549,-2.5685,-2.5725,-2.5653,-2.5626,-2.564,-2.5667,-2.5667,-2.5189,-2.405,-2.3421,-2.3055,-2.2943,-2.2531,-2.2194,-2.2194,-2.2347,-2.2463,-2.2592,-2.2791,-2.3016,-2.326,-2.3443,-2.3653,-2.3818,-2.4061,-2.4202,-2.4208,-2.4255,-2.4281,-2.421,-2.3656,-2.2871,-2.1935,-2.1581,-2.1257,-2.0643,-2.0458,-2.0412,-2.0318,-2.0287,-2.0287,-2.0287,-2.0287,-2.0287,-2.0287,-2.0287,-2.0287,-2.0287,-2.0287,-2.0287,-2.0287,-2.0287,-2.0287,-2.0287,-2.0287,-2.0287,-2.0287,-2.0321,-2.0356,-4.3263,-4.2431,-4.1548,-4.1011,-4.0702,-4.0702,-4.0533,-4.021,-3.9311,-3.8761,-3.8369,-3.7751,-3.7484,-3.7456,-3.7133,-3.6978,-3.6978,-3.6978,-3.6978,-3.6978,-3.6978,-3.6978,-3.695,-3.6697,-3.6388,-3.6075,-3.5517,-3.4885,-3.4231,-3.3894,-3.3649,-3.3304,-3.3276,-3.315,-3.2876,-3.2286,-3.1682,-3.105,-3.0108,-2.9462,-2.9195,-2.8591,-2.7973,-2.7355,-2.6722,-2.6175,-2.5716,-2.5702,-2.5633,-2.5522,-2.5508,-2.5508,-2.5508,-2.5633,-2.5702,-2.5702,-2.5839,-2.5893,-2.5893,-2.5893,-2.5893,-2.5893,-2.5893,-2.5669,-2.5133,-2.4514,-2.3828,-2.3182,-2.2831,-2.2536,-2.225,-2.2324,-2.2463,-2.2578,-2.2752,-2.2947,-2.3157,-2.3341,-2.3486,-2.3674,-2.3925,-2.4124,-2.4202,-2.4255,-2.4281,-2.4225,-2.344,-2.227,-2.1013,-2.0749,-2.0674,-2.0381,-2.0287,-2.0287,-2.0287,-2.0287,-2.0287,-2.0287,-2.0287,-2.0287,-2.0287,-2.0287,-2.0287,-2.0287,-2.0287,-2.0287,-2.0287,-2.0287,-2.0287,-2.0287,-2.0287,-2.0287,-2.0287,-2.0321,-2.039,-4.36,-4.2768,-4.1956,-4.1264,-4.0716,-4.0702,-4.0702,-4.0659,-4.0182,-3.9718,-3.9212,-3.8468,-3.8116,-3.8046,-3.747,-3.7189,-3.7175,-3.7035,-3.6978,-3.6978,-3.6978,-3.6978,-3.6978,-3.6978,-3.6778,-3.6328,-3.6174,-3.5588,-3.4716,-3.4343,-3.3894,-3.3347,-3.3276,-3.3276,-3.3276,-3.2707,-3.2089,-3.1457,-3.0375,-2.9687,-2.9392,-2.8942,-2.8438,-2.7819,-2.7298,-2.6708,-2.6022,-2.5925,-2.5855,-2.5605,-2.5605,-2.5578,-2.5592,-2.5688,-2.5757,-2.5757,-2.5839,-2.5893,-2.5893,-2.5893,-2.5893,-2.5893,-2.5893,-2.5893,-2.5851,-2.5499,-2.4753,-2.3702,-2.3266,-2.2887,-2.2503,-2.2348,-2.2417,-2.2532,-2.2675,-2.2826,-2.3023,-2.3201,-2.3385,-2.3566,-2.3812,-2.4003,-2.4124,-2.4229,-2.4184,-2.3897,-2.304,-2.1858,-2.0798,-2.0443,-2.0287,-2.0287,-2.0287,-2.0287,-2.0287,-2.0287,-2.0287,-2.0287,-2.0287,-2.0287,-2.0287,-2.0287,-2.0287,-2.0287,-2.0287,-2.0287,-2.0287,-2.0287,-2.0287,-2.0287,-2.0287,-2.0287,-2.0287,-2.0321,-2.0405,-4.3404,-4.2559,-4.191,-4.125,-4.073,-4.0702,-4.0702,-4.0702,-4.0617,-4.0589,-4.035,-3.9297,-3.8832,-3.8733,-3.8143,-3.7821,-3.7765,-3.7245,-3.7021,-3.7007,-3.6978,-3.6978,-3.6978,-3.6978,-3.695,-3.681,-3.6399,-3.6061,-3.578,-3.4745,-3.3908,-3.3347,-3.3276,-3.3276,-3.322,-3.2736,-3.2117,-3.1499,-3.0764,-2.9897,-2.8858,-2.8717,-2.8408,-2.7819,-2.7749,-2.7383,-2.6736,-2.6708,-2.6441,-2.5922,-2.5867,-2.5853,-2.588,-2.5893,-2.5893,-2.5893,-2.5893,-2.5893,-2.5893,-2.5893,-2.5893,-2.5893,-2.5893,-2.5893,-2.5893,-2.5837,-2.5528,-2.4769,-2.3744,-2.3126,-2.2985,-2.2531,-2.2292,-2.2402,-2.2532,-2.2692,-2.2904,-2.3127,-2.3363,-2.3487,-2.3689,-2.3882,-2.4003,-2.413,-2.4004,-2.3548,-2.2825,-2.2028,-2.126,-2.061,-2.0287,-2.0287,-2.0287,-2.0287,-2.0287,-2.0287,-2.0287,-2.0287,-2.0287,-2.0287,-2.0287,-2.0287,-2.0287,-2.0287,-2.0287,-2.0287,-2.0287,-2.0287,-2.0287,-2.0287,-2.0287,-2.0287,-2.0287,-2.0304,-2.0356,-4.391,-4.3076,-4.2444,-4.1601,-4.0758,-4.0702,-4.0702,-4.0702,-4.0702,-4.0702,-4.0659,-4.0168,-3.976,-3.9422,-3.8749,-3.8468,-3.8494,-3.8255,-3.7878,-3.7555,-3.7526,-3.7344,-3.7007,-3.6978,-3.6978,-3.6978,-3.6764,-3.6431,-3.5911,-3.4843,-3.4062,-3.381,-3.3473,-3.3276,-3.3262,-3.3038,-3.2637,-3.2047,-3.1415,-3.0656,-2.9855,-2.942,-2.8942,-2.8394,-2.8354,-2.8058,-2.7453,-2.7383,-2.7102,-2.6497,-2.6427,-2.6273,-2.5921,-2.5893,-2.5893,-2.5893,-2.5893,-2.5893,-2.5893,-2.5893,-2.5893,-2.5893,-2.5893,-2.5893,-2.5893,-2.5893,-2.5794,-2.543,-2.439,-2.3558,-2.315,-2.2573,-2.2254,-2.2379,-2.2509,-2.2661,-2.2834,-2.3112,-2.3334,-2.34,-2.3625,-2.3839,-2.3988,-2.4151,-2.3963,-2.3379,-2.2736,-2.2105,-2.1411,-2.0718,-2.0333,-2.0287,-2.0287,-2.0287,-2.0287,-2.0287,-2.0287,-2.0287,-2.0287,-2.0287,-2.0287,-2.0287,-2.0287,-2.0287,-2.0287,-2.0287,-2.0287,-2.0287,-2.0287,-2.0287,-2.0287,-2.0287,-2.0287,-2.0287,-2.0339,-4.4245,-4.3413,-4.2654,-4.1685,-4.073,-4.0702,-4.0702,-4.0702,-4.0702,-4.0702,-4.0702,-4.0702,-4.0463,-3.9985,-3.9436,-3.9155,-3.9155,-3.8986,-3.8649,-3.8187,-3.8173,-3.7835,-3.7274,-3.7231,-3.7147,-3.7007,-3.6978,-3.6655,-3.6047,-3.5026,-3.4407,-3.4147,-3.3585,-3.3276,-3.3276,-3.3276,-3.3016,-3.2426,-3.1949,-3.1359,-3.0572,-3.0094,-2.9574,-2.9012,-2.8942,-2.8661,-2.8057,-2.8058,-2.7734,-2.7116,-2.7074,-2.6793,-2.6202,-2.6146,-2.6076,-2.5907,-2.5893,-2.5893,-2.5893,-2.5893,-2.5893,-2.5893,-2.5893,-2.5893,-2.5893,-2.5893,-2.5893,-2.5809,-2.495,-2.4078,-2.3445,-2.2686,-2.2282,-2.2347,-2.2486,-2.2638,-2.2743,-2.3068,-2.3297,-2.3319,-2.3545,-2.3818,-2.3982,-2.4156,-2.4102,-2.3656,-2.3009,-2.2317,-2.1673,-2.1042,-2.0533,-2.035,-2.0287,-2.0287,-2.0287,-2.0287,-2.0287,-2.0287,-2.0287,-2.0287,-2.0287,-2.0287,-2.0287,-2.0287,-2.0287,-2.0287,-2.0287,-2.0287,-2.0287,-2.0287,-2.0287,-2.0287,-2.0287,-2.0287,-2.0304,-4.4059,-4.3357,-4.2177,-4.1348,-4.0716,-4.0702,-4.0702,-4.0702,-4.0702,-4.0702,-4.0702,-4.0702,-4.0688,-4.0589,-3.9985,-3.9746,-3.9704,-3.924,-3.8958,-3.8874,-3.8874,-3.8522,-3.7892,-3.7864,-3.7555,-3.7091,-3.7007,-3.6722,-3.6131,-3.547,-3.4815,-3.4217,-3.3641,-3.3304,-3.3276,-3.3276,-3.3016,-3.2525,-3.2342,-3.1794,-3.0694,-3.0484,-3.0119,-2.9631,-2.956,-2.9237,-2.8731,-2.8661,-2.8366,-2.7762,-2.7763,-2.7482,-2.6863,-2.6764,-2.6483,-2.5978,-2.5893,-2.5893,-2.5893,-2.5893,-2.5893,-2.5893,-2.5893,-2.5893,-2.5893,-2.5893,-2.5893,-2.5893,-2.5302,-2.4641,-2.398,-2.2953,-2.2278,-2.2231,-2.2454,-2.2592,-2.2615,-2.3045,-2.3253,-2.3304,-2.3523,-2.376,-2.3982,-2.4193,-2.4266,-2.4066,-2.364,-2.2948,-2.2259,-2.1612,-2.0996,-2.0472,-2.0287,-2.0287,-2.0287,-2.0287,-2.0287,-2.0287,-2.0287,-2.0287,-2.0287,-2.0287,-2.0287,-2.0287,-2.0287,-2.0287,-2.0287,-2.0287,-2.0287,-2.0287,-2.0287,-2.0287,-2.0287,-2.0287,-2.0304,-4.4045,-4.3427,-4.2584,-4.1868,-4.1264,-4.087,-4.0702,-4.0702,-4.0702,-4.0702,-4.0702,-4.0702,-4.0702,-4.0674,-4.0477,-4.0378,-4.035,-4.0126,-3.9831,-3.9535,-3.9493,-3.9169,-3.8524,-3.8116,-3.7807,-3.7555,-3.7175,-3.688,-3.6666,-3.6075,-3.547,-3.4815,-3.4211,-3.3683,-3.3361,-3.3276,-3.3164,-3.2974,-3.2623,-3.2174,-3.1634,-3.0951,-3.0385,-3.0193,-2.9782,-2.9504,-2.9293,-2.9279,-2.8998,-2.8394,-2.8366,-2.8071,-2.7481,-2.7031,-2.654,-2.5978,-2.5893,-2.5893,-2.5893,-2.5893,-2.5893,-2.5893,-2.5893,-2.5893,-2.5893,-2.5893,-2.5893,-2.5795,-2.5372,-2.4753,-2.4106,-2.3291,-2.2592,-2.2339,-2.244,-2.2615,-2.2706,-2.3008,-2.3282,-2.3326,-2.3625,-2.3903,-2.4003,-2.4156,-2.4281,-2.4241,-2.3733,-2.3086,-2.2413,-2.1735,-2.1103,-2.0503,-2.0287,-2.0287,-2.0287,-2.0287,-2.0287,-2.0287,-2.0287,-2.0287,-2.0287,-2.0287,-2.0287,-2.0287,-2.0287,-2.0287,-2.0287,-2.0287,-2.0287,-2.0287,-2.0287,-2.0287,-2.0287,-2.0287,-2.0287,-4.4045,-4.3483,-4.3048,-4.2388,-4.1587,-4.1165,-4.087,-4.073,-4.0702,-4.0702,-4.0702,-4.0702,-4.0702,-4.0702,-4.0702,-4.0702,-4.0702,-4.0702,-4.0477,-4.0097,-4.0083,-3.976,-3.9211,-3.8721,-3.8285,-3.7864,-3.7274,-3.6978,-3.6908,-3.6413,-3.5892,-3.547,-3.466,-3.3992,-3.3613,-3.3389,-3.3276,-3.3192,-3.2904,-3.2623,-3.2328,-3.1373,-3.068,-3.0441,-2.9926,-2.9602,-2.9602,-2.9602,-2.9434,-2.9055,-2.8984,-2.8703,-2.8115,-2.727,-2.6624,-2.6231,-2.5992,-2.5893,-2.5893,-2.5893,-2.5893,-2.5893,-2.5893,-2.5893,-2.5893,-2.5893,-2.5893,-2.5822,-2.5583,-2.5049,-2.443,-2.3811,-2.3083,-2.2428,-2.244,-2.2615,-2.2638,-2.3008,-2.3319,-2.3516,-2.379,-2.3982,-2.4067,-2.4198,-2.4261,-2.4281,-2.3887,-2.3379,-2.2701,-2.204,-2.1381,-2.0751,-2.0426,-2.0333,-2.0287,-2.0287,-2.0287,-2.0287,-2.0287,-2.0287,-2.0287,-2.0287,-2.0287,-2.0287,-2.0287,-2.0287,-2.0287,-2.0287,-2.0287,-2.0287,-2.0287,-2.0287,-2.0287,-2.0287,-2.0287,-4.4059,-4.3582,-4.3483,-4.2767,-4.1769,-4.1559,-4.1235,-4.0758,-4.0702,-4.0702,-4.0702,-4.0702,-4.0702,-4.0702,-4.0702,-4.0702,-4.0702,-4.0702,-4.0674,-4.0617,-4.0631,-4.0336,-3.9788,-3.9648,-3.8945,-3.7906,-3.7274,-3.6993,-3.695,-3.6483,-3.6145,-3.5878,-3.4857,-3.4245,-3.4161,-3.3585,-3.3276,-3.3262,-3.3206,-3.2988,-3.2426,-3.1822,-3.1204,-3.0582,-2.9978,-2.9659,-2.9617,-2.9602,-2.9588,-2.956,-2.9546,-2.9307,-2.8577,-2.7607,-2.6863,-2.668,-2.6245,-2.595,-2.5893,-2.5893,-2.5893,-2.5893,-2.5893,-2.5893,-2.5893,-2.5893,-2.5893,-2.5879,-2.5823,-2.5584,-2.4978,-2.4374,-2.3544,-2.2484,-2.2511,-2.2615,-2.2669,-2.3008,-2.3429,-2.3711,-2.3919,-2.4061,-2.4181,-2.4255,-2.4281,-2.4281,-2.4204,-2.3917,-2.3255,-2.2624,-2.2074,-2.135,-2.0826,-2.0551,-2.0395,-2.0287,-2.0287,-2.0287,-2.0287,-2.0287,-2.0287,-2.0287,-2.0287,-2.0287,-2.0287,-2.0287,-2.0287,-2.0287,-2.0287,-2.0287,-2.0287,-2.0287,-2.0287,-2.0287,-2.0287,-4.4298,-4.4074,-4.3666,-4.3034,-4.2247,-4.1812,-4.125,-4.073,-4.0702,-4.0702,-4.0702,-4.0702,-4.0702,-4.0702,-4.0702,-4.0702,-4.0702,-4.0702,-4.0702,-4.0702,-4.0702,-4.0617,-4.0364,-3.9985,-3.9114,-3.7976,-3.7274,-3.6993,-3.6936,-3.6782,-3.6539,-3.6019,-3.5316,-3.4646,-3.4203,-3.3613,-3.3276,-3.3276,-3.3276,-3.3178,-3.3002,-3.2426,-3.1822,-3.119,-3.0572,-3.002,-2.9631,-2.9602,-2.9602,-2.9602,-2.9602,-2.9336,-2.8745,-2.8324,-2.772,-2.6905,-2.6624,-2.6301,-2.595,-2.5893,-2.5893,-2.5893,-2.5893,-2.5893,-2.5893,-2.5893,-2.5893,-2.5893,-2.5879,-2.564,-2.5036,-2.4458,-2.3755,-2.2925,-2.271,-2.2615,-2.2706,-2.3031,-2.3429,-2.3754,-2.3925,-2.4046,-2.4166,-2.4255,-2.4281,-2.4281,-2.4281,-2.4056,-2.3456,-2.3117,-2.2505,-2.1535,-2.1152,-2.0798,-2.0597,-2.0395,-2.0287,-2.0287,-2.0287,-2.0287,-2.0287,-2.0287,-2.0287,-2.0287,-2.0287,-2.0287,-2.0287,-2.0287,-2.0287,-2.0287,-2.0287,-2.0287,-2.0287,-2.0287,-2.0287,-4.4425,-4.4369,-4.4003,-4.3497,-4.2865,-4.2247,-4.1615,-4.1053,-4.0786,-4.0716,-4.0702,-4.0702,-4.0702,-4.0702,-4.0702,-4.0702,-4.0702,-4.0702,-4.0702,-4.0702,-4.0702,-4.0702,-4.0617,-4.0069,-3.9324,-3.8313,-3.7625,-3.7203,-3.6993,-3.6964,-3.6782,-3.6399,-3.5836,-3.5231,-3.4576,-3.3936,-3.3543,-3.3333,-3.3276,-3.3276,-3.3164,-3.2721,-3.223,-3.1766,-3.0993,-3.0375,-2.9922,-2.9757,-2.9602,-2.9602,-2.9602,-2.9406,-2.9055,-2.8802,-2.8226,-2.7383,-2.6905,-2.654,-2.5992,-2.5893,-2.5893,-2.5893,-2.5893,-2.5893,-2.5893,-2.5893,-2.5893,-2.5893,-2.5893,-2.5739,-2.5331,-2.4795,-2.4177,-2.353,-2.2914,-2.2727,-2.2851,-2.312,-2.3451,-2.3775,-2.3961,-2.4082,-2.4193,-2.4255,-2.4281,-2.4281,-2.4281,-2.4241,-2.3733,-2.3456,-2.2732,-2.2058,-2.155,-2.1165,-2.0749,-2.0518,-2.0318,-2.0287,-2.0287,-2.0287,-2.0287,-2.0287,-2.0287,-2.0287,-2.0287,-2.0287,-2.0287,-2.0287,-2.0287,-2.0287,-2.0287,-2.0287,-2.0287,-2.0287,-2.0287,-4.4425,-4.4425,-4.4411,-4.4003,-4.3399,-4.2781,-4.2135,-4.1545,-4.0955,-4.0702,-4.0702,-4.0702,-4.0702,-4.0702,-4.0702,-4.0702,-4.0702,-4.0702,-4.0702,-4.0702,-4.0702,-4.0702,-4.0617,-4.0055,-3.9451,-3.8818,-3.8131,-3.7555,-3.7007,-3.6978,-3.6978,-3.6838,-3.6314,-3.578,-3.5105,-3.452,-3.3852,-3.3347,-3.3276,-3.3276,-3.3262,-3.2806,-3.2426,-3.2328,-3.1274,-3.0586,-3.0357,-2.9912,-2.9602,-2.9602,-2.9602,-2.9588,-2.9476,-2.904,-2.8507,-2.7846,-2.7214,-2.6638,-2.6132,-2.5921,-2.5893,-2.5893,-2.5893,-2.5893,-2.5893,-2.5893,-2.5893,-2.5893,-2.5893,-2.5879,-2.5766,-2.5288,-2.4709,-2.4126,-2.3203,-2.2869,-2.3209,-2.3282,-2.3494,-2.3839,-2.4003,-2.4067,-2.424,-2.4281,-2.4281,-2.4281,-2.4281,-2.4241,-2.4148,-2.381,-2.344,-2.284,-2.2182,-2.1797,-2.1442,-2.0872,-2.0687,-2.061,-2.0487,-2.0302,-2.0287,-2.0287,-2.0287,-2.0287,-2.0287,-2.0287,-2.0287,-2.0287,-2.0287,-2.0287,-2.0287,-2.0287,-2.0287,-2.0287,-2.0287,-4.4425,-4.4425,-4.4425,-4.4059,-4.3455,-4.2851,-4.2219,-4.1587,-4.0969,-4.0702,-4.0702,-4.0702,-4.0702,-4.0702,-4.0702,-4.0702,-4.0702,-4.0702,-4.0702,-4.0702,-4.0702,-4.0702,-4.0575,-4.0069,-3.9521,-3.8888,-3.8257,-3.7583,-3.7021,-3.6978,-3.6978,-3.6964,-3.6441,-3.5822,-3.5189,-3.4562,-3.3908,-3.3375,-3.3276,-3.3276,-3.3262,-3.315,-3.2862,-3.2356,-3.164,-3.1007,-3.0512,-2.9926,-2.9602,-2.9602,-2.9602,-2.9602,-2.9588,-2.942,-2.904,-2.8422,-2.7832,-2.7214,-2.6624,-2.6132,-2.5921,-2.5893,-2.5893,-2.5893,-2.5893,-2.5893,-2.5893,-2.5893,-2.5893,-2.5893,-2.5822,-2.5372,-2.4831,-2.433,-2.3402,-2.2884,-2.3208,-2.3304,-2.3494,-2.3882,-2.3982,-2.4109,-2.4234,-2.4281,-2.4281,-2.4281,-2.4281,-2.4281,-2.4241,-2.4179,-2.3825,-2.3425,-2.2886,-2.2517,-2.2089,-2.1458,-2.1088,-2.0996,-2.0767,-2.035,-2.0335,-2.0287,-2.0287,-2.0287,-2.0287,-2.0287,-2.0287,-2.0287,-2.0287,-2.0287,-2.0287,-2.0287,-2.0287,-2.0287,-2.0287,-4.4425,-4.4425,-4.4425,-4.4214,-4.3778,-4.295,-4.2359,-4.1896,-4.1095,-4.0702,-4.0702,-4.0702,-4.0702,-4.0702,-4.0702,-4.0702,-4.0702,-4.0702,-4.0702,-4.0702,-4.0702,-4.0702,-4.0603,-4.0266,-3.9718,-3.8944,-3.8536,-3.7861,-3.7133,-3.6978,-3.6978,-3.6936,-3.6666,-3.6047,-3.5217,-3.4829,-3.4169,-3.348,-3.3276,-3.3276,-3.3276,-3.3276,-3.3136,-3.2721,-3.2202,-3.1499,-3.0582,-2.9894,-2.9602,-2.9602,-2.9602,-2.9602,-2.9602,-2.9602,-2.9336,-2.8731,-2.8113,-2.7467,-2.6849,-2.6245,-2.5921,-2.5893,-2.5893,-2.5893,-2.5893,-2.5893,-2.5893,-2.5893,-2.5893,-2.5893,-2.5822,-2.5372,-2.5024,-2.4804,-2.3993,-2.3504,-2.3687,-2.3452,-2.3546,-2.3833,-2.4003,-2.4088,-2.4261,-2.4281,-2.4281,-2.4281,-2.4281,-2.4281,-2.4281,-2.4266,-2.4204,-2.381,-2.344,-2.304,-2.2686,-2.2151,-2.1689,-2.1565,-2.1196,-2.0736,-2.0505,-2.0426,-2.0287,-2.0287,-2.0287,-2.0287,-2.0287,-2.0287,-2.0287,-2.0287,-2.0287,-2.0287,-2.0287,-2.0287,-2.0287,-4.4425,-4.4425,-4.4425,-4.4369,-4.4088,-4.3135,-4.2472,-4.2219,-4.1193,-4.0702,-4.0702,-4.0702,-4.0702,-4.0702,-4.0702,-4.0702,-4.0702,-4.0702,-4.0702,-4.0702,-4.0702,-4.0702,-4.0702,-4.0645,-3.9943,-3.9057,-3.8916,-3.8128,-3.7259,-3.6978,-3.6978,-3.6964,-3.6936,-3.636,-3.5555,-3.5217,-3.4542,-3.3663,-3.3333,-3.329,-3.3276,-3.3276,-3.3234,-3.3122,-3.2623,-3.171,-3.0708,-3.0052,-2.9715,-2.9602,-2.9602,-2.9602,-2.9602,-2.9602,-2.9378,-2.8886,-2.834,-2.7664,-2.6989,-2.6441,-2.5964,-2.5936,-2.5893,-2.5893,-2.5893,-2.5893,-2.5893,-2.5893,-2.5893,-2.5893,-2.5837,-2.5388,-2.5309,-2.532,-2.4897,-2.4543,-2.4335,-2.3806,-2.3562,-2.3994,-2.4073,-2.4073,-2.4219,-2.4281,-2.4281,-2.4281,-2.4281,-2.4281,-2.4281,-2.4281,-2.4281,-2.4189,-2.384,-2.3486,-2.3163,-2.284,-2.2459,-2.2151,-2.175,-2.1304,-2.0903,-2.0718,-2.0426,-2.0287,-2.0287,-2.0287,-2.0287,-2.0287,-2.0287,-2.0287,-2.0287,-2.0287,-2.0287,-2.0287,-2.0287,-4.4425,-4.4425,-4.4425,-4.413,-4.3624,-4.2879,-4.2289,-4.1783,-4.1025,-4.0702,-4.0702,-4.0702,-4.0702,-4.0702,-4.0702,-4.0702,-4.0702,-4.0702,-4.0702,-4.0702,-4.0702,-4.0702,-4.0702,-4.0702,-3.9999,-3.9169,-3.8916,-3.8227,-3.7274,-3.6978,-3.6978,-3.6978,-3.6936,-3.6613,-3.5963,-3.5358,-3.4851,-3.4034,-3.3543,-3.329,-3.3276,-3.3276,-3.3276,-3.3234,-3.2721,-3.1794,-3.0764,-3.0371,-3.0094,-2.9729,-2.9602,-2.9602,-2.9602,-2.9602,-2.9518,-2.9279,-2.8788,-2.8183,-2.7593,-2.6947,-2.6385,-2.6006,-2.5921,-2.5893,-2.5893,-2.5893,-2.5893,-2.5893,-2.5893,-2.5893,-2.5865,-2.5781,-2.5775,-2.582,-2.5554,-2.5344,-2.5487,-2.4734,-2.4305,-2.4504,-2.4338,-2.4088,-2.4276,-2.4281,-2.4281,-2.4281,-2.4281,-2.4281,-2.4281,-2.4281,-2.4281,-2.4281,-2.4143,-2.384,-2.3717,-2.3394,-2.3009,-2.2671,-2.2305,-2.1889,-2.1488,-2.1088,-2.0811,-2.0533,-2.0287,-2.0287,-2.0287,-2.0287,-2.0287,-2.0287,-2.0302,-2.0364,-2.0395,-2.0349,-2.0564,-4.4425,-4.4425,-4.4425,-4.4045,-4.3441,-4.2851,-4.2219,-4.1573,-4.0955,-4.0702,-4.0702,-4.0702,-4.0702,-4.0702,-4.0702,-4.0702,-4.0702,-4.0702,-4.0702,-4.0702,-4.0702,-4.0702,-4.0702,-4.0603,-4.0069,-3.9085,-3.8916,-3.8199,-3.7288,-3.6978,-3.6978,-3.6978,-3.6978,-3.6641,-3.6103,-3.5498,-3.488,-3.4189,-3.3613,-3.3276,-3.3276,-3.3276,-3.3276,-3.3178,-3.2721,-3.1921,-3.1092,-3.0624,-3.0207,-2.9771,-2.9602,-2.9602,-2.9602,-2.9602,-2.9602,-2.9504,-2.9026,-2.8605,-2.8129,-2.7355,-2.6638,-2.6343,-2.6076,-2.5921,-2.5893,-2.5893,-2.5893,-2.5893,-2.5893,-2.5893,-2.5893,-2.5893,-2.6029,-2.6176,-2.6028,-2.609,-2.6293,-2.5501,-2.4713,-2.4896,-2.4687,-2.4444,-2.4382,-2.4404,-2.4297,-2.4317,-2.4281,-2.4281,-2.4281,-2.4281,-2.4281,-2.4281,-2.4281,-2.4204,-2.4179,-2.3917,-2.3517,-2.3194,-2.2871,-2.2455,-2.2074,-2.1658,-2.1242,-2.098,-2.0718,-2.0318,-2.0287,-2.0287,-2.0395,-2.0333,-2.0397,-2.0489,-2.0657,-2.0872,-2.118,-4.4355,-4.427,-4.4256,-4.3863,-4.3188,-4.2626,-4.2022,-4.1418,-4.094,-4.0702,-4.0702,-4.0702,-4.0702,-4.0702,-4.0702,-4.0702,-4.0702,-4.0702,-4.0702,-4.0702,-4.0702,-4.0702,-4.0688,-4.0463,-3.9943,-3.9,-3.8916,-3.8213,-3.7288,-3.6978,-3.6978,-3.6978,-3.6978,-3.6754,-3.6244,-3.5527,-3.4978,-3.445,-3.3683,-3.3276,-3.3276,-3.3276,-3.3276,-3.3192,-3.2918,-3.2314,-3.164,-3.1078,-3.0399,-2.9799,-2.9659,-2.9617,-2.9602,-2.9602,-2.9602,-2.9602,-2.9153,-2.8844,-2.8507,-2.7762,-2.713,-2.6863,-2.6371,-2.6006,-2.5936,-2.5893,-2.5893,-2.5893,-2.5893,-2.5893,-2.5893,-2.5893,-2.6029,-2.6218,-2.6299,-2.6566,-2.6821,-2.6159,-2.5667,-2.5417,-2.5295,-2.5048,-2.475,-2.4625,-2.4471,-2.4333,-2.4297,-2.4281,-2.4281,-2.4281,-2.4281,-2.4281,-2.4281,-2.4281,-2.4271,-2.4241,-2.3871,-2.3702,-2.3409,-2.3148,-2.2748,-2.2459,-2.2074,-2.1535,-2.1196,-2.0872,-2.078,-2.0996,-2.0949,-2.061,-2.0749,-2.115,-2.135,-2.1442,-2.175,-4.4116,-4.3652,-4.3652,-4.3006,-4.2008,-4.1826,-4.146,-4.0898,-4.0772,-4.0702,-4.0702,-4.0702,-4.0702,-4.0702,-4.0702,-4.0702,-4.0702,-4.0702,-4.0702,-4.0702,-4.0702,-4.0702,-4.0645,-4.0224,-3.9633,-3.9113,-3.8818,-3.8157,-3.7245,-3.6978,-3.6978,-3.6978,-3.6978,-3.6852,-3.6553,-3.5822,-3.5147,-3.4781,-3.3888,-3.3304,-3.3276,-3.3276,-3.3276,-3.3276,-3.3094,-3.2778,-3.223,-3.164,-3.1036,-3.0371,-2.9883,-2.9673,-2.9602,-2.9602,-2.9602,-2.9574,-2.9476,-2.9195,-2.8774,-2.8493,-2.7776,-2.7116,-2.6666,-2.6357,-2.6076,-2.5893,-2.5893,-2.5893,-2.5893,-2.5893,-2.5893,-2.5893,-2.6029,-2.6206,-2.634,-2.6539,-2.6953,-2.6908,-2.6654,-2.649,-2.6122,-2.5651,-2.5348,-2.501,-2.4779,-2.4564,-2.4394,-2.4327,-2.4281,-2.4281,-2.4281,-2.4281,-2.4281,-2.4281,-2.4281,-2.4281,-2.4143,-2.4097,-2.3943,-2.3943,-2.3609,-2.3348,-2.2967,-2.249,-2.2089,-2.1797,-2.1781,-2.175,-2.1704,-2.1504,-2.172,-2.1951,-2.2058,-2.2132,-2.2224,-4.3301,-4.3034,-4.302,-4.2486,-4.1699,-4.1601,-4.1264,-4.0758,-4.0702,-4.0702,-4.0702,-4.0702,-4.0702,-4.0702,-4.0702,-4.0702,-4.0702,-4.0702,-4.0702,-4.0702,-4.0702,-4.0702,-4.0603,-4.0041,-3.9507,-3.8958,-3.855,-3.792,-3.7063,-3.6978,-3.6978,-3.6978,-3.6978,-3.6978,-3.6712,-3.5808,-3.5273,-3.4908,-3.4,-3.3276,-3.3276,-3.3276,-3.3276,-3.3276,-3.3248,-3.3002,-3.2483,-3.2188,-3.1485,-3.0684,-3.0235,-2.994,-2.9729,-2.9602,-2.9602,-2.9602,-2.9602,-2.9518,-2.9139,-2.8914,-2.8366,-2.786,-2.7256,-2.6694,-2.6371,-2.6132,-2.5921,-2.5893,-2.5893,-2.5893,-2.5893,-2.5893,-2.6029,-2.6233,-2.6313,-2.6592,-2.6985,-2.7141,-2.7239,-2.7263,-2.6864,-2.6352,-2.5913,-2.5564,-2.521,-2.4872,-2.4533,-2.441,-2.4312,-2.4281,-2.4281,-2.4281,-2.4281,-2.4281,-2.4281,-2.4281,-2.4281,-2.4281,-2.4281,-2.4281,-2.422,-2.3856,-2.3733,-2.3517,-2.3148,-2.2613,-2.2289,-2.2105,-2.2243,-2.2366,-2.2317,-2.2363,-2.2655,-2.284,-2.2932,-4.2514,-4.2388,-4.2388,-4.2008,-4.1474,-4.1432,-4.1151,-4.0772,-4.0702,-4.0702,-4.0702,-4.0702,-4.0702,-4.0702,-4.0702,-4.0702,-4.0702,-4.0702,-4.0702,-4.0659,-4.0519,-4.0491,-4.0322,-3.976,-3.9044,-3.8538,-3.799,-3.747,-3.7091,-3.6978,-3.6978,-3.6978,-3.6978,-3.688,-3.6581,-3.5695,-3.5287,-3.4683,-3.3944,-3.3319,-3.3276,-3.3276,-3.3276,-3.3276,-3.3276,-3.3052,-3.2721,-3.2412,-3.1935,-3.1204,-3.0638,-3.0291,-2.9869,-2.9673,-2.9602,-2.9602,-2.9602,-2.9602,-2.9476,-2.9237,-2.8858,-2.8464,-2.772,-2.7214,-2.661,-2.6245,-2.5893,-2.5893,-2.5893,-2.5893,-2.5893,-2.5893,-2.6029,-2.6233,-2.634,-2.6486,-2.6948,-2.7207,-2.7386,-2.7355,-2.7267,-2.699,-2.6558,-2.6334,-2.601,-2.5189,-2.4856,-2.4518,-2.442,-2.4312,-2.4281,-2.4281,-2.4281,-2.4281,-2.4281,-2.4281,-2.4281,-2.4281,-2.4281,-2.4281,-2.4281,-2.4204,-2.4112,-2.3994,-2.3656,-2.3117,-2.2778,-2.2671,-2.3009,-2.3102,-2.2809,-2.2886,-2.3332,-2.3533,-2.3594,-4.2247,-4.1727,-4.1727,-4.1376,-4.087,-4.0856,-4.08,-4.073,-4.0702,-4.0702,-4.0702,-4.0702,-4.0702,-4.0702,-4.0702,-4.0702,-4.0702,-4.0617,-4.0589,-4.0519,-4.0126,-3.9901,-3.9704,-3.8622,-3.8369,-3.8046,-3.747,-3.7105,-3.6993,-3.6978,-3.6978,-3.6978,-3.6936,-3.674,-3.6286,-3.5583,-3.4885,-3.4351,-3.3641,-3.3276,-3.3276,-3.3276,-3.3276,-3.3276,-3.3276,-3.3234,-3.3038,-3.2736,-3.2272,-3.2047,-3.1017,-3.0512,-3.0301,-2.9869,-2.9659,-2.9602,-2.9602,-2.9602,-2.9588,-2.9462,-2.9223,-2.89,-2.8436,-2.786,-2.7017,-2.6357,-2.5992,-2.5893,-2.5893,-2.5893,-2.5893,-2.5893,-2.6029,-2.6179,-2.6313,-2.6527,-2.691,-2.7196,-2.7361,-2.7549,-2.7464,-2.7388,-2.7147,-2.7011,-2.6795,-2.5918,-2.5158,-2.485,-2.4512,-2.4404,-2.4297,-2.4281,-2.4281,-2.4281,-2.4281,-2.4281,-2.4327,-2.4312,-2.4312,-2.4312,-2.4281,-2.4281,-2.4281,-2.4112,-2.3856,-2.3779,-2.3625,-2.3671,-2.3912,-2.382,-2.3543,-2.3728,-2.4097,-2.4189,-2.4133,-4.1348,-4.1109,-4.1081,-4.0955,-4.0716,-4.0702,-4.0702,-4.0702,-4.0702,-4.0702,-4.0702,-4.0702,-4.0702,-4.0659,-4.0702,-4.0702,-4.0631,-4.0336,-4.0182,-4.0055,-3.9647,-3.931,-3.9113,-3.8383,-3.7906,-3.7709,-3.7344,-3.7049,-3.6978,-3.6978,-3.6978,-3.6978,-3.695,-3.6683,-3.6061,-3.5498,-3.4857,-3.4253,-3.3677,-3.3304,-3.3276,-3.3276,-3.3276,-3.3276,-3.3276,-3.3276,-3.3206,-3.3094,-3.2707,-3.2384,-3.1485,-3.0895,-3.0488,-2.9982,-2.9602,-2.9602,-2.9602,-2.9602,-2.9602,-2.9602,-2.9434,-2.9195,-2.883,-2.8099,-2.7102,-2.6596,-2.6231,-2.5921,-2.5893,-2.5907,-2.5907,-2.5893,-2.6002,-2.6138,-2.626,-2.65,-2.6806,-2.7067,-2.731,-2.7514,-2.766,-2.7588,-2.7524,-2.7416,-2.7234,-2.6734,-2.601,-2.5542,-2.5019,-2.4548,-2.4404,-2.4281,-2.4281,-2.4281,-2.4281,-2.4297,-2.4404,-2.442,-2.4425,-2.4374,-2.4312,-2.4281,-2.4497,-2.4456,-2.421,-2.421,-2.4343,-2.4235,-2.4143,-2.4204,-2.4281,-2.4281,-2.4297,-2.4327,-2.4251,-4.0702,-4.0702,-4.0702,-4.0702,-4.0702,-4.0702,-4.0702,-4.0702,-4.0702,-4.0702,-4.0645,-4.0533,-4.0378,-4.0252,-4.0168,-4.0112,-4.0154,-3.976,-3.9633,-3.9394,-3.9029,-3.8705,-3.8452,-3.7976,-3.7625,-3.7667,-3.7217,-3.6993,-3.6978,-3.6978,-3.6978,-3.6978,-3.6978,-3.6515,-3.5934,-3.54,-3.4801,-3.3894,-3.3487,-3.329,-3.3276,-3.3276,-3.3276,-3.3276,-3.3276,-3.3276,-3.3276,-3.3262,-3.3002,-3.2693,-3.2075,-3.1457,-3.0881,-3.0305,-2.9813,-2.9701,-2.9602,-2.9602,-2.9602,-2.9602,-2.9602,-2.942,-2.9055,-2.8338,-2.7621,-2.7186,-2.6793,-2.6259,-2.6202,-2.6104,-2.5936,-2.5893,-2.5975,-2.6084,-2.6233,-2.6474,-2.6686,-2.6948,-2.7181,-2.7361,-2.7564,-2.7765,-2.7707,-2.7682,-2.7556,-2.7365,-2.6888,-2.628,-2.5681,-2.5056,-2.501,-2.501,-2.5056,-2.5056,-2.4973,-2.4881,-2.4804,-2.4718,-2.4718,-2.481,-2.4964,-2.5025,-2.5179,-2.4979,-2.4718,-2.4979,-2.5318,-2.4795,-2.4281,-2.4281,-2.4281,-2.4281,-2.4297,-2.4404,-2.4558,-4.0702,-4.0702,-4.0702,-4.0702,-4.0702,-4.0702,-4.0702,-4.0702,-4.0702,-4.0674,-4.0547,-4.0112,-3.9564,-3.9268,-3.9254,-3.9226,-3.9113,-3.9,-3.8958,-3.8747,-3.8313,-3.8018,-3.7779,-3.747,-3.7133,-3.7119,-3.7007,-3.6993,-3.6978,-3.6978,-3.6978,-3.6978,-3.6866,-3.623,-3.5569,-3.5012,-3.4407,-3.3669,-3.3319,-3.329,-3.3276,-3.3276,-3.3276,-3.3276,-3.3276,-3.3276,-3.3276,-3.3276,-3.3248,-3.308,-3.2539,-3.2033,-3.1415,-3.0698,-3.0164,-2.9855,-2.9645,-2.9631,-2.9602,-2.9602,-2.9602,-2.9434,-2.9125,-2.8703,-2.8268,-2.7917,-2.7468,-2.6863,-2.6764,-2.6469,-2.6174,-2.5935,-2.6116,-2.6056,-2.6179,-2.6326,-2.658,-2.6832,-2.7052,-2.7233,-2.7412,-2.764,-2.78,-2.7756,-2.7821,-2.7624,-2.7349,-2.678,-2.6472,-2.5964,-2.5995,-2.6026,-2.6087,-2.6103,-2.6081,-2.5927,-2.5656,-2.561,-2.5626,-2.581,-2.601,-2.6033,-2.5764,-2.5826,-2.5687,-2.598,-2.6079,-2.5441,-2.4902,-2.4466,-2.4389,-2.4779,-2.4948,-2.5087,-2.521,-4.0702,-4.0702,-4.0702,-4.0702,-4.0702,-4.0702,-4.0702,-4.0702,-4.0702,-4.0463,-4.0083,-3.9549,-3.9141,-3.893,-3.8916,-3.8916,-3.8846,-3.8412,-3.8368,-3.8114,-3.7695,-3.7386,-3.7217,-3.7161,-3.6993,-3.6978,-3.6978,-3.6978,-3.6978,-3.6978,-3.6978,-3.6908,-3.668,-3.6005,-3.5316,-3.452,-3.3817,-3.3529,-3.3276,-3.3276,-3.3276,-3.3276,-3.3276,-3.3276,-3.3276,-3.3276,-3.3276,-3.3276,-3.3276,-3.3171,-3.2721,-3.2342,-3.1935,-3.112,-3.0484,-3.0122,-2.9855,-2.9673,-2.9602,-2.9602,-2.9602,-2.9588,-2.9378,-2.9111,-2.8816,-2.8494,-2.8029,-2.7636,-2.7383,-2.713,-2.661,-2.6441,-2.6413,-2.6172,-2.6181,-2.6374,-2.6506,-2.683,-2.6925,-2.7107,-2.7299,-2.7514,-2.765,-2.7795,-2.7871,-2.7889,-2.7586,-2.7303,-2.7042,-2.6795,-2.6765,-2.6718,-2.6749,-2.671,-2.6657,-2.6534,-2.6426,-2.6488,-2.6534,-2.6626,-2.6718,-2.638,-2.6211,-2.638,-2.6503,-2.6518,-2.6364,-2.5956,-2.5595,-2.5333,-2.541,-2.5709,-2.5802,-2.5749,-2.5872,-4.0421,-4.0407,-4.0224,-4.0364,-4.0674,-4.0702,-4.0589,-4.0435,-4.0407,-3.9943,-3.9212,-3.8749,-3.8454,-3.8355,-3.8325,-3.8283,-3.8128,-3.7835,-3.7681,-3.7484,-3.7245,-3.7007,-3.6978,-3.6978,-3.6978,-3.6978,-3.6978,-3.6978,-3.6978,-3.6978,-3.6978,-3.6754,-3.6244,-3.5597,-3.5062,-3.4014,-3.329,-3.3276,-3.3276,-3.3276,-3.3276,-3.3276,-3.3276,-3.3276,-3.3276,-3.3276,-3.3276,-3.3276,-3.3276,-3.3178,-3.2946,-3.2623,-3.2174,-3.164,-3.0979,-3.0516,-3.015,-2.9841,-2.9659,-2.9602,-2.9602,-2.9588,-2.9588,-2.9336,-2.9097,-2.8942,-2.8675,-2.8185,-2.8058,-2.779,-2.7186,-2.7074,-2.7031,-2.6863,-2.6933,-2.7073,-2.6856,-2.6946,-2.6944,-2.6995,-2.7174,-2.7325,-2.7564,-2.7725,-2.7919,-2.8024,-2.8016,-2.7834,-2.775,-2.7519,-2.7349,-2.7303,-2.7272,-2.7165,-2.7057,-2.7196,-2.7334,-2.738,-2.7396,-2.7272,-2.7211,-2.6919,-2.6934,-2.7272,-2.7288,-2.7042,-2.698,-2.6995,-2.6688,-2.6318,-2.6334,-2.6325,-2.631,-2.6272,-2.6565,-3.9802,-3.9718,-3.924,-3.9662,-4.0533,-4.0674,-4.0322,-3.9816,-3.9718,-3.9128,-3.8201,-3.7976,-3.7639,-3.7288,-3.733,-3.7344,-3.7316,-3.7175,-3.7105,-3.7091,-3.7063,-3.6993,-3.6978,-3.6978,-3.6978,-3.6978,-3.6978,-3.6978,-3.6978,-3.6978,-3.6978,-3.6641,-3.5991,-3.5189,-3.5048,-3.393,-3.3319,-3.3276,-3.3276,-3.3276,-3.3276,-3.3276,-3.3276,-3.3276,-3.3276,-3.3276,-3.3276,-3.3276,-3.3276,-3.3234,-3.3206,-3.2946,-3.2511,-3.2314,-3.1682,-3.0792,-3.054,-3.0178,-2.9687,-2.9631,-2.9602,-2.9602,-2.9602,-2.9518,-2.9546,-2.9476,-2.9293,-2.8717,-2.8661,-2.838,-2.8015,-2.7748,-2.7707,-2.7553,-2.7555,-2.7541,-2.7314,-2.7241,-2.7289,-2.7333,-2.7173,-2.7122,-2.7376,-2.764,-2.789,-2.8097,-2.8259,-2.831,-2.8227,-2.8104,-2.7842,-2.7811,-2.7765,-2.778,-2.775,-2.8073,-2.8242,-2.8288,-2.8165,-2.7919,-2.7904,-2.7842,-2.795,-2.8181,-2.8011,-2.7703,-2.798,-2.8273,-2.7703,-2.7103,-2.6795,-2.6703,-2.6703,-2.6857,-2.7211,-3.9211,-3.9197,-3.9,-3.9141,-3.9507,-3.9521,-3.9394,-3.9155,-3.8721,-3.8285,-3.7878,-3.7512,-3.7231,-3.7021,-3.6978,-3.6978,-3.6978,-3.6978,-3.6978,-3.6978,-3.6978,-3.6978,-3.6978,-3.6978,-3.6978,-3.6978,-3.6978,-3.6978,-3.6978,-3.6978,-3.6978,-3.6683,-3.5728,-3.4773,-3.4098,-3.3424,-3.329,-3.3276,-3.3276,-3.3276,-3.3276,-3.3276,-3.3276,-3.3276,-3.3276,-3.3276,-3.3276,-3.3276,-3.3276,-3.3276,-3.3276,-3.315,-3.289,-3.275,-3.2216,-3.1527,-3.119,-3.0217,-2.9799,-2.9602,-2.9602,-2.9602,-2.9602,-2.9602,-2.9602,-2.9602,-2.9448,-2.9336,-2.9223,-2.89,-2.8549,-2.8408,-2.8254,-2.7819,-2.7737,-2.7781,-2.7712,-2.7755,-2.7812,-2.785,-2.7797,-2.7539,-2.7591,-2.7931,-2.8202,-2.8338,-2.8519,-2.8431,-2.8326,-2.8334,-2.8211,-2.8227,-2.8227,-2.8304,-2.8411,-2.8411,-2.8411,-2.835,-2.8334,-2.8273,-2.8334,-2.8411,-2.8381,-2.8288,-2.835,-2.8411,-2.8411,-2.8381,-2.8242,-2.7873,-2.7519,-2.7411,-2.755,-2.7719,-2.7965,-3.8538,-3.855,-3.8339,-3.8255,-3.8325,-3.8719,-3.8804,-3.8494,-3.7878,-3.7583,-3.7484,-3.7147,-3.6993,-3.6993,-3.6978,-3.6978,-3.6978,-3.6978,-3.6978,-3.6978,-3.6978,-3.6978,-3.6978,-3.6978,-3.6978,-3.6978,-3.6978,-3.6978,-3.6978,-3.6978,-3.6683,-3.6188,-3.5559,-3.4562,-3.3761,-3.3304,-3.3276,-3.3276,-3.3276,-3.3276,-3.3276,-3.3276,-3.3276,-3.3276,-3.3276,-3.3276,-3.3276,-3.3276,-3.3276,-3.3276,-3.3276,-3.3276,-3.3136,-3.3002,-3.2609,-3.2159,-3.1274,-3.0385,-3.0066,-2.9659,-2.9645,-2.9602,-2.9602,-2.9602,-2.9602,-2.9602,-2.9602,-2.9574,-2.9602,-2.9406,-2.9069,-2.897,-2.8774,-2.8368,-2.8368,-2.8441,-2.8217,-2.8276,-2.8208,-2.8269,-2.8251,-2.8004,-2.793,-2.823,-2.8573,-2.8675,-2.8774,-2.866,-2.8532,-2.8556,-2.8596,-2.8611,-2.855,-2.8535,-2.8488,-2.8411,-2.8411,-2.8411,-2.8458,-2.8504,-2.8411,-2.8411,-2.8411,-2.8411,-2.8411,-2.8411,-2.8411,-2.835,-2.8288,-2.8273,-2.8196,-2.8211,-2.8411,-2.8411,-2.8411,-3.7878,-3.7779,-3.7231,-3.7049,-3.7217,-3.8269,-3.8383,-3.7835,-3.7259,-3.706,-3.7007,-3.7021,-3.6978,-3.6978,-3.6978,-3.6978,-3.6978,-3.6978,-3.6978,-3.6978,-3.6978,-3.6978,-3.6978,-3.6978,-3.6978,-3.6978,-3.6978,-3.6978,-3.6978,-3.681,-3.6286,-3.5555,-3.5189,-3.4309,-3.3635,-3.3276,-3.3276,-3.3276,-3.3276,-3.3276,-3.3276,-3.3276,-3.3276,-3.3276,-3.3276,-3.3276,-3.3276,-3.3276,-3.3276,-3.3276,-3.3276,-3.3276,-3.3276,-3.3276,-3.2932,-3.2272,-3.1232,-3.0867,-3.0343,-2.9954,-2.9687,-2.9645,-2.9602,-2.9602,-2.9602,-2.9602,-2.9602,-2.9602,-2.9602,-2.9602,-2.9518,-2.949,-2.9462,-2.935,-2.935,-2.9184,-2.8832,-2.8709,-2.8601,-2.8566,-2.8555,-2.8479,-2.8664,-2.8882,-2.8994,-2.9158,-2.9247,-2.9241,-2.9117,-2.8987,-2.9012,-2.8981,-2.8889,-2.8719,-2.8688,-2.8889,-2.8981,-2.9166,-2.875,-2.8688,-2.8565,-2.8458,-2.8411,-2.8411,-2.8411,-2.8411,-2.8411,-2.8411,-2.8396,-2.8411,-2.8411,-2.8411,-2.8411,-2.8411,-2.8411,-3.7245,-3.7231,-3.7063,-3.6978,-3.7035,-3.7372,-3.7414,-3.7217,-3.7035,-3.6978,-3.6978,-3.6978,-3.6978,-3.6978,-3.6978,-3.6978,-3.6978,-3.6978,-3.6978,-3.6978,-3.6978,-3.6978,-3.6978,-3.6978,-3.6978,-3.6978,-3.6978,-3.6978,-3.6866,-3.6655,-3.6075,-3.5302,-3.4787,-3.407,-3.3571,-3.3276,-3.3276,-3.3276,-3.3276,-3.3276,-3.3276,-3.3276,-3.3276,-3.3276,-3.3276,-3.3276,-3.3276,-3.3276,-3.3276,-3.3276,-3.3276,-3.3276,-3.3276,-3.3262,-3.301,-3.2497,-3.1935,-3.1555,-3.068,-3.0329,-3.0034,-2.9701,-2.9617,-2.9602,-2.9602,-2.9602,-2.9602,-2.9602,-2.9602,-2.9602,-2.9602,-2.9602,-2.9602,-2.9602,-2.9602,-2.9462,-2.9167,-2.9141,-2.905,-2.9102,-2.9098,-2.9088,-2.9242,-2.9333,-2.9423,-2.9594,-2.9761,-2.9822,-2.973,-2.9628,-2.9479,-2.9448,-2.9479,-2.9371,-2.9617,-2.9848,-2.9863,-2.9848,-2.9402,-2.9058,-2.8965,-2.8827,-2.8535,-2.8411,-2.8411,-2.8411,-2.8411,-2.8411,-2.8411,-2.8411,-2.8411,-2.8411,-2.8411,-2.8411,-2.8411,-3.6978,-3.6978,-3.6978,-3.6978,-3.6978,-3.6978,-3.6978,-3.6978,-3.6978,-3.6978,-3.6978,-3.6978,-3.6978,-3.6978,-3.6978,-3.6978,-3.6978,-3.6978,-3.6978,-3.6978,-3.6978,-3.6978,-3.6978,-3.6978,-3.6978,-3.6978,-3.6978,-3.6978,-3.6796,-3.6399,-3.5794,-3.5189,-3.4548,-3.3894,-3.3473,-3.3276,-3.3276,-3.3276,-3.3276,-3.3276,-3.3276,-3.3276,-3.3276,-3.3276,-3.3276,-3.3276,-3.3276,-3.3276,-3.3276,-3.3276,-3.3276,-3.3276,-3.3276,-3.3262,-3.322,-3.2764,-3.2412,-3.185,-3.1106,-3.061,-3.0207,-2.9813,-2.9617,-2.9602,-2.9602,-2.9602,-2.9602,-2.9602,-2.9602,-2.9602,-2.9602,-2.9602,-2.9602,-2.9602,-2.9602,-2.9602,-2.9588,-2.9574,-2.9611,-2.9723,-2.9695,-2.9679,-2.9711,-2.9781,-2.9993,-3.038,-3.0706,-3.0882,-3.0674,-3.0343,-3.0161,-3.0033,-3.0125,-3.0186,-3.0448,-3.0571,-3.0448,-3.0309,-3.0048,-2.9694,-2.9479,-2.9166,-2.8858,-2.8611,-2.8411,-2.8411,-2.8411,-2.8411,-2.8411,-2.8411,-2.8411,-2.8411,-2.8411,-2.8411,-2.8411,-3.681,-3.6796,-3.6838,-3.674,-3.6824,-3.6768,-3.6754,-3.6838,-3.6726,-3.6852,-3.6838,-3.6824,-3.6697,-3.6624,-3.6722,-3.6821,-3.6838,-3.688,-3.6978,-3.6964,-3.6978,-3.6978,-3.6978,-3.6978,-3.6978,-3.6978,-3.695,-3.6894,-3.6697,-3.6216,-3.5569,-3.5119,-3.4407,-3.3754,-3.3375,-3.329,-3.3276,-3.3276,-3.3276,-3.3276,-3.3276,-3.3276,-3.3276,-3.3276,-3.3276,-3.3276,-3.3276,-3.3276,-3.3276,-3.3276,-3.3276,-3.3276,-3.3276,-3.3276,-3.3248,-3.3136,-3.2806,-3.2286,-3.1612,-3.1078,-3.0399,-2.9982,-2.9631,-2.9617,-2.9602,-2.9602,-2.9602,-2.9602,-2.9602,-2.9602,-2.9602,-2.9602,-2.9602,-2.9602,-2.9602,-2.9602,-2.9602,-2.9602,-2.9651,-2.9763,-2.9891,-2.9936,-3.0131,-3.0207,-3.0468,-3.1054,-3.1372,-3.1585,-3.1508,-3.106,-3.0906,-3.0714,-3.0909,-3.1032,-3.1001,-3.1063,-3.0889,-3.0694,-3.0571,-3.0386,-3.0197,-2.972,-2.9141,-2.8781,-2.8411,-2.8411,-2.8411,-2.8411,-2.8411,-2.8411,-2.8411,-2.8411,-2.8411,-2.8411,-2.8411,-3.5625,-3.5625,-3.5625,-3.5625,-3.5639,-3.5625,-3.5653,-3.5625,-3.5625,-3.5892,-3.6174,-3.5878,-3.5695,-3.5808,-3.6188,-3.6328,-3.6385,-3.6624,-3.6922,-3.6866,-3.6838,-3.6782,-3.6936,-3.6866,-3.6922,-3.6978,-3.6922,-3.6627,-3.6272,-3.5709,-3.5119,-3.4492,-3.388,-3.3445,-3.3319,-3.3276,-3.3276,-3.3276,-3.3276,-3.3276,-3.3276,-3.3276,-3.3276,-3.3276,-3.3276,-3.3276,-3.3276,-3.3276,-3.3276,-3.3276,-3.3276,-3.3276,-3.3276,-3.3276,-3.3276,-3.3248,-3.308,-3.2693,-3.2159,-3.1541,-3.0951,-3.0301,-2.9922,-2.9715,-2.9602,-2.9602,-2.9602,-2.9602,-2.9602,-2.9602,-2.9602,-2.9602,-2.9602,-2.9602,-2.9602,-2.9602,-2.9602,-2.9634,-2.9651,-2.982,-2.9974,-3.0174,-3.0417,-3.0687,-3.1014,-3.1307,-3.1567,-3.1766,-3.1877,-3.1665,-3.1738,-3.1639,-3.189,-3.1951,-3.1797,-3.1643,-3.149,-3.1443,-3.1382,-3.1151,-3.0859,-3.0012,-2.9227,-2.875,-2.8411,-2.8411,-2.8411,-2.8411,-2.8411,-2.8411,-2.8411,-2.8411,-2.8411,-2.8411,-2.8411,-3.5189,-3.5189,-3.5189,-3.5189,-3.5189,-3.5189,-3.5189,-3.5147,-3.4908,-3.4927,-3.5264,-3.5203,-3.5175,-3.5175,-3.5569,-3.5695,-3.5752,-3.6019,-3.6061,-3.6159,-3.6342,-3.6385,-3.6483,-3.6624,-3.6543,-3.6543,-3.6234,-3.592,-3.5639,-3.5082,-3.4492,-3.4104,-3.3613,-3.3276,-3.3276,-3.3276,-3.3276,-3.3276,-3.3276,-3.3276,-3.3276,-3.3276,-3.3276,-3.3276,-3.3276,-3.3276,-3.3276,-3.3276,-3.3276,-3.3276,-3.3276,-3.3276,-3.3276,-3.3276,-3.3276,-3.3276,-3.3192,-3.3059,-3.2525,-3.2033,-3.1471,-3.0764,-3.0287,-3.0108,-2.9585,-2.9571,-2.954,-2.954,-2.9602,-2.9602,-2.9602,-2.9602,-2.9602,-2.9602,-2.9602,-2.9602,-2.9602,-2.9602,-2.9634,-2.9682,-2.9837,-2.9991,-3.0266,-3.0538,-3.0866,-3.1146,-3.1453,-3.1727,-3.1855,-3.201,-3.2178,-3.2274,-3.233,-3.2398,-3.2182,-3.2136,-3.2151,-3.2121,-3.2028,-3.1659,-3.1151,-3.0104,-2.9258,-2.8919,-2.8627,-2.8411,-2.8411,-2.8411,-2.8411,-2.8411,-2.8411,-2.8411,-2.8411,-2.8411,-2.8372,-3.4908,-3.4964,-3.4936,-3.4936,-3.4964,-3.4936,-3.4908,-3.4823,-3.4351,-3.409,-3.4175,-3.4697,-3.4936,-3.495,-3.5062,-3.5062,-3.5161,-3.5428,-3.533,-3.533,-3.5344,-3.5667,-3.5892,-3.5991,-3.5991,-3.5864,-3.5597,-3.533,-3.5026,-3.4576,-3.4231,-3.4006,-3.3669,-3.3276,-3.3276,-3.3276,-3.3276,-3.3276,-3.3276,-3.3276,-3.3276,-3.3276,-3.3276,-3.3276,-3.3276,-3.3276,-3.3276,-3.3276,-3.3276,-3.3276,-3.3276,-3.3276,-3.3276,-3.3276,-3.3276,-3.3276,-3.3276,-3.3059,-3.2679,-3.2412,-3.1766,-3.1115,-3.0764,-3.0399,-2.995,-2.9789,-2.9757,-2.9684,-2.9747,-2.9596,-2.9596,-2.9627,-2.9627,-2.9701,-2.9701,-2.9855,-2.9869,-2.9883,-2.9883,-2.9869,-3.0026,-3.0182,-3.0315,-3.0576,-3.0804,-3.1058,-3.1264,-3.1482,-3.1712,-3.1883,-3.2025,-3.2178,-3.2247,-3.233,-3.2398,-3.2398,-3.2398,-3.2367,-3.2182,-3.1905,-3.149,-3.0674,-2.992,-2.9304,-2.9012,-2.8719,-2.8473,-2.8411,-2.8411,-2.8411,-2.8411,-2.8411,-2.8372,-2.8348,-2.8299,-3.3663,-3.3663,-3.3663,-3.3691,-3.3705,-3.3691,-3.3677,-3.3663,-3.3557,-3.3459,-3.3543,-3.3578,-3.3677,-3.3719,-3.4189,-3.4407,-3.4478,-3.4781,-3.5091,-3.5203,-3.495,-3.5147,-3.533,-3.5335,-3.5372,-3.5245,-3.5091,-3.4908,-3.4492,-3.4203,-3.3922,-3.355,-3.3459,-3.3276,-3.3276,-3.3276,-3.3276,-3.3276,-3.3276,-3.3276,-3.3276,-3.3276,-3.3276,-3.3276,-3.3276,-3.3276,-3.3276,-3.3276,-3.3276,-3.3276,-3.3276,-3.3276,-3.3276,-3.3276,-3.3276,-3.3276,-3.3276,-3.3206,-3.2974,-3.2707,-3.2103,-3.1893,-3.1536,-3.1152,-3.082,-3.068,-3.0559,-3.0289,-3.0141,-2.9654,-2.9557,-2.962,-2.9652,-2.9933,-3.002,-3.0544,-3.0811,-3.0881,-3.0923,-3.0974,-3.1025,-3.0974,-3.0851,-3.1077,-3.1195,-3.138,-3.1338,-3.1573,-3.1791,-3.1875,-3.1913,-3.2025,-3.215,-3.2274,-3.2385,-3.2398,-3.2398,-3.2398,-3.2336,-3.2074,-3.1767,-3.1455,-3.0751,-3.0043,-2.9443,-2.9058,-2.8812,-2.8535,-2.8411,-2.8411,-2.8411,-2.8411,-2.8387,-2.833,-2.8311]}]]